<?xml version="1.0" encoding="utf-8"?>
<gpx xmlns:xsi="http://www.w3.org/2001/XMLSchema-instance" xmlns:xsd="http://www.w3.org/2001/XMLSchema" version="1.1" creator="Shapelink.com" xmlns="http://www.topografix.com/GPX/1/1" xmlns:gpxtpx="http://www.garmin.com/xmlschemas/TrackPointExtension/v1">
  <metadata>
    <name>Längdskidåkning - Klassisk 27.96 km, 2014-12-21</name>
    <desc></desc>
    <author><name>Alexander Engvall</name></author> 
    <time>2014-12-21T10:53:01Z</time>
  </metadata>
  <trk>
    <name>Längdskidåkning - Klassisk 27.96 km, 2014-12-21</name>
    <trkseg>
      <trkpt lat="61.2109726" lon="14.5336956">
        <ele>467.819</ele>
        <time>2014-12-21T10:53:01Z</time>
      </trkpt>
      <trkpt lat="61.2108948" lon="14.5336273">
        <ele>465.896</ele>
        <time>2014-12-21T10:53:05Z</time>
      </trkpt>
      <trkpt lat="61.2108306" lon="14.5333497">
        <ele>464.935</ele>
        <time>2014-12-21T10:53:09Z</time>
      </trkpt>
      <trkpt lat="61.2108197" lon="14.5332682">
        <ele>464.454</ele>
        <time>2014-12-21T10:53:10Z</time>
      </trkpt>
      <trkpt lat="61.2107364" lon="14.5326641">
        <ele>464.454</ele>
        <time>2014-12-21T10:53:16Z</time>
      </trkpt>
      <trkpt lat="61.2106996" lon="14.5324463">
        <ele>464.454</ele>
        <time>2014-12-21T10:53:18Z</time>
      </trkpt>
      <trkpt lat="61.2106845" lon="14.5319669">
        <ele>462.531</ele>
        <time>2014-12-21T10:53:23Z</time>
      </trkpt>
      <trkpt lat="61.2106362" lon="14.5317148">
        <ele>461.57</ele>
        <time>2014-12-21T10:53:27Z</time>
      </trkpt>
      <trkpt lat="61.2105882" lon="14.5314398">
        <ele>461.57</ele>
        <time>2014-12-21T10:53:31Z</time>
      </trkpt>
      <trkpt lat="61.2105831" lon="14.5313464">
        <ele>461.089</ele>
        <time>2014-12-21T10:53:32Z</time>
      </trkpt>
      <trkpt lat="61.2105629" lon="14.5308932">
        <ele>459.167</ele>
        <time>2014-12-21T10:53:37Z</time>
      </trkpt>
      <trkpt lat="61.210556" lon="14.5308068">
        <ele>459.167</ele>
        <time>2014-12-21T10:53:38Z</time>
      </trkpt>
      <trkpt lat="61.2106434" lon="14.5305021">
        <ele>458.206</ele>
        <time>2014-12-21T10:53:42Z</time>
      </trkpt>
      <trkpt lat="61.2108176" lon="14.5302508">
        <ele>459.648</ele>
        <time>2014-12-21T10:53:48Z</time>
      </trkpt>
      <trkpt lat="61.2109258" lon="14.5303596">
        <ele>460.609</ele>
        <time>2014-12-21T10:53:52Z</time>
      </trkpt>
      <trkpt lat="61.210998" lon="14.5306004">
        <ele>460.128</ele>
        <time>2014-12-21T10:53:55Z</time>
      </trkpt>
      <trkpt lat="61.2109942" lon="14.530707">
        <ele>460.128</ele>
        <time>2014-12-21T10:53:56Z</time>
      </trkpt>
      <trkpt lat="61.2109846" lon="14.5312899">
        <ele>460.609</ele>
        <time>2014-12-21T10:54:01Z</time>
      </trkpt>
      <trkpt lat="61.2110423" lon="14.5319321">
        <ele>461.57</ele>
        <time>2014-12-21T10:54:07Z</time>
      </trkpt>
      <trkpt lat="61.2111051" lon="14.5322963">
        <ele>461.57</ele>
        <time>2014-12-21T10:54:10Z</time>
      </trkpt>
      <trkpt lat="61.211143" lon="14.5325442">
        <ele>461.57</ele>
        <time>2014-12-21T10:54:12Z</time>
      </trkpt>
      <trkpt lat="61.2111912" lon="14.5330009">
        <ele>461.57</ele>
        <time>2014-12-21T10:54:16Z</time>
      </trkpt>
      <trkpt lat="61.2111993" lon="14.5334069">
        <ele>461.57</ele>
        <time>2014-12-21T10:54:20Z</time>
      </trkpt>
      <trkpt lat="61.2111319" lon="14.5336251">
        <ele>462.051</ele>
        <time>2014-12-21T10:54:23Z</time>
      </trkpt>
      <trkpt lat="61.2109853" lon="14.5336941">
        <ele>462.051</ele>
        <time>2014-12-21T10:54:27Z</time>
      </trkpt>
      <trkpt lat="61.2109006" lon="14.5335685">
        <ele>461.57</ele>
        <time>2014-12-21T10:54:30Z</time>
      </trkpt>
      <trkpt lat="61.2108799" lon="14.5335025">
        <ele>461.57</ele>
        <time>2014-12-21T10:54:31Z</time>
      </trkpt>
      <trkpt lat="61.2108041" lon="14.5331104">
        <ele>460.609</ele>
        <time>2014-12-21T10:54:36Z</time>
      </trkpt>
      <trkpt lat="61.2107598" lon="14.5327661">
        <ele>460.609</ele>
        <time>2014-12-21T10:54:40Z</time>
      </trkpt>
      <trkpt lat="61.2107279" lon="14.5325264">
        <ele>460.128</ele>
        <time>2014-12-21T10:54:43Z</time>
      </trkpt>
      <trkpt lat="61.2107128" lon="14.532359">
        <ele>460.128</ele>
        <time>2014-12-21T10:54:45Z</time>
      </trkpt>
      <trkpt lat="61.2106918" lon="14.5319759">
        <ele>460.609</ele>
        <time>2014-12-21T10:54:50Z</time>
      </trkpt>
      <trkpt lat="61.2106778" lon="14.5317384">
        <ele>462.051</ele>
        <time>2014-12-21T10:54:54Z</time>
      </trkpt>
      <trkpt lat="61.2106624" lon="14.5314599">
        <ele>463.012</ele>
        <time>2014-12-21T10:54:58Z</time>
      </trkpt>
      <trkpt lat="61.2106416" lon="14.5311489">
        <ele>463.973</ele>
        <time>2014-12-21T10:55:02Z</time>
      </trkpt>
      <trkpt lat="61.2106011" lon="14.5308621">
        <ele>464.935</ele>
        <time>2014-12-21T10:55:06Z</time>
      </trkpt>
      <trkpt lat="61.2105514" lon="14.5306135">
        <ele>465.896</ele>
        <time>2014-12-21T10:55:10Z</time>
      </trkpt>
      <trkpt lat="61.2104831" lon="14.5304072">
        <ele>465.896</ele>
        <time>2014-12-21T10:55:14Z</time>
      </trkpt>
      <trkpt lat="61.210453" lon="14.5302845">
        <ele>465.416</ele>
        <time>2014-12-21T10:55:16Z</time>
      </trkpt>
      <trkpt lat="61.2104911" lon="14.5300494">
        <ele>464.454</ele>
        <time>2014-12-21T10:55:20Z</time>
      </trkpt>
      <trkpt lat="61.2105982" lon="14.5298717">
        <ele>463.973</ele>
        <time>2014-12-21T10:55:25Z</time>
      </trkpt>
      <trkpt lat="61.2106878" lon="14.5297484">
        <ele>464.454</ele>
        <time>2014-12-21T10:55:29Z</time>
      </trkpt>
      <trkpt lat="61.2108223" lon="14.5295992">
        <ele>465.416</ele>
        <time>2014-12-21T10:55:35Z</time>
      </trkpt>
      <trkpt lat="61.2109342" lon="14.5294731">
        <ele>465.416</ele>
        <time>2014-12-21T10:55:40Z</time>
      </trkpt>
      <trkpt lat="61.2110568" lon="14.5293318">
        <ele>465.416</ele>
        <time>2014-12-21T10:55:45Z</time>
      </trkpt>
      <trkpt lat="61.2111956" lon="14.5291599">
        <ele>464.935</ele>
        <time>2014-12-21T10:55:50Z</time>
      </trkpt>
      <trkpt lat="61.211346" lon="14.5290112">
        <ele>465.416</ele>
        <time>2014-12-21T10:55:54Z</time>
      </trkpt>
      <trkpt lat="61.2115676" lon="14.528747">
        <ele>465.416</ele>
        <time>2014-12-21T10:55:59Z</time>
      </trkpt>
      <trkpt lat="61.2116082" lon="14.5287013">
        <ele>465.416</ele>
        <time>2014-12-21T10:56:00Z</time>
      </trkpt>
      <trkpt lat="61.2118409" lon="14.5284052">
        <ele>464.935</ele>
        <time>2014-12-21T10:56:05Z</time>
      </trkpt>
      <trkpt lat="61.2119799" lon="14.5282596">
        <ele>465.416</ele>
        <time>2014-12-21T10:56:08Z</time>
      </trkpt>
      <trkpt lat="61.2121081" lon="14.5281634">
        <ele>466.857</ele>
        <time>2014-12-21T10:56:12Z</time>
      </trkpt>
      <trkpt lat="61.212293" lon="14.5280269">
        <ele>468.299</ele>
        <time>2014-12-21T10:56:19Z</time>
      </trkpt>
      <trkpt lat="61.2124625" lon="14.5278486">
        <ele>468.78</ele>
        <time>2014-12-21T10:56:25Z</time>
      </trkpt>
      <trkpt lat="61.2126555" lon="14.5276405">
        <ele>469.741</ele>
        <time>2014-12-21T10:56:31Z</time>
      </trkpt>
      <trkpt lat="61.2128007" lon="14.5274661">
        <ele>470.222</ele>
        <time>2014-12-21T10:56:35Z</time>
      </trkpt>
      <trkpt lat="61.2129559" lon="14.5273045">
        <ele>470.703</ele>
        <time>2014-12-21T10:56:39Z</time>
      </trkpt>
      <trkpt lat="61.2131777" lon="14.5270463">
        <ele>469.261</ele>
        <time>2014-12-21T10:56:44Z</time>
      </trkpt>
      <trkpt lat="61.2133507" lon="14.5268739">
        <ele>468.299</ele>
        <time>2014-12-21T10:56:47Z</time>
      </trkpt>
      <trkpt lat="61.2135619" lon="14.5266734">
        <ele>466.377</ele>
        <time>2014-12-21T10:56:51Z</time>
      </trkpt>
      <trkpt lat="61.2136396" lon="14.5265881">
        <ele>466.377</ele>
        <time>2014-12-21T10:56:53Z</time>
      </trkpt>
      <trkpt lat="61.2137579" lon="14.5264927">
        <ele>465.896</ele>
        <time>2014-12-21T10:56:57Z</time>
      </trkpt>
      <trkpt lat="61.2138997" lon="14.5263776">
        <ele>465.896</ele>
        <time>2014-12-21T10:57:03Z</time>
      </trkpt>
      <trkpt lat="61.2140286" lon="14.5262666">
        <ele>465.416</ele>
        <time>2014-12-21T10:57:08Z</time>
      </trkpt>
      <trkpt lat="61.2141761" lon="14.5261327">
        <ele>465.416</ele>
        <time>2014-12-21T10:57:14Z</time>
      </trkpt>
      <trkpt lat="61.2143153" lon="14.5260146">
        <ele>465.896</ele>
        <time>2014-12-21T10:57:19Z</time>
      </trkpt>
      <trkpt lat="61.2144355" lon="14.5259037">
        <ele>465.896</ele>
        <time>2014-12-21T10:57:24Z</time>
      </trkpt>
      <trkpt lat="61.2145461" lon="14.5258238">
        <ele>465.896</ele>
        <time>2014-12-21T10:57:28Z</time>
      </trkpt>
      <trkpt lat="61.2146613" lon="14.5257494">
        <ele>466.377</ele>
        <time>2014-12-21T10:57:32Z</time>
      </trkpt>
      <trkpt lat="61.214783" lon="14.5256678">
        <ele>466.857</ele>
        <time>2014-12-21T10:57:36Z</time>
      </trkpt>
      <trkpt lat="61.2149794" lon="14.5255293">
        <ele>466.377</ele>
        <time>2014-12-21T10:57:41Z</time>
      </trkpt>
      <trkpt lat="61.2152208" lon="14.5253509">
        <ele>466.377</ele>
        <time>2014-12-21T10:57:46Z</time>
      </trkpt>
      <trkpt lat="61.2153726" lon="14.5252349">
        <ele>466.857</ele>
        <time>2014-12-21T10:57:49Z</time>
      </trkpt>
      <trkpt lat="61.2156068" lon="14.5249682">
        <ele>467.338</ele>
        <time>2014-12-21T10:57:54Z</time>
      </trkpt>
      <trkpt lat="61.2158201" lon="14.5248243">
        <ele>467.338</ele>
        <time>2014-12-21T10:57:58Z</time>
      </trkpt>
      <trkpt lat="61.2160294" lon="14.5246942">
        <ele>467.338</ele>
        <time>2014-12-21T10:58:03Z</time>
      </trkpt>
      <trkpt lat="61.2161091" lon="14.5246568">
        <ele>468.299</ele>
        <time>2014-12-21T10:58:06Z</time>
      </trkpt>
      <trkpt lat="61.2162742" lon="14.5246107">
        <ele>467.819</ele>
        <time>2014-12-21T10:58:12Z</time>
      </trkpt>
      <trkpt lat="61.216403" lon="14.5245277">
        <ele>468.78</ele>
        <time>2014-12-21T10:58:17Z</time>
      </trkpt>
      <trkpt lat="61.2165149" lon="14.524431">
        <ele>469.741</ele>
        <time>2014-12-21T10:58:22Z</time>
      </trkpt>
      <trkpt lat="61.2166177" lon="14.5243309">
        <ele>471.183</ele>
        <time>2014-12-21T10:58:27Z</time>
      </trkpt>
      <trkpt lat="61.2167549" lon="14.5241736">
        <ele>473.106</ele>
        <time>2014-12-21T10:58:33Z</time>
      </trkpt>
      <trkpt lat="61.2168204" lon="14.5240871">
        <ele>473.587</ele>
        <time>2014-12-21T10:58:36Z</time>
      </trkpt>
      <trkpt lat="61.2169168" lon="14.523943">
        <ele>473.106</ele>
        <time>2014-12-21T10:58:40Z</time>
      </trkpt>
      <trkpt lat="61.2170262" lon="14.5237737">
        <ele>472.145</ele>
        <time>2014-12-21T10:58:44Z</time>
      </trkpt>
      <trkpt lat="61.21715" lon="14.5235575">
        <ele>471.183</ele>
        <time>2014-12-21T10:58:48Z</time>
      </trkpt>
      <trkpt lat="61.2173159" lon="14.5232539">
        <ele>470.222</ele>
        <time>2014-12-21T10:58:54Z</time>
      </trkpt>
      <trkpt lat="61.2173923" lon="14.5231069">
        <ele>469.741</ele>
        <time>2014-12-21T10:58:58Z</time>
      </trkpt>
      <trkpt lat="61.217455" lon="14.5230107">
        <ele>469.741</ele>
        <time>2014-12-21T10:59:01Z</time>
      </trkpt>
      <trkpt lat="61.2175285" lon="14.5228944">
        <ele>469.261</ele>
        <time>2014-12-21T10:59:05Z</time>
      </trkpt>
      <trkpt lat="61.2176264" lon="14.522737">
        <ele>469.741</ele>
        <time>2014-12-21T10:59:10Z</time>
      </trkpt>
      <trkpt lat="61.217726" lon="14.5225523">
        <ele>470.222</ele>
        <time>2014-12-21T10:59:15Z</time>
      </trkpt>
      <trkpt lat="61.2178692" lon="14.5222896">
        <ele>471.183</ele>
        <time>2014-12-21T10:59:20Z</time>
      </trkpt>
      <trkpt lat="61.2180221" lon="14.5219936">
        <ele>470.222</ele>
        <time>2014-12-21T10:59:24Z</time>
      </trkpt>
      <trkpt lat="61.2184312" lon="14.5212461">
        <ele>465.896</ele>
        <time>2014-12-21T10:59:32Z</time>
      </trkpt>
      <trkpt lat="61.2187456" lon="14.5206848">
        <ele>464.935</ele>
        <time>2014-12-21T10:59:38Z</time>
      </trkpt>
      <trkpt lat="61.218965" lon="14.5202595">
        <ele>465.896</ele>
        <time>2014-12-21T10:59:44Z</time>
      </trkpt>
      <trkpt lat="61.2189948" lon="14.5202071">
        <ele>466.377</ele>
        <time>2014-12-21T10:59:45Z</time>
      </trkpt>
      <trkpt lat="61.2190728" lon="14.5200795">
        <ele>467.338</ele>
        <time>2014-12-21T10:59:48Z</time>
      </trkpt>
      <trkpt lat="61.2191665" lon="14.5198755">
        <ele>468.78</ele>
        <time>2014-12-21T10:59:53Z</time>
      </trkpt>
      <trkpt lat="61.2192072" lon="14.5197162">
        <ele>469.741</ele>
        <time>2014-12-21T10:59:56Z</time>
      </trkpt>
      <trkpt lat="61.2192447" lon="14.5195722">
        <ele>470.222</ele>
        <time>2014-12-21T10:59:59Z</time>
      </trkpt>
      <trkpt lat="61.2193531" lon="14.5192882">
        <ele>471.664</ele>
        <time>2014-12-21T11:00:05Z</time>
      </trkpt>
      <trkpt lat="61.2194185" lon="14.5191054">
        <ele>471.664</ele>
        <time>2014-12-21T11:00:09Z</time>
      </trkpt>
      <trkpt lat="61.2195135" lon="14.5188407">
        <ele>471.664</ele>
        <time>2014-12-21T11:00:14Z</time>
      </trkpt>
      <trkpt lat="61.219598" lon="14.5185939">
        <ele>471.664</ele>
        <time>2014-12-21T11:00:18Z</time>
      </trkpt>
      <trkpt lat="61.2196974" lon="14.5182919">
        <ele>470.703</ele>
        <time>2014-12-21T11:00:23Z</time>
      </trkpt>
      <trkpt lat="61.2197948" lon="14.5179231">
        <ele>470.222</ele>
        <time>2014-12-21T11:00:28Z</time>
      </trkpt>
      <trkpt lat="61.2198884" lon="14.5176022">
        <ele>470.222</ele>
        <time>2014-12-21T11:00:32Z</time>
      </trkpt>
      <trkpt lat="61.2200144" lon="14.5172196">
        <ele>469.741</ele>
        <time>2014-12-21T11:00:37Z</time>
      </trkpt>
      <trkpt lat="61.2200383" lon="14.5171487">
        <ele>469.261</ele>
        <time>2014-12-21T11:00:38Z</time>
      </trkpt>
      <trkpt lat="61.2200813" lon="14.5170084">
        <ele>469.261</ele>
        <time>2014-12-21T11:00:40Z</time>
      </trkpt>
      <trkpt lat="61.2202045" lon="14.5166601">
        <ele>469.261</ele>
        <time>2014-12-21T11:00:45Z</time>
      </trkpt>
      <trkpt lat="61.2203307" lon="14.5163666">
        <ele>469.261</ele>
        <time>2014-12-21T11:00:50Z</time>
      </trkpt>
      <trkpt lat="61.2203801" lon="14.5162428">
        <ele>469.741</ele>
        <time>2014-12-21T11:00:52Z</time>
      </trkpt>
      <trkpt lat="61.2204345" lon="14.5161217">
        <ele>470.222</ele>
        <time>2014-12-21T11:00:54Z</time>
      </trkpt>
      <trkpt lat="61.22056" lon="14.5159319">
        <ele>468.78</ele>
        <time>2014-12-21T11:00:58Z</time>
      </trkpt>
      <trkpt lat="61.2206993" lon="14.515726">
        <ele>468.299</ele>
        <time>2014-12-21T11:01:02Z</time>
      </trkpt>
      <trkpt lat="61.2207816" lon="14.5156337">
        <ele>468.78</ele>
        <time>2014-12-21T11:01:04Z</time>
      </trkpt>
      <trkpt lat="61.2209143" lon="14.5155415">
        <ele>468.299</ele>
        <time>2014-12-21T11:01:07Z</time>
      </trkpt>
      <trkpt lat="61.2210028" lon="14.5155022">
        <ele>467.338</ele>
        <time>2014-12-21T11:01:09Z</time>
      </trkpt>
      <trkpt lat="61.221215" lon="14.5153933">
        <ele>467.338</ele>
        <time>2014-12-21T11:01:14Z</time>
      </trkpt>
      <trkpt lat="61.2214451" lon="14.5152877">
        <ele>467.819</ele>
        <time>2014-12-21T11:01:19Z</time>
      </trkpt>
      <trkpt lat="61.2215382" lon="14.5152503">
        <ele>468.78</ele>
        <time>2014-12-21T11:01:21Z</time>
      </trkpt>
      <trkpt lat="61.2218224" lon="14.5152035">
        <ele>470.703</ele>
        <time>2014-12-21T11:01:27Z</time>
      </trkpt>
      <trkpt lat="61.2219646" lon="14.5151958">
        <ele>470.222</ele>
        <time>2014-12-21T11:01:30Z</time>
      </trkpt>
      <trkpt lat="61.2222524" lon="14.5150774">
        <ele>469.741</ele>
        <time>2014-12-21T11:01:35Z</time>
      </trkpt>
      <trkpt lat="61.222431" lon="14.5149887">
        <ele>468.78</ele>
        <time>2014-12-21T11:01:38Z</time>
      </trkpt>
      <trkpt lat="61.2225287" lon="14.5149343">
        <ele>468.78</ele>
        <time>2014-12-21T11:01:40Z</time>
      </trkpt>
      <trkpt lat="61.2226724" lon="14.5147944">
        <ele>468.299</ele>
        <time>2014-12-21T11:01:44Z</time>
      </trkpt>
      <trkpt lat="61.2228196" lon="14.5146007">
        <ele>468.78</ele>
        <time>2014-12-21T11:01:49Z</time>
      </trkpt>
      <trkpt lat="61.222879" lon="14.5145588">
        <ele>468.78</ele>
        <time>2014-12-21T11:01:51Z</time>
      </trkpt>
      <trkpt lat="61.2230292" lon="14.5143993">
        <ele>469.261</ele>
        <time>2014-12-21T11:01:56Z</time>
      </trkpt>
      <trkpt lat="61.2231855" lon="14.514202">
        <ele>469.261</ele>
        <time>2014-12-21T11:02:01Z</time>
      </trkpt>
      <trkpt lat="61.223355" lon="14.5140019">
        <ele>468.299</ele>
        <time>2014-12-21T11:02:06Z</time>
      </trkpt>
      <trkpt lat="61.223486" lon="14.5138508">
        <ele>467.338</ele>
        <time>2014-12-21T11:02:10Z</time>
      </trkpt>
      <trkpt lat="61.2236465" lon="14.5136589">
        <ele>466.377</ele>
        <time>2014-12-21T11:02:15Z</time>
      </trkpt>
      <trkpt lat="61.2238073" lon="14.5134586">
        <ele>466.377</ele>
        <time>2014-12-21T11:02:20Z</time>
      </trkpt>
      <trkpt lat="61.2239612" lon="14.5132698">
        <ele>466.377</ele>
        <time>2014-12-21T11:02:25Z</time>
      </trkpt>
      <trkpt lat="61.2240987" lon="14.513113">
        <ele>466.377</ele>
        <time>2014-12-21T11:02:29Z</time>
      </trkpt>
      <trkpt lat="61.2242431" lon="14.5129266">
        <ele>465.896</ele>
        <time>2014-12-21T11:02:33Z</time>
      </trkpt>
      <trkpt lat="61.2244175" lon="14.5126949">
        <ele>464.935</ele>
        <time>2014-12-21T11:02:38Z</time>
      </trkpt>
      <trkpt lat="61.2244816" lon="14.5126085">
        <ele>464.935</ele>
        <time>2014-12-21T11:02:40Z</time>
      </trkpt>
      <trkpt lat="61.2246393" lon="14.5124027">
        <ele>465.416</ele>
        <time>2014-12-21T11:02:45Z</time>
      </trkpt>
      <trkpt lat="61.2246714" lon="14.5123633">
        <ele>464.935</ele>
        <time>2014-12-21T11:02:46Z</time>
      </trkpt>
      <trkpt lat="61.22486" lon="14.5121024">
        <ele>465.416</ele>
        <time>2014-12-21T11:02:52Z</time>
      </trkpt>
      <trkpt lat="61.2249732" lon="14.5119209">
        <ele>465.416</ele>
        <time>2014-12-21T11:02:56Z</time>
      </trkpt>
      <trkpt lat="61.2251452" lon="14.5116964">
        <ele>465.416</ele>
        <time>2014-12-21T11:03:01Z</time>
      </trkpt>
      <trkpt lat="61.2253245" lon="14.5114212">
        <ele>464.935</ele>
        <time>2014-12-21T11:03:06Z</time>
      </trkpt>
      <trkpt lat="61.2253862" lon="14.5113129">
        <ele>463.973</ele>
        <time>2014-12-21T11:03:08Z</time>
      </trkpt>
      <trkpt lat="61.2254922" lon="14.5110679">
        <ele>463.012</ele>
        <time>2014-12-21T11:03:12Z</time>
      </trkpt>
      <trkpt lat="61.2256146" lon="14.5107011">
        <ele>463.493</ele>
        <time>2014-12-21T11:03:17Z</time>
      </trkpt>
      <trkpt lat="61.2256925" lon="14.5104732">
        <ele>463.973</ele>
        <time>2014-12-21T11:03:20Z</time>
      </trkpt>
      <trkpt lat="61.2257621" lon="14.5102187">
        <ele>463.973</ele>
        <time>2014-12-21T11:03:23Z</time>
      </trkpt>
      <trkpt lat="61.2258106" lon="14.5100691">
        <ele>463.973</ele>
        <time>2014-12-21T11:03:25Z</time>
      </trkpt>
      <trkpt lat="61.225882" lon="14.509792">
        <ele>463.493</ele>
        <time>2014-12-21T11:03:29Z</time>
      </trkpt>
      <trkpt lat="61.2259586" lon="14.5095976">
        <ele>463.973</ele>
        <time>2014-12-21T11:03:32Z</time>
      </trkpt>
      <trkpt lat="61.2260892" lon="14.5092718">
        <ele>462.531</ele>
        <time>2014-12-21T11:03:37Z</time>
      </trkpt>
      <trkpt lat="61.2261787" lon="14.5089995">
        <ele>463.973</ele>
        <time>2014-12-21T11:03:41Z</time>
      </trkpt>
      <trkpt lat="61.2263312" lon="14.5085856">
        <ele>464.935</ele>
        <time>2014-12-21T11:03:47Z</time>
      </trkpt>
      <trkpt lat="61.2264329" lon="14.5083044">
        <ele>464.935</ele>
        <time>2014-12-21T11:03:51Z</time>
      </trkpt>
      <trkpt lat="61.2264788" lon="14.5081984">
        <ele>464.454</ele>
        <time>2014-12-21T11:03:53Z</time>
      </trkpt>
      <trkpt lat="61.2265743" lon="14.5079372">
        <ele>464.454</ele>
        <time>2014-12-21T11:03:58Z</time>
      </trkpt>
      <trkpt lat="61.2266631" lon="14.5076759">
        <ele>463.493</ele>
        <time>2014-12-21T11:04:03Z</time>
      </trkpt>
      <trkpt lat="61.2267531" lon="14.5074563">
        <ele>462.531</ele>
        <time>2014-12-21T11:04:07Z</time>
      </trkpt>
      <trkpt lat="61.2268699" lon="14.5071638">
        <ele>461.089</ele>
        <time>2014-12-21T11:04:12Z</time>
      </trkpt>
      <trkpt lat="61.2270001" lon="14.506817">
        <ele>461.089</ele>
        <time>2014-12-21T11:04:17Z</time>
      </trkpt>
      <trkpt lat="61.2271355" lon="14.5065551">
        <ele>460.609</ele>
        <time>2014-12-21T11:04:22Z</time>
      </trkpt>
      <trkpt lat="61.2272838" lon="14.5063284">
        <ele>461.089</ele>
        <time>2014-12-21T11:04:27Z</time>
      </trkpt>
      <trkpt lat="61.2274089" lon="14.5061795">
        <ele>460.609</ele>
        <time>2014-12-21T11:04:31Z</time>
      </trkpt>
      <trkpt lat="61.2275012" lon="14.506113">
        <ele>461.089</ele>
        <time>2014-12-21T11:04:34Z</time>
      </trkpt>
      <trkpt lat="61.227564" lon="14.5060701">
        <ele>461.57</ele>
        <time>2014-12-21T11:04:36Z</time>
      </trkpt>
      <trkpt lat="61.2277086" lon="14.5059728">
        <ele>462.531</ele>
        <time>2014-12-21T11:04:40Z</time>
      </trkpt>
      <trkpt lat="61.2279317" lon="14.5058381">
        <ele>463.012</ele>
        <time>2014-12-21T11:04:46Z</time>
      </trkpt>
      <trkpt lat="61.2281419" lon="14.505722">
        <ele>463.012</ele>
        <time>2014-12-21T11:04:52Z</time>
      </trkpt>
      <trkpt lat="61.2282913" lon="14.5056242">
        <ele>463.493</ele>
        <time>2014-12-21T11:04:56Z</time>
      </trkpt>
      <trkpt lat="61.2284839" lon="14.5055035">
        <ele>463.973</ele>
        <time>2014-12-21T11:05:01Z</time>
      </trkpt>
      <trkpt lat="61.2286334" lon="14.5054257">
        <ele>463.493</ele>
        <time>2014-12-21T11:05:05Z</time>
      </trkpt>
      <trkpt lat="61.228832" lon="14.5053227">
        <ele>461.089</ele>
        <time>2014-12-21T11:05:10Z</time>
      </trkpt>
      <trkpt lat="61.2290013" lon="14.5052421">
        <ele>459.167</ele>
        <time>2014-12-21T11:05:14Z</time>
      </trkpt>
      <trkpt lat="61.2290873" lon="14.5051972">
        <ele>458.686</ele>
        <time>2014-12-21T11:05:16Z</time>
      </trkpt>
      <trkpt lat="61.2292459" lon="14.505148">
        <ele>457.725</ele>
        <time>2014-12-21T11:05:20Z</time>
      </trkpt>
      <trkpt lat="61.2294624" lon="14.5050796">
        <ele>455.802</ele>
        <time>2014-12-21T11:05:26Z</time>
      </trkpt>
      <trkpt lat="61.2296438" lon="14.5050016">
        <ele>456.283</ele>
        <time>2014-12-21T11:05:31Z</time>
      </trkpt>
      <trkpt lat="61.2297881" lon="14.5049155">
        <ele>456.283</ele>
        <time>2014-12-21T11:05:35Z</time>
      </trkpt>
      <trkpt lat="61.2300134" lon="14.5048021">
        <ele>454.841</ele>
        <time>2014-12-21T11:05:40Z</time>
      </trkpt>
      <trkpt lat="61.230147" lon="14.5047071">
        <ele>454.36</ele>
        <time>2014-12-21T11:05:43Z</time>
      </trkpt>
      <trkpt lat="61.2303454" lon="14.5046084">
        <ele>454.841</ele>
        <time>2014-12-21T11:05:47Z</time>
      </trkpt>
      <trkpt lat="61.2304374" lon="14.5045233">
        <ele>454.841</ele>
        <time>2014-12-21T11:05:49Z</time>
      </trkpt>
      <trkpt lat="61.2306884" lon="14.5044037">
        <ele>454.36</ele>
        <time>2014-12-21T11:05:54Z</time>
      </trkpt>
      <trkpt lat="61.2307917" lon="14.5043597">
        <ele>454.36</ele>
        <time>2014-12-21T11:05:56Z</time>
      </trkpt>
      <trkpt lat="61.2310595" lon="14.504218">
        <ele>453.399</ele>
        <time>2014-12-21T11:06:02Z</time>
      </trkpt>
      <trkpt lat="61.2311091" lon="14.5042047">
        <ele>453.88</ele>
        <time>2014-12-21T11:06:03Z</time>
      </trkpt>
      <trkpt lat="61.2314564" lon="14.5040647">
        <ele>451.957</ele>
        <time>2014-12-21T11:06:10Z</time>
      </trkpt>
      <trkpt lat="61.2316838" lon="14.5040556">
        <ele>450.515</ele>
        <time>2014-12-21T11:06:14Z</time>
      </trkpt>
      <trkpt lat="61.2319804" lon="14.5041443">
        <ele>449.073</ele>
        <time>2014-12-21T11:06:19Z</time>
      </trkpt>
      <trkpt lat="61.2322356" lon="14.5042072">
        <ele>448.592</ele>
        <time>2014-12-21T11:06:24Z</time>
      </trkpt>
      <trkpt lat="61.2323375" lon="14.5042833">
        <ele>448.112</ele>
        <time>2014-12-21T11:06:26Z</time>
      </trkpt>
      <trkpt lat="61.2326084" lon="14.5044327">
        <ele>447.15</ele>
        <time>2014-12-21T11:06:31Z</time>
      </trkpt>
      <trkpt lat="61.2328519" lon="14.5045662">
        <ele>448.112</ele>
        <time>2014-12-21T11:06:35Z</time>
      </trkpt>
      <trkpt lat="61.2336413" lon="14.5050622">
        <ele>453.399</ele>
        <time>2014-12-21T11:06:47Z</time>
      </trkpt>
      <trkpt lat="61.233927" lon="14.5052891">
        <ele>451.957</ele>
        <time>2014-12-21T11:06:52Z</time>
      </trkpt>
      <trkpt lat="61.2341484" lon="14.505516">
        <ele>450.996</ele>
        <time>2014-12-21T11:06:57Z</time>
      </trkpt>
      <trkpt lat="61.2342989" lon="14.5056037">
        <ele>449.073</ele>
        <time>2014-12-21T11:07:02Z</time>
      </trkpt>
      <trkpt lat="61.2342768" lon="14.5054686">
        <ele>448.592</ele>
        <time>2014-12-21T11:07:05Z</time>
      </trkpt>
      <trkpt lat="61.2342457" lon="14.505445">
        <ele>448.592</ele>
        <time>2014-12-21T11:07:06Z</time>
      </trkpt>
      <trkpt lat="61.2340601" lon="14.5053776">
        <ele>448.112</ele>
        <time>2014-12-21T11:07:12Z</time>
      </trkpt>
      <trkpt lat="61.2339292" lon="14.5053038">
        <ele>447.631</ele>
        <time>2014-12-21T11:07:16Z</time>
      </trkpt>
      <trkpt lat="61.2338161" lon="14.5052466">
        <ele>448.112</ele>
        <time>2014-12-21T11:07:19Z</time>
      </trkpt>
      <trkpt lat="61.233665" lon="14.5051702">
        <ele>447.631</ele>
        <time>2014-12-21T11:07:23Z</time>
      </trkpt>
      <trkpt lat="61.2334915" lon="14.5050968">
        <ele>447.631</ele>
        <time>2014-12-21T11:07:27Z</time>
      </trkpt>
      <trkpt lat="61.2334542" lon="14.5050807">
        <ele>447.15</ele>
        <time>2014-12-21T11:07:28Z</time>
      </trkpt>
      <trkpt lat="61.2333494" lon="14.5049897">
        <ele>453.399</ele>
        <time>2014-12-21T11:08:41Z</time>
      </trkpt>
      <trkpt lat="61.2333411" lon="14.5049776">
        <ele>453.399</ele>
        <time>2014-12-21T11:08:42Z</time>
      </trkpt>
      <trkpt lat="61.233238" lon="14.5048887">
        <ele>453.399</ele>
        <time>2014-12-21T11:08:46Z</time>
      </trkpt>
      <trkpt lat="61.2330921" lon="14.5048094">
        <ele>452.918</ele>
        <time>2014-12-21T11:08:50Z</time>
      </trkpt>
      <trkpt lat="61.2329502" lon="14.5047927">
        <ele>452.438</ele>
        <time>2014-12-21T11:08:54Z</time>
      </trkpt>
      <trkpt lat="61.2327965" lon="14.5047257">
        <ele>452.438</ele>
        <time>2014-12-21T11:08:58Z</time>
      </trkpt>
      <trkpt lat="61.2326596" lon="14.5046714">
        <ele>452.918</ele>
        <time>2014-12-21T11:09:02Z</time>
      </trkpt>
      <trkpt lat="61.2325535" lon="14.5046117">
        <ele>452.918</ele>
        <time>2014-12-21T11:09:05Z</time>
      </trkpt>
      <trkpt lat="61.2324354" lon="14.5045086">
        <ele>452.918</ele>
        <time>2014-12-21T11:09:09Z</time>
      </trkpt>
      <trkpt lat="61.2323804" lon="14.5044705">
        <ele>453.399</ele>
        <time>2014-12-21T11:09:11Z</time>
      </trkpt>
      <trkpt lat="61.2322893" lon="14.5044167">
        <ele>454.36</ele>
        <time>2014-12-21T11:09:14Z</time>
      </trkpt>
      <trkpt lat="61.2321534" lon="14.5043572">
        <ele>454.841</ele>
        <time>2014-12-21T11:09:18Z</time>
      </trkpt>
      <trkpt lat="61.2320077" lon="14.5042902">
        <ele>454.36</ele>
        <time>2014-12-21T11:09:22Z</time>
      </trkpt>
      <trkpt lat="61.2318385" lon="14.5041995">
        <ele>455.322</ele>
        <time>2014-12-21T11:09:27Z</time>
      </trkpt>
      <trkpt lat="61.2317142" lon="14.50414">
        <ele>455.802</ele>
        <time>2014-12-21T11:09:31Z</time>
      </trkpt>
      <trkpt lat="61.2315551" lon="14.5041157">
        <ele>456.764</ele>
        <time>2014-12-21T11:09:36Z</time>
      </trkpt>
      <trkpt lat="61.2314356" lon="14.5040877">
        <ele>457.244</ele>
        <time>2014-12-21T11:09:40Z</time>
      </trkpt>
      <trkpt lat="61.2312639" lon="14.5041079">
        <ele>458.686</ele>
        <time>2014-12-21T11:09:45Z</time>
      </trkpt>
      <trkpt lat="61.2311702" lon="14.5041229">
        <ele>458.686</ele>
        <time>2014-12-21T11:09:48Z</time>
      </trkpt>
      <trkpt lat="61.2311128" lon="14.5039531">
        <ele>458.206</ele>
        <time>2014-12-21T11:09:53Z</time>
      </trkpt>
      <trkpt lat="61.2311506" lon="14.5038068">
        <ele>457.725</ele>
        <time>2014-12-21T11:09:56Z</time>
      </trkpt>
      <trkpt lat="61.2312086" lon="14.5035524">
        <ele>457.244</ele>
        <time>2014-12-21T11:10:00Z</time>
      </trkpt>
      <trkpt lat="61.2312748" lon="14.5031745">
        <ele>455.802</ele>
        <time>2014-12-21T11:10:06Z</time>
      </trkpt>
      <trkpt lat="61.2313314" lon="14.5028061">
        <ele>452.918</ele>
        <time>2014-12-21T11:10:11Z</time>
      </trkpt>
      <trkpt lat="61.2313774" lon="14.5024789">
        <ele>452.918</ele>
        <time>2014-12-21T11:10:16Z</time>
      </trkpt>
      <trkpt lat="61.2314055" lon="14.5022731">
        <ele>453.399</ele>
        <time>2014-12-21T11:10:20Z</time>
      </trkpt>
      <trkpt lat="61.2314053" lon="14.502251">
        <ele>453.399</ele>
        <time>2014-12-21T11:10:21Z</time>
      </trkpt>
      <trkpt lat="61.2314063" lon="14.5022384">
        <ele>453.88</ele>
        <time>2014-12-21T11:10:22Z</time>
      </trkpt>
      <trkpt lat="61.231412" lon="14.502218">
        <ele>457.244</ele>
        <time>2014-12-21T11:10:37Z</time>
      </trkpt>
      <trkpt lat="61.2314108" lon="14.5022224">
        <ele>457.244</ele>
        <time>2014-12-21T11:10:38Z</time>
      </trkpt>
      <trkpt lat="61.2314076" lon="14.5022622">
        <ele>457.725</ele>
        <time>2014-12-21T11:10:39Z</time>
      </trkpt>
      <trkpt lat="61.2313869" lon="14.5024746">
        <ele>458.686</ele>
        <time>2014-12-21T11:10:43Z</time>
      </trkpt>
      <trkpt lat="61.231362" lon="14.5028257">
        <ele>459.167</ele>
        <time>2014-12-21T11:10:48Z</time>
      </trkpt>
      <trkpt lat="61.2313153" lon="14.5031158">
        <ele>459.648</ele>
        <time>2014-12-21T11:10:52Z</time>
      </trkpt>
      <trkpt lat="61.2312842" lon="14.5033929">
        <ele>460.609</ele>
        <time>2014-12-21T11:10:56Z</time>
      </trkpt>
      <trkpt lat="61.2312356" lon="14.5036589">
        <ele>460.128</ele>
        <time>2014-12-21T11:11:00Z</time>
      </trkpt>
      <trkpt lat="61.2311685" lon="14.5039587">
        <ele>460.609</ele>
        <time>2014-12-21T11:11:05Z</time>
      </trkpt>
      <trkpt lat="61.2311419" lon="14.5040798">
        <ele>460.609</ele>
        <time>2014-12-21T11:11:07Z</time>
      </trkpt>
      <trkpt lat="61.2309921" lon="14.5042509">
        <ele>460.609</ele>
        <time>2014-12-21T11:11:13Z</time>
      </trkpt>
      <trkpt lat="61.2308559" lon="14.5043235">
        <ele>460.609</ele>
        <time>2014-12-21T11:11:17Z</time>
      </trkpt>
      <trkpt lat="61.230671" lon="14.5044185">
        <ele>460.128</ele>
        <time>2014-12-21T11:11:22Z</time>
      </trkpt>
      <trkpt lat="61.230526" lon="14.5045022">
        <ele>460.609</ele>
        <time>2014-12-21T11:11:26Z</time>
      </trkpt>
      <trkpt lat="61.2304377" lon="14.5045768">
        <ele>460.609</ele>
        <time>2014-12-21T11:11:29Z</time>
      </trkpt>
      <trkpt lat="61.2304218" lon="14.5046252">
        <ele>460.609</ele>
        <time>2014-12-21T11:11:30Z</time>
      </trkpt>
      <trkpt lat="61.2304301" lon="14.5048436">
        <ele>460.128</ele>
        <time>2014-12-21T11:11:34Z</time>
      </trkpt>
      <trkpt lat="61.2305035" lon="14.5051558">
        <ele>459.167</ele>
        <time>2014-12-21T11:11:40Z</time>
      </trkpt>
      <trkpt lat="61.2305708" lon="14.5054511">
        <ele>458.686</ele>
        <time>2014-12-21T11:11:45Z</time>
      </trkpt>
      <trkpt lat="61.2306409" lon="14.5057292">
        <ele>459.167</ele>
        <time>2014-12-21T11:11:49Z</time>
      </trkpt>
      <trkpt lat="61.23073" lon="14.5060676">
        <ele>458.206</ele>
        <time>2014-12-21T11:11:53Z</time>
      </trkpt>
      <trkpt lat="61.2308299" lon="14.5064369">
        <ele>457.725</ele>
        <time>2014-12-21T11:11:57Z</time>
      </trkpt>
      <trkpt lat="61.2309344" lon="14.5069031">
        <ele>455.802</ele>
        <time>2014-12-21T11:12:02Z</time>
      </trkpt>
      <trkpt lat="61.2310004" lon="14.5072434">
        <ele>455.322</ele>
        <time>2014-12-21T11:12:06Z</time>
      </trkpt>
      <trkpt lat="61.2310491" lon="14.5075293">
        <ele>454.36</ele>
        <time>2014-12-21T11:12:09Z</time>
      </trkpt>
      <trkpt lat="61.231082" lon="14.5077102">
        <ele>453.88</ele>
        <time>2014-12-21T11:12:11Z</time>
      </trkpt>
      <trkpt lat="61.2311496" lon="14.5080625">
        <ele>451.476</ele>
        <time>2014-12-21T11:12:15Z</time>
      </trkpt>
      <trkpt lat="61.2312419" lon="14.5084215">
        <ele>450.515</ele>
        <time>2014-12-21T11:12:20Z</time>
      </trkpt>
      <trkpt lat="61.231341" lon="14.5087696">
        <ele>450.515</ele>
        <time>2014-12-21T11:12:25Z</time>
      </trkpt>
      <trkpt lat="61.2314366" lon="14.5091825">
        <ele>451.957</ele>
        <time>2014-12-21T11:12:30Z</time>
      </trkpt>
      <trkpt lat="61.2314816" lon="14.5093729">
        <ele>452.438</ele>
        <time>2014-12-21T11:12:32Z</time>
      </trkpt>
      <trkpt lat="61.2315918" lon="14.5098955">
        <ele>452.918</ele>
        <time>2014-12-21T11:12:37Z</time>
      </trkpt>
      <trkpt lat="61.231678" lon="14.5105084">
        <ele>451.957</ele>
        <time>2014-12-21T11:12:42Z</time>
      </trkpt>
      <trkpt lat="61.231697" lon="14.5106517">
        <ele>451.957</ele>
        <time>2014-12-21T11:12:43Z</time>
      </trkpt>
      <trkpt lat="61.2317255" lon="14.5114683">
        <ele>452.438</ele>
        <time>2014-12-21T11:12:49Z</time>
      </trkpt>
      <trkpt lat="61.2317049" lon="14.5121271">
        <ele>452.918</ele>
        <time>2014-12-21T11:12:54Z</time>
      </trkpt>
      <trkpt lat="61.2317635" lon="14.5128265">
        <ele>450.515</ele>
        <time>2014-12-21T11:13:00Z</time>
      </trkpt>
      <trkpt lat="61.2317842" lon="14.5130642">
        <ele>449.554</ele>
        <time>2014-12-21T11:13:02Z</time>
      </trkpt>
      <trkpt lat="61.2318107" lon="14.5135627">
        <ele>448.112</ele>
        <time>2014-12-21T11:13:06Z</time>
      </trkpt>
      <trkpt lat="61.2317971" lon="14.5138051">
        <ele>446.67</ele>
        <time>2014-12-21T11:13:08Z</time>
      </trkpt>
      <trkpt lat="61.2317617" lon="14.5141495">
        <ele>444.266</ele>
        <time>2014-12-21T11:13:11Z</time>
      </trkpt>
      <trkpt lat="61.2317339" lon="14.5144935">
        <ele>441.382</ele>
        <time>2014-12-21T11:13:14Z</time>
      </trkpt>
      <trkpt lat="61.2317218" lon="14.5147095">
        <ele>440.421</ele>
        <time>2014-12-21T11:13:16Z</time>
      </trkpt>
      <trkpt lat="61.2317147" lon="14.5149131">
        <ele>438.979</ele>
        <time>2014-12-21T11:13:18Z</time>
      </trkpt>
      <trkpt lat="61.2317142" lon="14.5151234">
        <ele>438.018</ele>
        <time>2014-12-21T11:13:20Z</time>
      </trkpt>
      <trkpt lat="61.2317344" lon="14.5153633">
        <ele>437.057</ele>
        <time>2014-12-21T11:13:23Z</time>
      </trkpt>
      <trkpt lat="61.2318511" lon="14.5156195">
        <ele>435.615</ele>
        <time>2014-12-21T11:13:27Z</time>
      </trkpt>
      <trkpt lat="61.2320132" lon="14.5162288">
        <ele>435.615</ele>
        <time>2014-12-21T11:13:32Z</time>
      </trkpt>
      <trkpt lat="61.2321949" lon="14.5172239">
        <ele>434.173</ele>
        <time>2014-12-21T11:13:38Z</time>
      </trkpt>
      <trkpt lat="61.2322556" lon="14.5175767">
        <ele>433.692</ele>
        <time>2014-12-21T11:13:40Z</time>
      </trkpt>
      <trkpt lat="61.2324146" lon="14.5180485">
        <ele>432.731</ele>
        <time>2014-12-21T11:13:43Z</time>
      </trkpt>
      <trkpt lat="61.2326968" lon="14.5185154">
        <ele>432.25</ele>
        <time>2014-12-21T11:13:47Z</time>
      </trkpt>
      <trkpt lat="61.2330103" lon="14.518965">
        <ele>431.289</ele>
        <time>2014-12-21T11:13:52Z</time>
      </trkpt>
      <trkpt lat="61.233291" lon="14.5190518">
        <ele>430.327</ele>
        <time>2014-12-21T11:13:56Z</time>
      </trkpt>
      <trkpt lat="61.2333584" lon="14.5190042">
        <ele>431.289</ele>
        <time>2014-12-21T11:13:57Z</time>
      </trkpt>
      <trkpt lat="61.2334776" lon="14.5189017">
        <ele>433.211</ele>
        <time>2014-12-21T11:13:59Z</time>
      </trkpt>
      <trkpt lat="61.233642" lon="14.5188422">
        <ele>434.173</ele>
        <time>2014-12-21T11:14:02Z</time>
      </trkpt>
      <trkpt lat="61.2338162" lon="14.5188666">
        <ele>435.615</ele>
        <time>2014-12-21T11:14:06Z</time>
      </trkpt>
      <trkpt lat="61.2338871" lon="14.5189059">
        <ele>436.576</ele>
        <time>2014-12-21T11:14:08Z</time>
      </trkpt>
      <trkpt lat="61.2339426" lon="14.5189644">
        <ele>437.057</ele>
        <time>2014-12-21T11:14:10Z</time>
      </trkpt>
      <trkpt lat="61.2340994" lon="14.5191986">
        <ele>437.537</ele>
        <time>2014-12-21T11:14:17Z</time>
      </trkpt>
      <trkpt lat="61.2341909" lon="14.5192742">
        <ele>438.018</ele>
        <time>2014-12-21T11:14:21Z</time>
      </trkpt>
      <trkpt lat="61.2343171" lon="14.5192302">
        <ele>438.018</ele>
        <time>2014-12-21T11:14:26Z</time>
      </trkpt>
      <trkpt lat="61.2344333" lon="14.5189717">
        <ele>438.499</ele>
        <time>2014-12-21T11:14:32Z</time>
      </trkpt>
      <trkpt lat="61.2345358" lon="14.5186536">
        <ele>438.499</ele>
        <time>2014-12-21T11:14:37Z</time>
      </trkpt>
      <trkpt lat="61.2346822" lon="14.518276">
        <ele>437.537</ele>
        <time>2014-12-21T11:14:43Z</time>
      </trkpt>
      <trkpt lat="61.2347989" lon="14.5179099">
        <ele>438.499</ele>
        <time>2014-12-21T11:14:48Z</time>
      </trkpt>
      <trkpt lat="61.2349352" lon="14.517572">
        <ele>439.46</ele>
        <time>2014-12-21T11:14:54Z</time>
      </trkpt>
      <trkpt lat="61.2350595" lon="14.5172939">
        <ele>440.421</ele>
        <time>2014-12-21T11:14:59Z</time>
      </trkpt>
      <trkpt lat="61.2352035" lon="14.5169513">
        <ele>440.902</ele>
        <time>2014-12-21T11:15:05Z</time>
      </trkpt>
      <trkpt lat="61.2352796" lon="14.5167565">
        <ele>441.863</ele>
        <time>2014-12-21T11:15:09Z</time>
      </trkpt>
      <trkpt lat="61.2353455" lon="14.5165733">
        <ele>441.863</ele>
        <time>2014-12-21T11:15:13Z</time>
      </trkpt>
      <trkpt lat="61.2354188" lon="14.5163853">
        <ele>441.863</ele>
        <time>2014-12-21T11:15:17Z</time>
      </trkpt>
      <trkpt lat="61.2355008" lon="14.5161744">
        <ele>441.863</ele>
        <time>2014-12-21T11:15:21Z</time>
      </trkpt>
      <trkpt lat="61.2356008" lon="14.5159468">
        <ele>440.902</ele>
        <time>2014-12-21T11:15:25Z</time>
      </trkpt>
      <trkpt lat="61.2357179" lon="14.5156394">
        <ele>439.46</ele>
        <time>2014-12-21T11:15:30Z</time>
      </trkpt>
      <trkpt lat="61.235811" lon="14.5153727">
        <ele>438.499</ele>
        <time>2014-12-21T11:15:34Z</time>
      </trkpt>
      <trkpt lat="61.2359178" lon="14.5150669">
        <ele>436.095</ele>
        <time>2014-12-21T11:15:39Z</time>
      </trkpt>
      <trkpt lat="61.2359918" lon="14.5148214">
        <ele>435.615</ele>
        <time>2014-12-21T11:15:43Z</time>
      </trkpt>
      <trkpt lat="61.2361241" lon="14.5144328">
        <ele>436.095</ele>
        <time>2014-12-21T11:15:49Z</time>
      </trkpt>
      <trkpt lat="61.2362141" lon="14.5141744">
        <ele>436.095</ele>
        <time>2014-12-21T11:15:53Z</time>
      </trkpt>
      <trkpt lat="61.2363043" lon="14.5139283">
        <ele>436.095</ele>
        <time>2014-12-21T11:15:57Z</time>
      </trkpt>
      <trkpt lat="61.2363887" lon="14.5136859">
        <ele>436.095</ele>
        <time>2014-12-21T11:16:01Z</time>
      </trkpt>
      <trkpt lat="61.2365074" lon="14.5133874">
        <ele>437.057</ele>
        <time>2014-12-21T11:16:06Z</time>
      </trkpt>
      <trkpt lat="61.2366225" lon="14.5131126">
        <ele>438.018</ele>
        <time>2014-12-21T11:16:10Z</time>
      </trkpt>
      <trkpt lat="61.2367077" lon="14.5128799">
        <ele>438.499</ele>
        <time>2014-12-21T11:16:14Z</time>
      </trkpt>
      <trkpt lat="61.2368014" lon="14.5126093">
        <ele>438.018</ele>
        <time>2014-12-21T11:16:19Z</time>
      </trkpt>
      <trkpt lat="61.2369211" lon="14.512296">
        <ele>437.057</ele>
        <time>2014-12-21T11:16:24Z</time>
      </trkpt>
      <trkpt lat="61.2370756" lon="14.5118815">
        <ele>437.057</ele>
        <time>2014-12-21T11:16:30Z</time>
      </trkpt>
      <trkpt lat="61.2371575" lon="14.511624">
        <ele>436.576</ele>
        <time>2014-12-21T11:16:34Z</time>
      </trkpt>
      <trkpt lat="61.2372485" lon="14.5114097">
        <ele>436.576</ele>
        <time>2014-12-21T11:16:38Z</time>
      </trkpt>
      <trkpt lat="61.2373435" lon="14.5111871">
        <ele>436.095</ele>
        <time>2014-12-21T11:16:42Z</time>
      </trkpt>
      <trkpt lat="61.2373662" lon="14.5111343">
        <ele>436.095</ele>
        <time>2014-12-21T11:16:43Z</time>
      </trkpt>
      <trkpt lat="61.2374793" lon="14.5108363">
        <ele>437.537</ele>
        <time>2014-12-21T11:16:48Z</time>
      </trkpt>
      <trkpt lat="61.2375578" lon="14.5106213">
        <ele>437.537</ele>
        <time>2014-12-21T11:16:52Z</time>
      </trkpt>
      <trkpt lat="61.2376452" lon="14.5104032">
        <ele>438.979</ele>
        <time>2014-12-21T11:16:56Z</time>
      </trkpt>
      <trkpt lat="61.2377371" lon="14.5101747">
        <ele>439.94</ele>
        <time>2014-12-21T11:17:00Z</time>
      </trkpt>
      <trkpt lat="61.2378071" lon="14.5099977">
        <ele>441.382</ele>
        <time>2014-12-21T11:17:03Z</time>
      </trkpt>
      <trkpt lat="61.2378862" lon="14.5097915">
        <ele>440.902</ele>
        <time>2014-12-21T11:17:07Z</time>
      </trkpt>
      <trkpt lat="61.2379781" lon="14.5095346">
        <ele>441.863</ele>
        <time>2014-12-21T11:17:12Z</time>
      </trkpt>
      <trkpt lat="61.2380784" lon="14.5092743">
        <ele>442.344</ele>
        <time>2014-12-21T11:17:17Z</time>
      </trkpt>
      <trkpt lat="61.2381519" lon="14.5090916">
        <ele>442.824</ele>
        <time>2014-12-21T11:17:21Z</time>
      </trkpt>
      <trkpt lat="61.238222" lon="14.5089073">
        <ele>442.344</ele>
        <time>2014-12-21T11:17:25Z</time>
      </trkpt>
      <trkpt lat="61.2383176" lon="14.5086533">
        <ele>442.344</ele>
        <time>2014-12-21T11:17:30Z</time>
      </trkpt>
      <trkpt lat="61.2384229" lon="14.5084007">
        <ele>441.863</ele>
        <time>2014-12-21T11:17:35Z</time>
      </trkpt>
      <trkpt lat="61.2384893" lon="14.5082379">
        <ele>441.382</ele>
        <time>2014-12-21T11:17:38Z</time>
      </trkpt>
      <trkpt lat="61.2385779" lon="14.5080095">
        <ele>441.863</ele>
        <time>2014-12-21T11:17:42Z</time>
      </trkpt>
      <trkpt lat="61.2386641" lon="14.507788">
        <ele>441.863</ele>
        <time>2014-12-21T11:17:46Z</time>
      </trkpt>
      <trkpt lat="61.238757" lon="14.5075515">
        <ele>441.863</ele>
        <time>2014-12-21T11:17:50Z</time>
      </trkpt>
      <trkpt lat="61.2388436" lon="14.5073502">
        <ele>442.344</ele>
        <time>2014-12-21T11:17:53Z</time>
      </trkpt>
      <trkpt lat="61.238996" lon="14.5069897">
        <ele>441.863</ele>
        <time>2014-12-21T11:17:58Z</time>
      </trkpt>
      <trkpt lat="61.2390595" lon="14.5068575">
        <ele>441.382</ele>
        <time>2014-12-21T11:18:00Z</time>
      </trkpt>
      <trkpt lat="61.2391979" lon="14.5065848">
        <ele>440.421</ele>
        <time>2014-12-21T11:18:04Z</time>
      </trkpt>
      <trkpt lat="61.23923" lon="14.5065248">
        <ele>440.421</ele>
        <time>2014-12-21T11:18:05Z</time>
      </trkpt>
      <trkpt lat="61.2394036" lon="14.5061773">
        <ele>439.46</ele>
        <time>2014-12-21T11:18:11Z</time>
      </trkpt>
      <trkpt lat="61.2395865" lon="14.5059163">
        <ele>439.94</ele>
        <time>2014-12-21T11:18:17Z</time>
      </trkpt>
      <trkpt lat="61.2397175" lon="14.5057205">
        <ele>440.902</ele>
        <time>2014-12-21T11:18:21Z</time>
      </trkpt>
      <trkpt lat="61.2398414" lon="14.5055558">
        <ele>442.824</ele>
        <time>2014-12-21T11:18:25Z</time>
      </trkpt>
      <trkpt lat="61.2400071" lon="14.5053656">
        <ele>444.266</ele>
        <time>2014-12-21T11:18:30Z</time>
      </trkpt>
      <trkpt lat="61.2402084" lon="14.5051864">
        <ele>443.786</ele>
        <time>2014-12-21T11:18:35Z</time>
      </trkpt>
      <trkpt lat="61.2403473" lon="14.5050547">
        <ele>443.786</ele>
        <time>2014-12-21T11:18:38Z</time>
      </trkpt>
      <trkpt lat="61.2405623" lon="14.504861">
        <ele>443.305</ele>
        <time>2014-12-21T11:18:43Z</time>
      </trkpt>
      <trkpt lat="61.2406908" lon="14.5047725">
        <ele>443.305</ele>
        <time>2014-12-21T11:18:46Z</time>
      </trkpt>
      <trkpt lat="61.2408311" lon="14.504699">
        <ele>442.344</ele>
        <time>2014-12-21T11:18:50Z</time>
      </trkpt>
      <trkpt lat="61.2409973" lon="14.5046081">
        <ele>443.305</ele>
        <time>2014-12-21T11:18:54Z</time>
      </trkpt>
      <trkpt lat="61.2411902" lon="14.5045643">
        <ele>443.305</ele>
        <time>2014-12-21T11:18:59Z</time>
      </trkpt>
      <trkpt lat="61.2412302" lon="14.5045584">
        <ele>443.786</ele>
        <time>2014-12-21T11:19:00Z</time>
      </trkpt>
      <trkpt lat="61.2414151" lon="14.5045504">
        <ele>445.228</ele>
        <time>2014-12-21T11:19:05Z</time>
      </trkpt>
      <trkpt lat="61.241563" lon="14.5045538">
        <ele>445.228</ele>
        <time>2014-12-21T11:19:09Z</time>
      </trkpt>
      <trkpt lat="61.2417055" lon="14.5045519">
        <ele>444.747</ele>
        <time>2014-12-21T11:19:13Z</time>
      </trkpt>
      <trkpt lat="61.2418946" lon="14.50457">
        <ele>444.747</ele>
        <time>2014-12-21T11:19:18Z</time>
      </trkpt>
      <trkpt lat="61.2420536" lon="14.5045752">
        <ele>444.747</ele>
        <time>2014-12-21T11:19:22Z</time>
      </trkpt>
      <trkpt lat="61.242218" lon="14.5045525">
        <ele>444.747</ele>
        <time>2014-12-21T11:19:26Z</time>
      </trkpt>
      <trkpt lat="61.2424308" lon="14.5045544">
        <ele>444.747</ele>
        <time>2014-12-21T11:19:31Z</time>
      </trkpt>
      <trkpt lat="61.2425187" lon="14.5045468">
        <ele>444.747</ele>
        <time>2014-12-21T11:19:33Z</time>
      </trkpt>
      <trkpt lat="61.2426876" lon="14.5045151">
        <ele>445.228</ele>
        <time>2014-12-21T11:19:37Z</time>
      </trkpt>
      <trkpt lat="61.2427639" lon="14.504504">
        <ele>445.708</ele>
        <time>2014-12-21T11:19:39Z</time>
      </trkpt>
      <trkpt lat="61.2428399" lon="14.5045029">
        <ele>445.708</ele>
        <time>2014-12-21T11:19:41Z</time>
      </trkpt>
      <trkpt lat="61.2430162" lon="14.5044732">
        <ele>446.67</ele>
        <time>2014-12-21T11:19:46Z</time>
      </trkpt>
      <trkpt lat="61.2431672" lon="14.5044694">
        <ele>446.67</ele>
        <time>2014-12-21T11:19:50Z</time>
      </trkpt>
      <trkpt lat="61.2432995" lon="14.5044326">
        <ele>447.15</ele>
        <time>2014-12-21T11:19:54Z</time>
      </trkpt>
      <trkpt lat="61.2434409" lon="14.5043753">
        <ele>447.15</ele>
        <time>2014-12-21T11:19:58Z</time>
      </trkpt>
      <trkpt lat="61.243626" lon="14.5042214">
        <ele>446.67</ele>
        <time>2014-12-21T11:20:03Z</time>
      </trkpt>
      <trkpt lat="61.2437461" lon="14.5040276">
        <ele>446.67</ele>
        <time>2014-12-21T11:20:07Z</time>
      </trkpt>
      <trkpt lat="61.2438945" lon="14.5037358">
        <ele>445.228</ele>
        <time>2014-12-21T11:20:12Z</time>
      </trkpt>
      <trkpt lat="61.2440392" lon="14.5034636">
        <ele>444.266</ele>
        <time>2014-12-21T11:20:17Z</time>
      </trkpt>
      <trkpt lat="61.2441604" lon="14.5032235">
        <ele>445.228</ele>
        <time>2014-12-21T11:20:22Z</time>
      </trkpt>
      <trkpt lat="61.2442573" lon="14.5030484">
        <ele>445.708</ele>
        <time>2014-12-21T11:20:26Z</time>
      </trkpt>
      <trkpt lat="61.2443649" lon="14.5028393">
        <ele>446.189</ele>
        <time>2014-12-21T11:20:31Z</time>
      </trkpt>
      <trkpt lat="61.2444276" lon="14.5026234">
        <ele>445.708</ele>
        <time>2014-12-21T11:20:35Z</time>
      </trkpt>
      <trkpt lat="61.2445786" lon="14.5022902">
        <ele>445.708</ele>
        <time>2014-12-21T11:20:40Z</time>
      </trkpt>
      <trkpt lat="61.2446137" lon="14.5022136">
        <ele>445.228</ele>
        <time>2014-12-21T11:20:41Z</time>
      </trkpt>
      <trkpt lat="61.2447079" lon="14.5020411">
        <ele>444.747</ele>
        <time>2014-12-21T11:20:44Z</time>
      </trkpt>
      <trkpt lat="61.2448738" lon="14.5017723">
        <ele>444.266</ele>
        <time>2014-12-21T11:20:49Z</time>
      </trkpt>
      <trkpt lat="61.2449332" lon="14.5016427">
        <ele>443.786</ele>
        <time>2014-12-21T11:20:51Z</time>
      </trkpt>
      <trkpt lat="61.2450648" lon="14.5014143">
        <ele>443.305</ele>
        <time>2014-12-21T11:20:55Z</time>
      </trkpt>
      <trkpt lat="61.2451747" lon="14.5012132">
        <ele>442.344</ele>
        <time>2014-12-21T11:20:59Z</time>
      </trkpt>
      <trkpt lat="61.2453431" lon="14.5009085">
        <ele>439.94</ele>
        <time>2014-12-21T11:21:05Z</time>
      </trkpt>
      <trkpt lat="61.2454725" lon="14.5006327">
        <ele>439.46</ele>
        <time>2014-12-21T11:21:10Z</time>
      </trkpt>
      <trkpt lat="61.2455896" lon="14.5003927">
        <ele>439.46</ele>
        <time>2014-12-21T11:21:14Z</time>
      </trkpt>
      <trkpt lat="61.2456979" lon="14.5001353">
        <ele>440.421</ele>
        <time>2014-12-21T11:21:18Z</time>
      </trkpt>
      <trkpt lat="61.2458008" lon="14.4998865">
        <ele>441.863</ele>
        <time>2014-12-21T11:21:22Z</time>
      </trkpt>
      <trkpt lat="61.2458802" lon="14.4996899">
        <ele>442.824</ele>
        <time>2014-12-21T11:21:25Z</time>
      </trkpt>
      <trkpt lat="61.2460668" lon="14.4992892">
        <ele>441.863</ele>
        <time>2014-12-21T11:21:32Z</time>
      </trkpt>
      <trkpt lat="61.2462044" lon="14.4990245">
        <ele>441.863</ele>
        <time>2014-12-21T11:21:37Z</time>
      </trkpt>
      <trkpt lat="61.2463418" lon="14.4987667">
        <ele>441.863</ele>
        <time>2014-12-21T11:21:42Z</time>
      </trkpt>
      <trkpt lat="61.246412" lon="14.4986279">
        <ele>441.863</ele>
        <time>2014-12-21T11:21:45Z</time>
      </trkpt>
      <trkpt lat="61.2465081" lon="14.4984065">
        <ele>441.863</ele>
        <time>2014-12-21T11:21:50Z</time>
      </trkpt>
      <trkpt lat="61.2465759" lon="14.498254">
        <ele>441.863</ele>
        <time>2014-12-21T11:21:54Z</time>
      </trkpt>
      <trkpt lat="61.2466703" lon="14.4980881">
        <ele>442.344</ele>
        <time>2014-12-21T11:21:59Z</time>
      </trkpt>
      <trkpt lat="61.2468007" lon="14.4978522">
        <ele>442.824</ele>
        <time>2014-12-21T11:22:04Z</time>
      </trkpt>
      <trkpt lat="61.2469013" lon="14.4976612">
        <ele>443.305</ele>
        <time>2014-12-21T11:22:08Z</time>
      </trkpt>
      <trkpt lat="61.2469834" lon="14.497509">
        <ele>442.344</ele>
        <time>2014-12-21T11:22:11Z</time>
      </trkpt>
      <trkpt lat="61.2470963" lon="14.4972643">
        <ele>440.421</ele>
        <time>2014-12-21T11:22:16Z</time>
      </trkpt>
      <trkpt lat="61.2472062" lon="14.4970416">
        <ele>439.46</ele>
        <time>2014-12-21T11:22:21Z</time>
      </trkpt>
      <trkpt lat="61.2473167" lon="14.496788">
        <ele>438.499</ele>
        <time>2014-12-21T11:22:26Z</time>
      </trkpt>
      <trkpt lat="61.247476" lon="14.4964564">
        <ele>438.018</ele>
        <time>2014-12-21T11:22:33Z</time>
      </trkpt>
      <trkpt lat="61.2475757" lon="14.4962388">
        <ele>438.018</ele>
        <time>2014-12-21T11:22:37Z</time>
      </trkpt>
      <trkpt lat="61.2477083" lon="14.4959487">
        <ele>437.537</ele>
        <time>2014-12-21T11:22:42Z</time>
      </trkpt>
      <trkpt lat="61.2478413" lon="14.4956545">
        <ele>438.018</ele>
        <time>2014-12-21T11:22:46Z</time>
      </trkpt>
      <trkpt lat="61.2478733" lon="14.4955825">
        <ele>438.499</ele>
        <time>2014-12-21T11:22:47Z</time>
      </trkpt>
      <trkpt lat="61.2480454" lon="14.4952247">
        <ele>438.979</ele>
        <time>2014-12-21T11:22:53Z</time>
      </trkpt>
      <trkpt lat="61.248093" lon="14.495109">
        <ele>438.979</ele>
        <time>2014-12-21T11:22:55Z</time>
      </trkpt>
      <trkpt lat="61.2482306" lon="14.4948128">
        <ele>439.94</ele>
        <time>2014-12-21T11:23:00Z</time>
      </trkpt>
      <trkpt lat="61.2482596" lon="14.4947672">
        <ele>439.94</ele>
        <time>2014-12-21T11:23:01Z</time>
      </trkpt>
      <trkpt lat="61.24841" lon="14.4945048">
        <ele>439.94</ele>
        <time>2014-12-21T11:23:06Z</time>
      </trkpt>
      <trkpt lat="61.2485081" lon="14.4943176">
        <ele>439.46</ele>
        <time>2014-12-21T11:23:10Z</time>
      </trkpt>
      <trkpt lat="61.2486027" lon="14.4941274">
        <ele>439.46</ele>
        <time>2014-12-21T11:23:14Z</time>
      </trkpt>
      <trkpt lat="61.2487158" lon="14.4938901">
        <ele>440.421</ele>
        <time>2014-12-21T11:23:19Z</time>
      </trkpt>
      <trkpt lat="61.2487946" lon="14.4937278">
        <ele>439.94</ele>
        <time>2014-12-21T11:23:22Z</time>
      </trkpt>
      <trkpt lat="61.2488961" lon="14.493374">
        <ele>439.46</ele>
        <time>2014-12-21T11:23:27Z</time>
      </trkpt>
      <trkpt lat="61.248969" lon="14.4930166">
        <ele>437.057</ele>
        <time>2014-12-21T11:23:32Z</time>
      </trkpt>
      <trkpt lat="61.2490167" lon="14.4927571">
        <ele>436.576</ele>
        <time>2014-12-21T11:23:36Z</time>
      </trkpt>
      <trkpt lat="61.2490425" lon="14.4923971">
        <ele>438.018</ele>
        <time>2014-12-21T11:23:41Z</time>
      </trkpt>
      <trkpt lat="61.2489997" lon="14.4920362">
        <ele>438.499</ele>
        <time>2014-12-21T11:23:46Z</time>
      </trkpt>
      <trkpt lat="61.2489637" lon="14.4917012">
        <ele>437.537</ele>
        <time>2014-12-21T11:23:50Z</time>
      </trkpt>
      <trkpt lat="61.248929" lon="14.4913514">
        <ele>439.46</ele>
        <time>2014-12-21T11:23:54Z</time>
      </trkpt>
      <trkpt lat="61.2488961" lon="14.4911148">
        <ele>441.382</ele>
        <time>2014-12-21T11:23:57Z</time>
      </trkpt>
      <trkpt lat="61.2488726" lon="14.4906832">
        <ele>445.228</ele>
        <time>2014-12-21T11:24:02Z</time>
      </trkpt>
      <trkpt lat="61.2488513" lon="14.490434">
        <ele>446.67</ele>
        <time>2014-12-21T11:24:05Z</time>
      </trkpt>
      <trkpt lat="61.2488122" lon="14.4900422">
        <ele>447.631</ele>
        <time>2014-12-21T11:24:10Z</time>
      </trkpt>
      <trkpt lat="61.2488081" lon="14.4898676">
        <ele>447.631</ele>
        <time>2014-12-21T11:24:12Z</time>
      </trkpt>
      <trkpt lat="61.2488292" lon="14.4893753">
        <ele>447.15</ele>
        <time>2014-12-21T11:24:18Z</time>
      </trkpt>
      <trkpt lat="61.2488728" lon="14.4889818">
        <ele>446.189</ele>
        <time>2014-12-21T11:24:23Z</time>
      </trkpt>
      <trkpt lat="61.2489168" lon="14.4887252">
        <ele>445.228</ele>
        <time>2014-12-21T11:24:26Z</time>
      </trkpt>
      <trkpt lat="61.2489656" lon="14.4884698">
        <ele>444.747</ele>
        <time>2014-12-21T11:24:29Z</time>
      </trkpt>
      <trkpt lat="61.2490979" lon="14.4878932">
        <ele>443.786</ele>
        <time>2014-12-21T11:24:36Z</time>
      </trkpt>
      <trkpt lat="61.2491824" lon="14.487585">
        <ele>444.266</ele>
        <time>2014-12-21T11:24:40Z</time>
      </trkpt>
      <trkpt lat="61.2492018" lon="14.4875056">
        <ele>444.266</ele>
        <time>2014-12-21T11:24:41Z</time>
      </trkpt>
      <trkpt lat="61.2492899" lon="14.4870731">
        <ele>444.747</ele>
        <time>2014-12-21T11:24:47Z</time>
      </trkpt>
      <trkpt lat="61.2493147" lon="14.486946">
        <ele>444.266</ele>
        <time>2014-12-21T11:24:49Z</time>
      </trkpt>
      <trkpt lat="61.249416" lon="14.4863996">
        <ele>443.305</ele>
        <time>2014-12-21T11:24:57Z</time>
      </trkpt>
      <trkpt lat="61.2494512" lon="14.486155">
        <ele>444.266</ele>
        <time>2014-12-21T11:25:01Z</time>
      </trkpt>
      <trkpt lat="61.2495031" lon="14.4859014">
        <ele>444.266</ele>
        <time>2014-12-21T11:25:05Z</time>
      </trkpt>
      <trkpt lat="61.2495845" lon="14.4855695">
        <ele>445.708</ele>
        <time>2014-12-21T11:25:10Z</time>
      </trkpt>
      <trkpt lat="61.2496493" lon="14.4852627">
        <ele>446.189</ele>
        <time>2014-12-21T11:25:15Z</time>
      </trkpt>
      <trkpt lat="61.2496772" lon="14.4849986">
        <ele>446.67</ele>
        <time>2014-12-21T11:25:19Z</time>
      </trkpt>
      <trkpt lat="61.2496825" lon="14.4847199">
        <ele>446.67</ele>
        <time>2014-12-21T11:25:23Z</time>
      </trkpt>
      <trkpt lat="61.249672" lon="14.4842775">
        <ele>447.631</ele>
        <time>2014-12-21T11:25:29Z</time>
      </trkpt>
      <trkpt lat="61.2496805" lon="14.4839994">
        <ele>447.631</ele>
        <time>2014-12-21T11:25:33Z</time>
      </trkpt>
      <trkpt lat="61.2496719" lon="14.4836734">
        <ele>447.631</ele>
        <time>2014-12-21T11:25:38Z</time>
      </trkpt>
      <trkpt lat="61.249657" lon="14.4834133">
        <ele>447.15</ele>
        <time>2014-12-21T11:25:42Z</time>
      </trkpt>
      <trkpt lat="61.2496294" lon="14.4830803">
        <ele>446.67</ele>
        <time>2014-12-21T11:25:47Z</time>
      </trkpt>
      <trkpt lat="61.2496092" lon="14.4827857">
        <ele>448.112</ele>
        <time>2014-12-21T11:25:51Z</time>
      </trkpt>
      <trkpt lat="61.2495947" lon="14.4825214">
        <ele>448.112</ele>
        <time>2014-12-21T11:25:55Z</time>
      </trkpt>
      <trkpt lat="61.2495905" lon="14.4823041">
        <ele>448.112</ele>
        <time>2014-12-21T11:25:59Z</time>
      </trkpt>
      <trkpt lat="61.2495803" lon="14.4820167">
        <ele>448.592</ele>
        <time>2014-12-21T11:26:04Z</time>
      </trkpt>
      <trkpt lat="61.2495703" lon="14.4818304">
        <ele>448.592</ele>
        <time>2014-12-21T11:26:07Z</time>
      </trkpt>
      <trkpt lat="61.2495617" lon="14.4816256">
        <ele>448.592</ele>
        <time>2014-12-21T11:26:10Z</time>
      </trkpt>
      <trkpt lat="61.2495481" lon="14.4813559">
        <ele>449.073</ele>
        <time>2014-12-21T11:26:14Z</time>
      </trkpt>
      <trkpt lat="61.2495316" lon="14.4810558">
        <ele>449.554</ele>
        <time>2014-12-21T11:26:18Z</time>
      </trkpt>
      <trkpt lat="61.2495021" lon="14.4807242">
        <ele>449.554</ele>
        <time>2014-12-21T11:26:22Z</time>
      </trkpt>
      <trkpt lat="61.2494776" lon="14.480287">
        <ele>447.631</ele>
        <time>2014-12-21T11:26:27Z</time>
      </trkpt>
      <trkpt lat="61.2494707" lon="14.4802033">
        <ele>447.15</ele>
        <time>2014-12-21T11:26:28Z</time>
      </trkpt>
      <trkpt lat="61.2494665" lon="14.4798159">
        <ele>445.228</ele>
        <time>2014-12-21T11:26:32Z</time>
      </trkpt>
      <trkpt lat="61.249468" lon="14.4792498">
        <ele>441.863</ele>
        <time>2014-12-21T11:26:38Z</time>
      </trkpt>
      <trkpt lat="61.2494644" lon="14.4790762">
        <ele>440.902</ele>
        <time>2014-12-21T11:26:40Z</time>
      </trkpt>
      <trkpt lat="61.2494685" lon="14.4788689">
        <ele>439.94</ele>
        <time>2014-12-21T11:26:43Z</time>
      </trkpt>
      <trkpt lat="61.2494849" lon="14.4785461">
        <ele>438.979</ele>
        <time>2014-12-21T11:26:48Z</time>
      </trkpt>
      <trkpt lat="61.2494975" lon="14.47817">
        <ele>438.018</ele>
        <time>2014-12-21T11:26:53Z</time>
      </trkpt>
      <trkpt lat="61.2495032" lon="14.4777925">
        <ele>437.537</ele>
        <time>2014-12-21T11:26:57Z</time>
      </trkpt>
      <trkpt lat="61.2495128" lon="14.4775925">
        <ele>436.576</ele>
        <time>2014-12-21T11:26:59Z</time>
      </trkpt>
      <trkpt lat="61.2495154" lon="14.4774128">
        <ele>436.095</ele>
        <time>2014-12-21T11:27:01Z</time>
      </trkpt>
      <trkpt lat="61.2495361" lon="14.4769272">
        <ele>435.134</ele>
        <time>2014-12-21T11:27:06Z</time>
      </trkpt>
      <trkpt lat="61.2495653" lon="14.4763917">
        <ele>434.173</ele>
        <time>2014-12-21T11:27:11Z</time>
      </trkpt>
      <trkpt lat="61.2495462" lon="14.4760269">
        <ele>434.173</ele>
        <time>2014-12-21T11:27:15Z</time>
      </trkpt>
      <trkpt lat="61.2494839" lon="14.4757795">
        <ele>434.653</ele>
        <time>2014-12-21T11:27:18Z</time>
      </trkpt>
      <trkpt lat="61.2494135" lon="14.475389">
        <ele>438.018</ele>
        <time>2014-12-21T11:27:23Z</time>
      </trkpt>
      <trkpt lat="61.2493544" lon="14.47497">
        <ele>441.863</ele>
        <time>2014-12-21T11:27:30Z</time>
      </trkpt>
      <trkpt lat="61.2493155" lon="14.4746662">
        <ele>444.747</ele>
        <time>2014-12-21T11:27:35Z</time>
      </trkpt>
      <trkpt lat="61.249283" lon="14.4743789">
        <ele>446.67</ele>
        <time>2014-12-21T11:27:40Z</time>
      </trkpt>
      <trkpt lat="61.2492419" lon="14.4740681">
        <ele>448.592</ele>
        <time>2014-12-21T11:27:45Z</time>
      </trkpt>
      <trkpt lat="61.249195" lon="14.4737326">
        <ele>449.073</ele>
        <time>2014-12-21T11:27:50Z</time>
      </trkpt>
      <trkpt lat="61.2491692" lon="14.4734801">
        <ele>449.073</ele>
        <time>2014-12-21T11:27:54Z</time>
      </trkpt>
      <trkpt lat="61.2491297" lon="14.4731471">
        <ele>448.592</ele>
        <time>2014-12-21T11:27:59Z</time>
      </trkpt>
      <trkpt lat="61.2490862" lon="14.4728556">
        <ele>448.112</ele>
        <time>2014-12-21T11:28:03Z</time>
      </trkpt>
      <trkpt lat="61.2490273" lon="14.472447">
        <ele>448.112</ele>
        <time>2014-12-21T11:28:08Z</time>
      </trkpt>
      <trkpt lat="61.2489622" lon="14.4720147">
        <ele>448.112</ele>
        <time>2014-12-21T11:28:13Z</time>
      </trkpt>
      <trkpt lat="61.2489441" lon="14.4718574">
        <ele>448.112</ele>
        <time>2014-12-21T11:28:15Z</time>
      </trkpt>
      <trkpt lat="61.2488945" lon="14.4715602">
        <ele>448.592</ele>
        <time>2014-12-21T11:28:19Z</time>
      </trkpt>
      <trkpt lat="61.2488501" lon="14.4711952">
        <ele>449.554</ele>
        <time>2014-12-21T11:28:25Z</time>
      </trkpt>
      <trkpt lat="61.2488101" lon="14.4708425">
        <ele>450.034</ele>
        <time>2014-12-21T11:28:31Z</time>
      </trkpt>
      <trkpt lat="61.2487795" lon="14.4705673">
        <ele>450.996</ele>
        <time>2014-12-21T11:28:36Z</time>
      </trkpt>
      <trkpt lat="61.2487496" lon="14.4702642">
        <ele>451.957</ele>
        <time>2014-12-21T11:28:42Z</time>
      </trkpt>
      <trkpt lat="61.2487201" lon="14.4700684">
        <ele>452.918</ele>
        <time>2014-12-21T11:28:46Z</time>
      </trkpt>
      <trkpt lat="61.2486759" lon="14.4697768">
        <ele>453.399</ele>
        <time>2014-12-21T11:28:52Z</time>
      </trkpt>
      <trkpt lat="61.2486723" lon="14.4696546">
        <ele>453.399</ele>
        <time>2014-12-21T11:28:54Z</time>
      </trkpt>
      <trkpt lat="61.2486413" lon="14.4694557">
        <ele>453.88</ele>
        <time>2014-12-21T11:28:57Z</time>
      </trkpt>
      <trkpt lat="61.2486314" lon="14.4693867">
        <ele>453.399</ele>
        <time>2014-12-21T11:28:58Z</time>
      </trkpt>
      <trkpt lat="61.2486138" lon="14.4692391">
        <ele>452.918</ele>
        <time>2014-12-21T11:29:00Z</time>
      </trkpt>
      <trkpt lat="61.2485683" lon="14.4690094">
        <ele>452.438</ele>
        <time>2014-12-21T11:29:21Z</time>
      </trkpt>
      <trkpt lat="61.2486294" lon="14.4693768">
        <ele>451.476</ele>
        <time>2014-12-21T11:29:26Z</time>
      </trkpt>
      <trkpt lat="61.2486745" lon="14.4695678">
        <ele>450.996</ele>
        <time>2014-12-21T11:29:29Z</time>
      </trkpt>
      <trkpt lat="61.2487413" lon="14.4700192">
        <ele>450.515</ele>
        <time>2014-12-21T11:29:35Z</time>
      </trkpt>
      <trkpt lat="61.2487738" lon="14.4702321">
        <ele>449.554</ele>
        <time>2014-12-21T11:29:37Z</time>
      </trkpt>
      <trkpt lat="61.2488334" lon="14.4705812">
        <ele>448.592</ele>
        <time>2014-12-21T11:29:40Z</time>
      </trkpt>
      <trkpt lat="61.2489314" lon="14.4713436">
        <ele>446.67</ele>
        <time>2014-12-21T11:29:46Z</time>
      </trkpt>
      <trkpt lat="61.2489938" lon="14.4718776">
        <ele>446.67</ele>
        <time>2014-12-21T11:29:50Z</time>
      </trkpt>
      <trkpt lat="61.2490012" lon="14.4721171">
        <ele>446.189</ele>
        <time>2014-12-21T11:29:52Z</time>
      </trkpt>
      <trkpt lat="61.2490872" lon="14.4726562">
        <ele>446.189</ele>
        <time>2014-12-21T11:29:57Z</time>
      </trkpt>
      <trkpt lat="61.2491447" lon="14.4729432">
        <ele>445.708</ele>
        <time>2014-12-21T11:30:00Z</time>
      </trkpt>
      <trkpt lat="61.2491944" lon="14.473409">
        <ele>443.786</ele>
        <time>2014-12-21T11:30:05Z</time>
      </trkpt>
      <trkpt lat="61.2492084" lon="14.473564">
        <ele>442.824</ele>
        <time>2014-12-21T11:30:07Z</time>
      </trkpt>
      <trkpt lat="61.2492316" lon="14.4737022">
        <ele>442.344</ele>
        <time>2014-12-21T11:30:09Z</time>
      </trkpt>
      <trkpt lat="61.2492684" lon="14.4739224">
        <ele>441.863</ele>
        <time>2014-12-21T11:30:12Z</time>
      </trkpt>
      <trkpt lat="61.2493301" lon="14.4743558">
        <ele>440.902</ele>
        <time>2014-12-21T11:30:17Z</time>
      </trkpt>
      <trkpt lat="61.2493395" lon="14.4744516">
        <ele>440.902</ele>
        <time>2014-12-21T11:30:18Z</time>
      </trkpt>
      <trkpt lat="61.2493939" lon="14.4747413">
        <ele>439.46</ele>
        <time>2014-12-21T11:30:21Z</time>
      </trkpt>
      <trkpt lat="61.2494641" lon="14.475104">
        <ele>437.537</ele>
        <time>2014-12-21T11:30:24Z</time>
      </trkpt>
      <trkpt lat="61.2495642" lon="14.4758909">
        <ele>437.057</ele>
        <time>2014-12-21T11:30:30Z</time>
      </trkpt>
      <trkpt lat="61.2495636" lon="14.4762556">
        <ele>437.537</ele>
        <time>2014-12-21T11:30:33Z</time>
      </trkpt>
      <trkpt lat="61.2496027" lon="14.4767025">
        <ele>437.057</ele>
        <time>2014-12-21T11:30:37Z</time>
      </trkpt>
      <trkpt lat="61.2496119" lon="14.476887">
        <ele>437.057</ele>
        <time>2014-12-21T11:30:39Z</time>
      </trkpt>
      <trkpt lat="61.2495949" lon="14.4772642">
        <ele>435.134</ele>
        <time>2014-12-21T11:30:44Z</time>
      </trkpt>
      <trkpt lat="61.2495727" lon="14.4777877">
        <ele>436.095</ele>
        <time>2014-12-21T11:30:51Z</time>
      </trkpt>
      <trkpt lat="61.2495771" lon="14.4780773">
        <ele>436.576</ele>
        <time>2014-12-21T11:30:55Z</time>
      </trkpt>
      <trkpt lat="61.2495567" lon="14.4783569">
        <ele>436.576</ele>
        <time>2014-12-21T11:30:59Z</time>
      </trkpt>
      <trkpt lat="61.2495472" lon="14.4786315">
        <ele>436.095</ele>
        <time>2014-12-21T11:31:03Z</time>
      </trkpt>
      <trkpt lat="61.2495191" lon="14.4789488">
        <ele>435.134</ele>
        <time>2014-12-21T11:31:07Z</time>
      </trkpt>
      <trkpt lat="61.249524" lon="14.4792036">
        <ele>434.173</ele>
        <time>2014-12-21T11:31:10Z</time>
      </trkpt>
      <trkpt lat="61.2495561" lon="14.4794683">
        <ele>433.692</ele>
        <time>2014-12-21T11:31:13Z</time>
      </trkpt>
      <trkpt lat="61.2495674" lon="14.4796398">
        <ele>432.731</ele>
        <time>2014-12-21T11:31:15Z</time>
      </trkpt>
      <trkpt lat="61.2495643" lon="14.479892">
        <ele>432.731</ele>
        <time>2014-12-21T11:31:18Z</time>
      </trkpt>
      <trkpt lat="61.2495751" lon="14.4802045">
        <ele>433.692</ele>
        <time>2014-12-21T11:31:22Z</time>
      </trkpt>
      <trkpt lat="61.2495719" lon="14.4805497">
        <ele>434.173</ele>
        <time>2014-12-21T11:31:26Z</time>
      </trkpt>
      <trkpt lat="61.2495721" lon="14.4806354">
        <ele>434.173</ele>
        <time>2014-12-21T11:31:27Z</time>
      </trkpt>
      <trkpt lat="61.2495753" lon="14.4809967">
        <ele>433.692</ele>
        <time>2014-12-21T11:31:32Z</time>
      </trkpt>
      <trkpt lat="61.2495757" lon="14.4812793">
        <ele>433.692</ele>
        <time>2014-12-21T11:31:36Z</time>
      </trkpt>
      <trkpt lat="61.2496011" lon="14.4815451">
        <ele>433.692</ele>
        <time>2014-12-21T11:31:40Z</time>
      </trkpt>
      <trkpt lat="61.2496223" lon="14.4818336">
        <ele>433.211</ele>
        <time>2014-12-21T11:31:44Z</time>
      </trkpt>
      <trkpt lat="61.2496161" lon="14.4821754">
        <ele>434.173</ele>
        <time>2014-12-21T11:31:48Z</time>
      </trkpt>
      <trkpt lat="61.249632" lon="14.4825349">
        <ele>434.653</ele>
        <time>2014-12-21T11:31:52Z</time>
      </trkpt>
      <trkpt lat="61.2496296" lon="14.4828137">
        <ele>435.134</ele>
        <time>2014-12-21T11:31:55Z</time>
      </trkpt>
      <trkpt lat="61.2496287" lon="14.4831715">
        <ele>436.576</ele>
        <time>2014-12-21T11:31:59Z</time>
      </trkpt>
      <trkpt lat="61.2496623" lon="14.4837236">
        <ele>437.537</ele>
        <time>2014-12-21T11:32:05Z</time>
      </trkpt>
      <trkpt lat="61.2497102" lon="14.4842137">
        <ele>437.537</ele>
        <time>2014-12-21T11:32:10Z</time>
      </trkpt>
      <trkpt lat="61.24974" lon="14.4847316">
        <ele>438.018</ele>
        <time>2014-12-21T11:32:15Z</time>
      </trkpt>
      <trkpt lat="61.2497309" lon="14.4850223">
        <ele>437.537</ele>
        <time>2014-12-21T11:32:18Z</time>
      </trkpt>
      <trkpt lat="61.2496841" lon="14.4853797">
        <ele>436.576</ele>
        <time>2014-12-21T11:32:22Z</time>
      </trkpt>
      <trkpt lat="61.2496613" lon="14.4856355">
        <ele>435.615</ele>
        <time>2014-12-21T11:32:25Z</time>
      </trkpt>
      <trkpt lat="61.2496524" lon="14.4857243">
        <ele>435.134</ele>
        <time>2014-12-21T11:32:26Z</time>
      </trkpt>
      <trkpt lat="61.2495556" lon="14.486226">
        <ele>432.731</ele>
        <time>2014-12-21T11:32:31Z</time>
      </trkpt>
      <trkpt lat="61.2494934" lon="14.4864913">
        <ele>431.769</ele>
        <time>2014-12-21T11:32:34Z</time>
      </trkpt>
      <trkpt lat="61.2494296" lon="14.4867497">
        <ele>431.289</ele>
        <time>2014-12-21T11:32:37Z</time>
      </trkpt>
      <trkpt lat="61.2493526" lon="14.4870523">
        <ele>432.25</ele>
        <time>2014-12-21T11:32:41Z</time>
      </trkpt>
      <trkpt lat="61.2493114" lon="14.4872079">
        <ele>431.769</ele>
        <time>2014-12-21T11:32:43Z</time>
      </trkpt>
      <trkpt lat="61.249292" lon="14.4872898">
        <ele>431.769</ele>
        <time>2014-12-21T11:32:44Z</time>
      </trkpt>
      <trkpt lat="61.249225" lon="14.487601">
        <ele>431.769</ele>
        <time>2014-12-21T11:32:48Z</time>
      </trkpt>
      <trkpt lat="61.2491587" lon="14.4879321">
        <ele>432.731</ele>
        <time>2014-12-21T11:32:53Z</time>
      </trkpt>
      <trkpt lat="61.2491029" lon="14.4882041">
        <ele>433.692</ele>
        <time>2014-12-21T11:32:57Z</time>
      </trkpt>
      <trkpt lat="61.2490589" lon="14.4884753">
        <ele>435.134</ele>
        <time>2014-12-21T11:33:01Z</time>
      </trkpt>
      <trkpt lat="61.2490137" lon="14.4887588">
        <ele>437.057</ele>
        <time>2014-12-21T11:33:05Z</time>
      </trkpt>
      <trkpt lat="61.2489672" lon="14.4890509">
        <ele>438.018</ele>
        <time>2014-12-21T11:33:09Z</time>
      </trkpt>
      <trkpt lat="61.248948" lon="14.4891918">
        <ele>437.057</ele>
        <time>2014-12-21T11:33:11Z</time>
      </trkpt>
      <trkpt lat="61.2489199" lon="14.4895592">
        <ele>437.537</ele>
        <time>2014-12-21T11:33:16Z</time>
      </trkpt>
      <trkpt lat="61.2489308" lon="14.4898648">
        <ele>440.421</ele>
        <time>2014-12-21T11:33:20Z</time>
      </trkpt>
      <trkpt lat="61.2489385" lon="14.4901911">
        <ele>442.824</ele>
        <time>2014-12-21T11:33:24Z</time>
      </trkpt>
      <trkpt lat="61.2489416" lon="14.4904919">
        <ele>442.824</ele>
        <time>2014-12-21T11:33:28Z</time>
      </trkpt>
      <trkpt lat="61.2489458" lon="14.4907636">
        <ele>444.266</ele>
        <time>2014-12-21T11:33:32Z</time>
      </trkpt>
      <trkpt lat="61.2489702" lon="14.4909886">
        <ele>444.747</ele>
        <time>2014-12-21T11:33:35Z</time>
      </trkpt>
      <trkpt lat="61.2490037" lon="14.4913075">
        <ele>444.266</ele>
        <time>2014-12-21T11:33:39Z</time>
      </trkpt>
      <trkpt lat="61.2490426" lon="14.4916599">
        <ele>444.747</ele>
        <time>2014-12-21T11:33:43Z</time>
      </trkpt>
      <trkpt lat="61.2490406" lon="14.4919585">
        <ele>445.228</ele>
        <time>2014-12-21T11:33:47Z</time>
      </trkpt>
      <trkpt lat="61.2490277" lon="14.4922538">
        <ele>444.747</ele>
        <time>2014-12-21T11:33:51Z</time>
      </trkpt>
      <trkpt lat="61.2489987" lon="14.4925906">
        <ele>443.786</ele>
        <time>2014-12-21T11:33:55Z</time>
      </trkpt>
      <trkpt lat="61.2489877" lon="14.4926812">
        <ele>443.305</ele>
        <time>2014-12-21T11:33:56Z</time>
      </trkpt>
      <trkpt lat="61.2489302" lon="14.4930421">
        <ele>441.863</ele>
        <time>2014-12-21T11:34:00Z</time>
      </trkpt>
      <trkpt lat="61.2488408" lon="14.4933802">
        <ele>439.94</ele>
        <time>2014-12-21T11:34:04Z</time>
      </trkpt>
      <trkpt lat="61.2487874" lon="14.4935451">
        <ele>439.94</ele>
        <time>2014-12-21T11:34:06Z</time>
      </trkpt>
      <trkpt lat="61.2486225" lon="14.4939145">
        <ele>440.902</ele>
        <time>2014-12-21T11:34:12Z</time>
      </trkpt>
      <trkpt lat="61.2485023" lon="14.4941348">
        <ele>442.824</ele>
        <time>2014-12-21T11:34:16Z</time>
      </trkpt>
      <trkpt lat="61.2483453" lon="14.4944481">
        <ele>442.824</ele>
        <time>2014-12-21T11:34:21Z</time>
      </trkpt>
      <trkpt lat="61.2481736" lon="14.4947805">
        <ele>443.786</ele>
        <time>2014-12-21T11:34:26Z</time>
      </trkpt>
      <trkpt lat="61.2480465" lon="14.4950764">
        <ele>442.824</ele>
        <time>2014-12-21T11:34:30Z</time>
      </trkpt>
      <trkpt lat="61.2478175" lon="14.4955121">
        <ele>440.902</ele>
        <time>2014-12-21T11:34:37Z</time>
      </trkpt>
      <trkpt lat="61.247761" lon="14.4956223">
        <ele>440.902</ele>
        <time>2014-12-21T11:34:39Z</time>
      </trkpt>
      <trkpt lat="61.2476007" lon="14.4959591">
        <ele>439.46</ele>
        <time>2014-12-21T11:34:45Z</time>
      </trkpt>
      <trkpt lat="61.2474742" lon="14.496176">
        <ele>438.979</ele>
        <time>2014-12-21T11:34:50Z</time>
      </trkpt>
      <trkpt lat="61.2473333" lon="14.4964112">
        <ele>438.979</ele>
        <time>2014-12-21T11:34:55Z</time>
      </trkpt>
      <trkpt lat="61.2471872" lon="14.496694">
        <ele>438.018</ele>
        <time>2014-12-21T11:35:00Z</time>
      </trkpt>
      <trkpt lat="61.2470683" lon="14.4969506">
        <ele>436.095</ele>
        <time>2014-12-21T11:35:04Z</time>
      </trkpt>
      <trkpt lat="61.2469815" lon="14.4971659">
        <ele>435.134</ele>
        <time>2014-12-21T11:35:07Z</time>
      </trkpt>
      <trkpt lat="61.2468998" lon="14.4973702">
        <ele>433.692</ele>
        <time>2014-12-21T11:35:10Z</time>
      </trkpt>
      <trkpt lat="61.2467194" lon="14.4977623">
        <ele>432.731</ele>
        <time>2014-12-21T11:35:16Z</time>
      </trkpt>
      <trkpt lat="61.2465626" lon="14.4981234">
        <ele>430.808</ele>
        <time>2014-12-21T11:35:21Z</time>
      </trkpt>
      <trkpt lat="61.2464587" lon="14.4983549">
        <ele>430.808</ele>
        <time>2014-12-21T11:35:24Z</time>
      </trkpt>
      <trkpt lat="61.2463262" lon="14.4986725">
        <ele>430.808</ele>
        <time>2014-12-21T11:35:28Z</time>
      </trkpt>
      <trkpt lat="61.2460769" lon="14.4991531">
        <ele>428.885</ele>
        <time>2014-12-21T11:35:34Z</time>
      </trkpt>
      <trkpt lat="61.2459383" lon="14.4994267">
        <ele>429.847</ele>
        <time>2014-12-21T11:35:38Z</time>
      </trkpt>
      <trkpt lat="61.245801" lon="14.4996987">
        <ele>428.405</ele>
        <time>2014-12-21T11:35:42Z</time>
      </trkpt>
      <trkpt lat="61.2456506" lon="14.5000042">
        <ele>428.885</ele>
        <time>2014-12-21T11:35:47Z</time>
      </trkpt>
      <trkpt lat="61.2456233" lon="14.5000551">
        <ele>429.366</ele>
        <time>2014-12-21T11:35:48Z</time>
      </trkpt>
      <trkpt lat="61.2455678" lon="14.5001823">
        <ele>430.327</ele>
        <time>2014-12-21T11:35:50Z</time>
      </trkpt>
      <trkpt lat="61.2454082" lon="14.5004907">
        <ele>430.327</ele>
        <time>2014-12-21T11:35:56Z</time>
      </trkpt>
      <trkpt lat="61.2452917" lon="14.5007211">
        <ele>431.289</ele>
        <time>2014-12-21T11:36:00Z</time>
      </trkpt>
      <trkpt lat="61.2452022" lon="14.5009071">
        <ele>431.769</ele>
        <time>2014-12-21T11:36:04Z</time>
      </trkpt>
      <trkpt lat="61.2451136" lon="14.501062">
        <ele>432.731</ele>
        <time>2014-12-21T11:36:08Z</time>
      </trkpt>
      <trkpt lat="61.244993" lon="14.5012913">
        <ele>434.173</ele>
        <time>2014-12-21T11:36:13Z</time>
      </trkpt>
      <trkpt lat="61.244887" lon="14.5015079">
        <ele>435.134</ele>
        <time>2014-12-21T11:36:17Z</time>
      </trkpt>
      <trkpt lat="61.244752" lon="14.5017742">
        <ele>435.134</ele>
        <time>2014-12-21T11:36:22Z</time>
      </trkpt>
      <trkpt lat="61.2446786" lon="14.5019348">
        <ele>434.653</ele>
        <time>2014-12-21T11:36:25Z</time>
      </trkpt>
      <trkpt lat="61.2446187" lon="14.5020522">
        <ele>434.173</ele>
        <time>2014-12-21T11:36:27Z</time>
      </trkpt>
      <trkpt lat="61.2445174" lon="14.5022897">
        <ele>433.211</ele>
        <time>2014-12-21T11:36:31Z</time>
      </trkpt>
      <trkpt lat="61.244396" lon="14.5025078">
        <ele>432.731</ele>
        <time>2014-12-21T11:36:35Z</time>
      </trkpt>
      <trkpt lat="61.2442883" lon="14.5027026">
        <ele>432.25</ele>
        <time>2014-12-21T11:36:39Z</time>
      </trkpt>
      <trkpt lat="61.2441781" lon="14.5029033">
        <ele>431.769</ele>
        <time>2014-12-21T11:36:43Z</time>
      </trkpt>
      <trkpt lat="61.2440719" lon="14.5031481">
        <ele>430.808</ele>
        <time>2014-12-21T11:36:47Z</time>
      </trkpt>
      <trkpt lat="61.24395" lon="14.5034524">
        <ele>429.847</ele>
        <time>2014-12-21T11:36:51Z</time>
      </trkpt>
      <trkpt lat="61.2438829" lon="14.5035938">
        <ele>429.847</ele>
        <time>2014-12-21T11:36:53Z</time>
      </trkpt>
      <trkpt lat="61.2437534" lon="14.503919">
        <ele>428.885</ele>
        <time>2014-12-21T11:36:57Z</time>
      </trkpt>
      <trkpt lat="61.2437014" lon="14.5040994">
        <ele>428.405</ele>
        <time>2014-12-21T11:36:59Z</time>
      </trkpt>
      <trkpt lat="61.2435741" lon="14.5043434">
        <ele>427.443</ele>
        <time>2014-12-21T11:37:04Z</time>
      </trkpt>
      <trkpt lat="61.243506" lon="14.5044094">
        <ele>428.405</ele>
        <time>2014-12-21T11:37:06Z</time>
      </trkpt>
      <trkpt lat="61.2432879" lon="14.5045397">
        <ele>429.366</ele>
        <time>2014-12-21T11:37:12Z</time>
      </trkpt>
      <trkpt lat="61.2430669" lon="14.5046083">
        <ele>430.327</ele>
        <time>2014-12-21T11:37:18Z</time>
      </trkpt>
      <trkpt lat="61.2429954" lon="14.5046016">
        <ele>430.327</ele>
        <time>2014-12-21T11:37:20Z</time>
      </trkpt>
      <trkpt lat="61.2428685" lon="14.504577">
        <ele>442.344</ele>
        <time>2014-12-21T11:38:08Z</time>
      </trkpt>
      <trkpt lat="61.2427868" lon="14.5045825">
        <ele>442.344</ele>
        <time>2014-12-21T11:38:12Z</time>
      </trkpt>
      <trkpt lat="61.2426272" lon="14.5046208">
        <ele>442.344</ele>
        <time>2014-12-21T11:38:16Z</time>
      </trkpt>
      <trkpt lat="61.2425045" lon="14.5046673">
        <ele>442.344</ele>
        <time>2014-12-21T11:38:19Z</time>
      </trkpt>
      <trkpt lat="61.2422589" lon="14.5047037">
        <ele>441.382</ele>
        <time>2014-12-21T11:38:25Z</time>
      </trkpt>
      <trkpt lat="61.2421755" lon="14.5047188">
        <ele>441.382</ele>
        <time>2014-12-21T11:38:27Z</time>
      </trkpt>
      <trkpt lat="61.2419963" lon="14.504717">
        <ele>441.382</ele>
        <time>2014-12-21T11:38:32Z</time>
      </trkpt>
      <trkpt lat="61.2418447" lon="14.5047244">
        <ele>441.863</ele>
        <time>2014-12-21T11:38:36Z</time>
      </trkpt>
      <trkpt lat="61.2416847" lon="14.5047476">
        <ele>441.863</ele>
        <time>2014-12-21T11:38:40Z</time>
      </trkpt>
      <trkpt lat="61.2415054" lon="14.5047988">
        <ele>440.902</ele>
        <time>2014-12-21T11:38:44Z</time>
      </trkpt>
      <trkpt lat="61.2414606" lon="14.5048167">
        <ele>440.902</ele>
        <time>2014-12-21T11:38:45Z</time>
      </trkpt>
      <trkpt lat="61.2412187" lon="14.5048217">
        <ele>439.46</ele>
        <time>2014-12-21T11:38:50Z</time>
      </trkpt>
      <trkpt lat="61.2410344" lon="14.5048423">
        <ele>438.979</ele>
        <time>2014-12-21T11:38:54Z</time>
      </trkpt>
      <trkpt lat="61.2408986" lon="14.5048735">
        <ele>438.499</ele>
        <time>2014-12-21T11:38:57Z</time>
      </trkpt>
      <trkpt lat="61.2406743" lon="14.5049673">
        <ele>436.576</ele>
        <time>2014-12-21T11:39:02Z</time>
      </trkpt>
      <trkpt lat="61.240629" lon="14.5050025">
        <ele>436.095</ele>
        <time>2014-12-21T11:39:03Z</time>
      </trkpt>
      <trkpt lat="61.2404354" lon="14.5051242">
        <ele>433.692</ele>
        <time>2014-12-21T11:39:08Z</time>
      </trkpt>
      <trkpt lat="61.2403252" lon="14.5051821">
        <ele>432.731</ele>
        <time>2014-12-21T11:39:11Z</time>
      </trkpt>
      <trkpt lat="61.2401578" lon="14.5052491">
        <ele>430.808</ele>
        <time>2014-12-21T11:39:16Z</time>
      </trkpt>
      <trkpt lat="61.2400428" lon="14.5053361">
        <ele>430.808</ele>
        <time>2014-12-21T11:39:19Z</time>
      </trkpt>
      <trkpt lat="61.2398458" lon="14.5054975">
        <ele>432.25</ele>
        <time>2014-12-21T11:39:25Z</time>
      </trkpt>
      <trkpt lat="61.2396836" lon="14.5056697">
        <ele>432.731</ele>
        <time>2014-12-21T11:39:30Z</time>
      </trkpt>
      <trkpt lat="61.2395547" lon="14.5058285">
        <ele>432.25</ele>
        <time>2014-12-21T11:39:34Z</time>
      </trkpt>
      <trkpt lat="61.2394239" lon="14.5060042">
        <ele>432.25</ele>
        <time>2014-12-21T11:39:38Z</time>
      </trkpt>
      <trkpt lat="61.2392982" lon="14.5061447">
        <ele>433.211</ele>
        <time>2014-12-21T11:39:42Z</time>
      </trkpt>
      <trkpt lat="61.2391901" lon="14.5062911">
        <ele>432.731</ele>
        <time>2014-12-21T11:39:46Z</time>
      </trkpt>
      <trkpt lat="61.2390865" lon="14.5065035">
        <ele>433.211</ele>
        <time>2014-12-21T11:39:50Z</time>
      </trkpt>
      <trkpt lat="61.2389866" lon="14.5067134">
        <ele>434.173</ele>
        <time>2014-12-21T11:39:54Z</time>
      </trkpt>
      <trkpt lat="61.2389026" lon="14.5069202">
        <ele>435.134</ele>
        <time>2014-12-21T11:39:58Z</time>
      </trkpt>
      <trkpt lat="61.238799" lon="14.50712">
        <ele>436.095</ele>
        <time>2014-12-21T11:40:02Z</time>
      </trkpt>
      <trkpt lat="61.238755" lon="14.5072055">
        <ele>437.057</ele>
        <time>2014-12-21T11:40:04Z</time>
      </trkpt>
      <trkpt lat="61.2386426" lon="14.5075">
        <ele>437.537</ele>
        <time>2014-12-21T11:40:09Z</time>
      </trkpt>
      <trkpt lat="61.2386204" lon="14.507561">
        <ele>437.537</ele>
        <time>2014-12-21T11:40:10Z</time>
      </trkpt>
      <trkpt lat="61.2384681" lon="14.5078726">
        <ele>436.095</ele>
        <time>2014-12-21T11:40:16Z</time>
      </trkpt>
      <trkpt lat="61.2383069" lon="14.5082654">
        <ele>435.615</ele>
        <time>2014-12-21T11:40:23Z</time>
      </trkpt>
      <trkpt lat="61.2382007" lon="14.5085395">
        <ele>434.653</ele>
        <time>2014-12-21T11:40:27Z</time>
      </trkpt>
      <trkpt lat="61.2380697" lon="14.5088928">
        <ele>431.769</ele>
        <time>2014-12-21T11:40:32Z</time>
      </trkpt>
      <trkpt lat="61.2380195" lon="14.5090661">
        <ele>430.808</ele>
        <time>2014-12-21T11:40:34Z</time>
      </trkpt>
      <trkpt lat="61.2378863" lon="14.5095103">
        <ele>427.924</ele>
        <time>2014-12-21T11:40:39Z</time>
      </trkpt>
      <trkpt lat="61.2377977" lon="14.5097858">
        <ele>425.521</ele>
        <time>2014-12-21T11:40:42Z</time>
      </trkpt>
      <trkpt lat="61.2376416" lon="14.5101773">
        <ele>422.156</ele>
        <time>2014-12-21T11:40:46Z</time>
      </trkpt>
      <trkpt lat="61.2375181" lon="14.5104898">
        <ele>420.233</ele>
        <time>2014-12-21T11:40:49Z</time>
      </trkpt>
      <trkpt lat="61.2373932" lon="14.5108869">
        <ele>418.311</ele>
        <time>2014-12-21T11:40:53Z</time>
      </trkpt>
      <trkpt lat="61.2373106" lon="14.5110739">
        <ele>417.35</ele>
        <time>2014-12-21T11:40:55Z</time>
      </trkpt>
      <trkpt lat="61.23717" lon="14.511322">
        <ele>416.869</ele>
        <time>2014-12-21T11:40:58Z</time>
      </trkpt>
      <trkpt lat="61.236947" lon="14.5119764">
        <ele>415.427</ele>
        <time>2014-12-21T11:41:05Z</time>
      </trkpt>
      <trkpt lat="61.2368135" lon="14.5123781">
        <ele>415.427</ele>
        <time>2014-12-21T11:41:10Z</time>
      </trkpt>
      <trkpt lat="61.2367058" lon="14.5126639">
        <ele>416.388</ele>
        <time>2014-12-21T11:41:14Z</time>
      </trkpt>
      <trkpt lat="61.2365758" lon="14.5129731">
        <ele>417.35</ele>
        <time>2014-12-21T11:41:19Z</time>
      </trkpt>
      <trkpt lat="61.2364693" lon="14.5132646">
        <ele>417.83</ele>
        <time>2014-12-21T11:41:23Z</time>
      </trkpt>
      <trkpt lat="61.2363181" lon="14.5136491">
        <ele>417.83</ele>
        <time>2014-12-21T11:41:28Z</time>
      </trkpt>
      <trkpt lat="61.2362918" lon="14.5137419">
        <ele>417.83</ele>
        <time>2014-12-21T11:41:29Z</time>
      </trkpt>
      <trkpt lat="61.236153" lon="14.5141122">
        <ele>417.83</ele>
        <time>2014-12-21T11:41:34Z</time>
      </trkpt>
      <trkpt lat="61.2361106" lon="14.5142432">
        <ele>418.311</ele>
        <time>2014-12-21T11:41:36Z</time>
      </trkpt>
      <trkpt lat="61.2359954" lon="14.5145302">
        <ele>419.753</ele>
        <time>2014-12-21T11:41:41Z</time>
      </trkpt>
      <trkpt lat="61.23588" lon="14.5148414">
        <ele>422.156</ele>
        <time>2014-12-21T11:41:46Z</time>
      </trkpt>
      <trkpt lat="61.2357588" lon="14.5151745">
        <ele>423.598</ele>
        <time>2014-12-21T11:41:51Z</time>
      </trkpt>
      <trkpt lat="61.2356293" lon="14.5155565">
        <ele>424.559</ele>
        <time>2014-12-21T11:41:56Z</time>
      </trkpt>
      <trkpt lat="61.2356028" lon="14.5156255">
        <ele>424.559</ele>
        <time>2014-12-21T11:41:57Z</time>
      </trkpt>
      <trkpt lat="61.2355045" lon="14.5159247">
        <ele>425.04</ele>
        <time>2014-12-21T11:42:01Z</time>
      </trkpt>
      <trkpt lat="61.235437" lon="14.516139">
        <ele>423.598</ele>
        <time>2014-12-21T11:42:04Z</time>
      </trkpt>
      <trkpt lat="61.2353279" lon="14.5164241">
        <ele>422.637</ele>
        <time>2014-12-21T11:42:09Z</time>
      </trkpt>
      <trkpt lat="61.2351315" lon="14.5169266">
        <ele>425.521</ele>
        <time>2014-12-21T11:42:17Z</time>
      </trkpt>
      <trkpt lat="61.235027" lon="14.5172338">
        <ele>424.559</ele>
        <time>2014-12-21T11:42:21Z</time>
      </trkpt>
      <trkpt lat="61.234904" lon="14.5175587">
        <ele>424.079</ele>
        <time>2014-12-21T11:42:25Z</time>
      </trkpt>
      <trkpt lat="61.2348014" lon="14.5177966">
        <ele>423.598</ele>
        <time>2014-12-21T11:42:28Z</time>
      </trkpt>
      <trkpt lat="61.2346004" lon="14.5182709">
        <ele>421.675</ele>
        <time>2014-12-21T11:42:34Z</time>
      </trkpt>
      <trkpt lat="61.2345228" lon="14.5184764">
        <ele>421.195</ele>
        <time>2014-12-21T11:42:37Z</time>
      </trkpt>
      <trkpt lat="61.2344037" lon="14.518809">
        <ele>423.598</ele>
        <time>2014-12-21T11:42:43Z</time>
      </trkpt>
      <trkpt lat="61.2343369" lon="14.518987">
        <ele>424.079</ele>
        <time>2014-12-21T11:42:46Z</time>
      </trkpt>
      <trkpt lat="61.2342271" lon="14.5192892">
        <ele>424.559</ele>
        <time>2014-12-21T11:42:51Z</time>
      </trkpt>
      <trkpt lat="61.2341422" lon="14.5195118">
        <ele>425.521</ele>
        <time>2014-12-21T11:42:55Z</time>
      </trkpt>
      <trkpt lat="61.2340694" lon="14.5198495">
        <ele>426.482</ele>
        <time>2014-12-21T11:43:01Z</time>
      </trkpt>
      <trkpt lat="61.2340063" lon="14.520032">
        <ele>427.443</ele>
        <time>2014-12-21T11:43:04Z</time>
      </trkpt>
      <trkpt lat="61.2339332" lon="14.5202964">
        <ele>427.924</ele>
        <time>2014-12-21T11:43:08Z</time>
      </trkpt>
      <trkpt lat="61.2338768" lon="14.5206317">
        <ele>426.963</ele>
        <time>2014-12-21T11:43:12Z</time>
      </trkpt>
      <trkpt lat="61.2338663" lon="14.5209001">
        <ele>426.001</ele>
        <time>2014-12-21T11:43:15Z</time>
      </trkpt>
      <trkpt lat="61.2338459" lon="14.5211368">
        <ele>424.559</ele>
        <time>2014-12-21T11:43:18Z</time>
      </trkpt>
      <trkpt lat="61.2338032" lon="14.5213711">
        <ele>422.637</ele>
        <time>2014-12-21T11:43:21Z</time>
      </trkpt>
      <trkpt lat="61.2337666" lon="14.5215437">
        <ele>420.714</ele>
        <time>2014-12-21T11:43:23Z</time>
      </trkpt>
      <trkpt lat="61.233711" lon="14.5219223">
        <ele>417.83</ele>
        <time>2014-12-21T11:43:27Z</time>
      </trkpt>
      <trkpt lat="61.2336649" lon="14.5221314">
        <ele>415.907</ele>
        <time>2014-12-21T11:43:29Z</time>
      </trkpt>
      <trkpt lat="61.2334523" lon="14.5228982">
        <ele>413.504</ele>
        <time>2014-12-21T11:43:36Z</time>
      </trkpt>
      <trkpt lat="61.2333221" lon="14.5233587">
        <ele>413.985</ele>
        <time>2014-12-21T11:43:40Z</time>
      </trkpt>
      <trkpt lat="61.2331776" lon="14.5238831">
        <ele>418.311</ele>
        <time>2014-12-21T11:43:45Z</time>
      </trkpt>
      <trkpt lat="61.2330269" lon="14.5244298">
        <ele>419.272</ele>
        <time>2014-12-21T11:43:50Z</time>
      </trkpt>
      <trkpt lat="61.2329166" lon="14.5248107">
        <ele>417.83</ele>
        <time>2014-12-21T11:43:54Z</time>
      </trkpt>
      <trkpt lat="61.2328507" lon="14.5249754">
        <ele>417.35</ele>
        <time>2014-12-21T11:43:56Z</time>
      </trkpt>
      <trkpt lat="61.23273" lon="14.5253308">
        <ele>415.907</ele>
        <time>2014-12-21T11:44:00Z</time>
      </trkpt>
      <trkpt lat="61.2326247" lon="14.5256359">
        <ele>415.907</ele>
        <time>2014-12-21T11:44:03Z</time>
      </trkpt>
      <trkpt lat="61.2324423" lon="14.5260861">
        <ele>416.388</ele>
        <time>2014-12-21T11:44:07Z</time>
      </trkpt>
      <trkpt lat="61.232313" lon="14.5263159">
        <ele>415.907</ele>
        <time>2014-12-21T11:44:09Z</time>
      </trkpt>
      <trkpt lat="61.2321186" lon="14.5266235">
        <ele>414.946</ele>
        <time>2014-12-21T11:44:12Z</time>
      </trkpt>
      <trkpt lat="61.2320043" lon="14.5268002">
        <ele>414.946</ele>
        <time>2014-12-21T11:44:14Z</time>
      </trkpt>
      <trkpt lat="61.2317763" lon="14.5272472">
        <ele>415.907</ele>
        <time>2014-12-21T11:44:19Z</time>
      </trkpt>
      <trkpt lat="61.2316702" lon="14.5274562">
        <ele>416.388</ele>
        <time>2014-12-21T11:44:22Z</time>
      </trkpt>
      <trkpt lat="61.2315505" lon="14.5277326">
        <ele>417.35</ele>
        <time>2014-12-21T11:44:26Z</time>
      </trkpt>
      <trkpt lat="61.2314613" lon="14.5279137">
        <ele>415.907</ele>
        <time>2014-12-21T11:44:29Z</time>
      </trkpt>
      <trkpt lat="61.2313279" lon="14.5282368">
        <ele>413.985</ele>
        <time>2014-12-21T11:44:33Z</time>
      </trkpt>
      <trkpt lat="61.2311549" lon="14.5288297">
        <ele>411.101</ele>
        <time>2014-12-21T11:44:38Z</time>
      </trkpt>
      <trkpt lat="61.2308573" lon="14.5299839">
        <ele>407.736</ele>
        <time>2014-12-21T11:44:46Z</time>
      </trkpt>
      <trkpt lat="61.2305301" lon="14.5313131">
        <ele>404.852</ele>
        <time>2014-12-21T11:44:55Z</time>
      </trkpt>
      <trkpt lat="61.230224" lon="14.5325854">
        <ele>401.969</ele>
        <time>2014-12-21T11:45:03Z</time>
      </trkpt>
      <trkpt lat="61.2299219" lon="14.5338213">
        <ele>400.526</ele>
        <time>2014-12-21T11:45:11Z</time>
      </trkpt>
      <trkpt lat="61.2297228" lon="14.5344111">
        <ele>399.084</ele>
        <time>2014-12-21T11:45:16Z</time>
      </trkpt>
      <trkpt lat="61.229641" lon="14.5345815">
        <ele>398.604</ele>
        <time>2014-12-21T11:45:18Z</time>
      </trkpt>
      <trkpt lat="61.2296023" lon="14.5346462">
        <ele>398.123</ele>
        <time>2014-12-21T11:45:19Z</time>
      </trkpt>
      <trkpt lat="61.2294635" lon="14.5349186">
        <ele>398.604</ele>
        <time>2014-12-21T11:45:27Z</time>
      </trkpt>
      <trkpt lat="61.229466" lon="14.5349171">
        <ele>398.604</ele>
        <time>2014-12-21T11:45:28Z</time>
      </trkpt>
      <trkpt lat="61.2294809" lon="14.5348961">
        <ele>398.604</ele>
        <time>2014-12-21T11:45:29Z</time>
      </trkpt>
      <trkpt lat="61.2296136" lon="14.5346783">
        <ele>398.604</ele>
        <time>2014-12-21T11:45:35Z</time>
      </trkpt>
      <trkpt lat="61.2297342" lon="14.5344809">
        <ele>399.084</ele>
        <time>2014-12-21T11:45:40Z</time>
      </trkpt>
      <trkpt lat="61.2298394" lon="14.5342457">
        <ele>400.046</ele>
        <time>2014-12-21T11:45:45Z</time>
      </trkpt>
      <trkpt lat="61.229926" lon="14.5340007">
        <ele>400.526</ele>
        <time>2014-12-21T11:45:50Z</time>
      </trkpt>
      <trkpt lat="61.2299901" lon="14.5337581">
        <ele>401.969</ele>
        <time>2014-12-21T11:45:54Z</time>
      </trkpt>
      <trkpt lat="61.2300455" lon="14.5334926">
        <ele>402.449</ele>
        <time>2014-12-21T11:45:58Z</time>
      </trkpt>
      <trkpt lat="61.2301097" lon="14.5332521">
        <ele>404.372</ele>
        <time>2014-12-21T11:46:02Z</time>
      </trkpt>
      <trkpt lat="61.2301844" lon="14.5329398">
        <ele>407.256</ele>
        <time>2014-12-21T11:46:07Z</time>
      </trkpt>
      <trkpt lat="61.2302483" lon="14.5326986">
        <ele>409.178</ele>
        <time>2014-12-21T11:46:11Z</time>
      </trkpt>
      <trkpt lat="61.2303182" lon="14.532412">
        <ele>410.62</ele>
        <time>2014-12-21T11:46:16Z</time>
      </trkpt>
      <trkpt lat="61.2303886" lon="14.5321363">
        <ele>411.101</ele>
        <time>2014-12-21T11:46:21Z</time>
      </trkpt>
      <trkpt lat="61.2304544" lon="14.531866">
        <ele>412.062</ele>
        <time>2014-12-21T11:46:26Z</time>
      </trkpt>
      <trkpt lat="61.2305057" lon="14.5316505">
        <ele>413.024</ele>
        <time>2014-12-21T11:46:30Z</time>
      </trkpt>
      <trkpt lat="61.2305746" lon="14.5313916">
        <ele>413.504</ele>
        <time>2014-12-21T11:46:35Z</time>
      </trkpt>
      <trkpt lat="61.2306373" lon="14.5311357">
        <ele>413.985</ele>
        <time>2014-12-21T11:46:40Z</time>
      </trkpt>
      <trkpt lat="61.2307091" lon="14.530875">
        <ele>414.946</ele>
        <time>2014-12-21T11:46:45Z</time>
      </trkpt>
      <trkpt lat="61.2307694" lon="14.5306568">
        <ele>414.946</ele>
        <time>2014-12-21T11:46:49Z</time>
      </trkpt>
      <trkpt lat="61.2308223" lon="14.530431">
        <ele>414.946</ele>
        <time>2014-12-21T11:46:53Z</time>
      </trkpt>
      <trkpt lat="61.2308748" lon="14.530228">
        <ele>415.427</ele>
        <time>2014-12-21T11:46:57Z</time>
      </trkpt>
      <trkpt lat="61.2309237" lon="14.5300372">
        <ele>414.946</ele>
        <time>2014-12-21T11:47:01Z</time>
      </trkpt>
      <trkpt lat="61.2309845" lon="14.5298101">
        <ele>413.985</ele>
        <time>2014-12-21T11:47:06Z</time>
      </trkpt>
      <trkpt lat="61.2310558" lon="14.5295096">
        <ele>414.465</ele>
        <time>2014-12-21T11:47:12Z</time>
      </trkpt>
      <trkpt lat="61.2311157" lon="14.5292609">
        <ele>414.946</ele>
        <time>2014-12-21T11:47:17Z</time>
      </trkpt>
      <trkpt lat="61.2311667" lon="14.5290682">
        <ele>415.427</ele>
        <time>2014-12-21T11:47:21Z</time>
      </trkpt>
      <trkpt lat="61.2312143" lon="14.5288834">
        <ele>415.427</ele>
        <time>2014-12-21T11:47:25Z</time>
      </trkpt>
      <trkpt lat="61.2312795" lon="14.5286591">
        <ele>415.907</ele>
        <time>2014-12-21T11:47:30Z</time>
      </trkpt>
      <trkpt lat="61.2313538" lon="14.5284051">
        <ele>416.388</ele>
        <time>2014-12-21T11:47:36Z</time>
      </trkpt>
      <trkpt lat="61.2314537" lon="14.5281353">
        <ele>418.311</ele>
        <time>2014-12-21T11:47:42Z</time>
      </trkpt>
      <trkpt lat="61.2315421" lon="14.5279166">
        <ele>419.753</ele>
        <time>2014-12-21T11:47:47Z</time>
      </trkpt>
      <trkpt lat="61.2315712" lon="14.527838">
        <ele>420.233</ele>
        <time>2014-12-21T11:47:49Z</time>
      </trkpt>
      <trkpt lat="61.2316257" lon="14.5276955">
        <ele>420.714</ele>
        <time>2014-12-21T11:47:52Z</time>
      </trkpt>
      <trkpt lat="61.2317178" lon="14.5274903">
        <ele>421.195</ele>
        <time>2014-12-21T11:47:56Z</time>
      </trkpt>
      <trkpt lat="61.2318394" lon="14.5272363">
        <ele>423.117</ele>
        <time>2014-12-21T11:48:01Z</time>
      </trkpt>
      <trkpt lat="61.23195" lon="14.5270174">
        <ele>423.117</ele>
        <time>2014-12-21T11:48:05Z</time>
      </trkpt>
      <trkpt lat="61.2320882" lon="14.5267399">
        <ele>422.637</ele>
        <time>2014-12-21T11:48:09Z</time>
      </trkpt>
      <trkpt lat="61.2322011" lon="14.5264959">
        <ele>422.156</ele>
        <time>2014-12-21T11:48:12Z</time>
      </trkpt>
      <trkpt lat="61.2322747" lon="14.5263492">
        <ele>421.675</ele>
        <time>2014-12-21T11:48:14Z</time>
      </trkpt>
      <trkpt lat="61.2323577" lon="14.5261958">
        <ele>420.714</ele>
        <time>2014-12-21T11:48:17Z</time>
      </trkpt>
      <trkpt lat="61.2324482" lon="14.5260362">
        <ele>420.233</ele>
        <time>2014-12-21T11:48:21Z</time>
      </trkpt>
      <trkpt lat="61.2325243" lon="14.5259489">
        <ele>419.272</ele>
        <time>2014-12-21T11:48:24Z</time>
      </trkpt>
      <trkpt lat="61.2326263" lon="14.5258041">
        <ele>418.792</ele>
        <time>2014-12-21T11:48:29Z</time>
      </trkpt>
      <trkpt lat="61.2327104" lon="14.5256275">
        <ele>417.83</ele>
        <time>2014-12-21T11:48:34Z</time>
      </trkpt>
      <trkpt lat="61.2328113" lon="14.5254075">
        <ele>416.869</ele>
        <time>2014-12-21T11:48:40Z</time>
      </trkpt>
      <trkpt lat="61.2328668" lon="14.5252313">
        <ele>418.311</ele>
        <time>2014-12-21T11:48:44Z</time>
      </trkpt>
      <trkpt lat="61.2329366" lon="14.5250511">
        <ele>418.792</ele>
        <time>2014-12-21T11:48:48Z</time>
      </trkpt>
      <trkpt lat="61.2330114" lon="14.5248775">
        <ele>419.753</ele>
        <time>2014-12-21T11:48:52Z</time>
      </trkpt>
      <trkpt lat="61.2331078" lon="14.5246085">
        <ele>420.714</ele>
        <time>2014-12-21T11:48:57Z</time>
      </trkpt>
      <trkpt lat="61.2331567" lon="14.5244445">
        <ele>422.156</ele>
        <time>2014-12-21T11:49:00Z</time>
      </trkpt>
      <trkpt lat="61.2331729" lon="14.5243844">
        <ele>422.156</ele>
        <time>2014-12-21T11:49:01Z</time>
      </trkpt>
      <trkpt lat="61.2332492" lon="14.5241894">
        <ele>422.156</ele>
        <time>2014-12-21T11:49:05Z</time>
      </trkpt>
      <trkpt lat="61.2333481" lon="14.5239083">
        <ele>422.637</ele>
        <time>2014-12-21T11:49:10Z</time>
      </trkpt>
      <trkpt lat="61.2333948" lon="14.5237432">
        <ele>422.156</ele>
        <time>2014-12-21T11:49:13Z</time>
      </trkpt>
      <trkpt lat="61.2334887" lon="14.5234782">
        <ele>421.675</ele>
        <time>2014-12-21T11:49:18Z</time>
      </trkpt>
      <trkpt lat="61.2335397" lon="14.5232998">
        <ele>421.195</ele>
        <time>2014-12-21T11:49:21Z</time>
      </trkpt>
      <trkpt lat="61.2335997" lon="14.5230862">
        <ele>421.195</ele>
        <time>2014-12-21T11:49:25Z</time>
      </trkpt>
      <trkpt lat="61.2336623" lon="14.5228687">
        <ele>421.675</ele>
        <time>2014-12-21T11:49:29Z</time>
      </trkpt>
      <trkpt lat="61.2337219" lon="14.5226551">
        <ele>421.675</ele>
        <time>2014-12-21T11:49:33Z</time>
      </trkpt>
      <trkpt lat="61.2337738" lon="14.5224365">
        <ele>422.637</ele>
        <time>2014-12-21T11:49:37Z</time>
      </trkpt>
      <trkpt lat="61.2338173" lon="14.5222358">
        <ele>423.117</ele>
        <time>2014-12-21T11:49:41Z</time>
      </trkpt>
      <trkpt lat="61.2338318" lon="14.5221798">
        <ele>423.117</ele>
        <time>2014-12-21T11:49:42Z</time>
      </trkpt>
      <trkpt lat="61.2338863" lon="14.5219269">
        <ele>423.598</ele>
        <time>2014-12-21T11:49:46Z</time>
      </trkpt>
      <trkpt lat="61.2339536" lon="14.5215456">
        <ele>422.637</ele>
        <time>2014-12-21T11:49:52Z</time>
      </trkpt>
      <trkpt lat="61.2339981" lon="14.521195">
        <ele>423.117</ele>
        <time>2014-12-21T11:49:57Z</time>
      </trkpt>
      <trkpt lat="61.2340171" lon="14.5209204">
        <ele>425.04</ele>
        <time>2014-12-21T11:50:01Z</time>
      </trkpt>
      <trkpt lat="61.2340446" lon="14.5206132">
        <ele>426.963</ele>
        <time>2014-12-21T11:50:05Z</time>
      </trkpt>
      <trkpt lat="61.2340982" lon="14.5203069">
        <ele>427.443</ele>
        <time>2014-12-21T11:50:09Z</time>
      </trkpt>
      <trkpt lat="61.2341732" lon="14.519987">
        <ele>427.443</ele>
        <time>2014-12-21T11:50:14Z</time>
      </trkpt>
      <trkpt lat="61.2342298" lon="14.5197254">
        <ele>427.443</ele>
        <time>2014-12-21T11:50:19Z</time>
      </trkpt>
      <trkpt lat="61.2341939" lon="14.5194804">
        <ele>440.902</ele>
        <time>2014-12-21T11:54:19Z</time>
      </trkpt>
      <trkpt lat="61.2341966" lon="14.5194773">
        <ele>440.902</ele>
        <time>2014-12-21T11:54:20Z</time>
      </trkpt>
      <trkpt lat="61.2342028" lon="14.519467">
        <ele>440.902</ele>
        <time>2014-12-21T11:54:21Z</time>
      </trkpt>
      <trkpt lat="61.2342995" lon="14.5192628">
        <ele>439.94</ele>
        <time>2014-12-21T11:54:26Z</time>
      </trkpt>
      <trkpt lat="61.2344079" lon="14.5189054">
        <ele>437.537</ele>
        <time>2014-12-21T11:54:32Z</time>
      </trkpt>
      <trkpt lat="61.2345199" lon="14.5186292">
        <ele>435.134</ele>
        <time>2014-12-21T11:54:37Z</time>
      </trkpt>
      <trkpt lat="61.234642" lon="14.5183433">
        <ele>433.692</ele>
        <time>2014-12-21T11:54:41Z</time>
      </trkpt>
      <trkpt lat="61.2347761" lon="14.517978">
        <ele>430.327</ele>
        <time>2014-12-21T11:54:46Z</time>
      </trkpt>
      <trkpt lat="61.2348283" lon="14.5178331">
        <ele>429.847</ele>
        <time>2014-12-21T11:54:48Z</time>
      </trkpt>
      <trkpt lat="61.2349106" lon="14.5176666">
        <ele>428.885</ele>
        <time>2014-12-21T11:54:51Z</time>
      </trkpt>
      <trkpt lat="61.2350326" lon="14.5174346">
        <ele>428.885</ele>
        <time>2014-12-21T11:54:56Z</time>
      </trkpt>
      <trkpt lat="61.2351532" lon="14.5171524">
        <ele>427.924</ele>
        <time>2014-12-21T11:55:01Z</time>
      </trkpt>
      <trkpt lat="61.2352683" lon="14.5168432">
        <ele>426.963</ele>
        <time>2014-12-21T11:55:06Z</time>
      </trkpt>
      <trkpt lat="61.2353412" lon="14.5166522">
        <ele>425.521</ele>
        <time>2014-12-21T11:55:10Z</time>
      </trkpt>
      <trkpt lat="61.2354408" lon="14.5164997">
        <ele>424.079</ele>
        <time>2014-12-21T11:55:14Z</time>
      </trkpt>
      <trkpt lat="61.235521" lon="14.5162989">
        <ele>423.598</ele>
        <time>2014-12-21T11:55:18Z</time>
      </trkpt>
      <trkpt lat="61.2355952" lon="14.5160988">
        <ele>423.117</ele>
        <time>2014-12-21T11:55:22Z</time>
      </trkpt>
      <trkpt lat="61.2356687" lon="14.5159289">
        <ele>423.117</ele>
        <time>2014-12-21T11:55:25Z</time>
      </trkpt>
      <trkpt lat="61.2357543" lon="14.5156513">
        <ele>423.598</ele>
        <time>2014-12-21T11:55:29Z</time>
      </trkpt>
      <trkpt lat="61.2358674" lon="14.515421">
        <ele>424.079</ele>
        <time>2014-12-21T11:55:33Z</time>
      </trkpt>
      <trkpt lat="61.2359553" lon="14.5151887">
        <ele>425.04</ele>
        <time>2014-12-21T11:55:37Z</time>
      </trkpt>
      <trkpt lat="61.2360355" lon="14.5149675">
        <ele>427.443</ele>
        <time>2014-12-21T11:55:41Z</time>
      </trkpt>
      <trkpt lat="61.2361313" lon="14.5147389">
        <ele>429.366</ele>
        <time>2014-12-21T11:55:45Z</time>
      </trkpt>
      <trkpt lat="61.2362095" lon="14.5145707">
        <ele>430.808</ele>
        <time>2014-12-21T11:55:48Z</time>
      </trkpt>
      <trkpt lat="61.2362795" lon="14.5142951">
        <ele>431.289</ele>
        <time>2014-12-21T11:55:52Z</time>
      </trkpt>
      <trkpt lat="61.2363497" lon="14.5139105">
        <ele>433.211</ele>
        <time>2014-12-21T11:55:57Z</time>
      </trkpt>
      <trkpt lat="61.2364238" lon="14.5136491">
        <ele>435.615</ele>
        <time>2014-12-21T11:56:01Z</time>
      </trkpt>
      <trkpt lat="61.2365569" lon="14.5133326">
        <ele>437.537</ele>
        <time>2014-12-21T11:56:06Z</time>
      </trkpt>
      <trkpt lat="61.2366585" lon="14.5131254">
        <ele>438.979</ele>
        <time>2014-12-21T11:56:10Z</time>
      </trkpt>
      <trkpt lat="61.2367271" lon="14.5129581">
        <ele>438.979</ele>
        <time>2014-12-21T11:56:13Z</time>
      </trkpt>
      <trkpt lat="61.2367753" lon="14.5127762">
        <ele>438.979</ele>
        <time>2014-12-21T11:56:16Z</time>
      </trkpt>
      <trkpt lat="61.2367885" lon="14.512721">
        <ele>438.979</ele>
        <time>2014-12-21T11:56:17Z</time>
      </trkpt>
      <trkpt lat="61.2368771" lon="14.5124924">
        <ele>439.46</ele>
        <time>2014-12-21T11:56:21Z</time>
      </trkpt>
      <trkpt lat="61.2369908" lon="14.512224">
        <ele>439.46</ele>
        <time>2014-12-21T11:56:25Z</time>
      </trkpt>
      <trkpt lat="61.2370921" lon="14.5119695">
        <ele>438.499</ele>
        <time>2014-12-21T11:56:29Z</time>
      </trkpt>
      <trkpt lat="61.2371574" lon="14.5118309">
        <ele>438.499</ele>
        <time>2014-12-21T11:56:31Z</time>
      </trkpt>
      <trkpt lat="61.2372497" lon="14.5114614">
        <ele>440.421</ele>
        <time>2014-12-21T11:56:36Z</time>
      </trkpt>
      <trkpt lat="61.2373153" lon="14.5112922">
        <ele>441.382</ele>
        <time>2014-12-21T11:56:39Z</time>
      </trkpt>
      <trkpt lat="61.2374077" lon="14.5111091">
        <ele>441.863</ele>
        <time>2014-12-21T11:56:43Z</time>
      </trkpt>
      <trkpt lat="61.2374916" lon="14.5108867">
        <ele>440.902</ele>
        <time>2014-12-21T11:56:47Z</time>
      </trkpt>
      <trkpt lat="61.237557" lon="14.5107405">
        <ele>439.94</ele>
        <time>2014-12-21T11:56:50Z</time>
      </trkpt>
      <trkpt lat="61.2376372" lon="14.5105395">
        <ele>439.46</ele>
        <time>2014-12-21T11:56:54Z</time>
      </trkpt>
      <trkpt lat="61.2377162" lon="14.510365">
        <ele>436.576</ele>
        <time>2014-12-21T11:56:58Z</time>
      </trkpt>
      <trkpt lat="61.2377872" lon="14.5101738">
        <ele>436.095</ele>
        <time>2014-12-21T11:57:02Z</time>
      </trkpt>
      <trkpt lat="61.2378635" lon="14.509995">
        <ele>435.615</ele>
        <time>2014-12-21T11:57:06Z</time>
      </trkpt>
      <trkpt lat="61.2379417" lon="14.5098013">
        <ele>435.134</ele>
        <time>2014-12-21T11:57:10Z</time>
      </trkpt>
      <trkpt lat="61.2380166" lon="14.5096157">
        <ele>435.134</ele>
        <time>2014-12-21T11:57:14Z</time>
      </trkpt>
      <trkpt lat="61.2380889" lon="14.5094223">
        <ele>434.653</ele>
        <time>2014-12-21T11:57:18Z</time>
      </trkpt>
      <trkpt lat="61.2381742" lon="14.5092284">
        <ele>434.173</ele>
        <time>2014-12-21T11:57:22Z</time>
      </trkpt>
      <trkpt lat="61.2382437" lon="14.509044">
        <ele>433.692</ele>
        <time>2014-12-21T11:57:26Z</time>
      </trkpt>
      <trkpt lat="61.2383045" lon="14.5087522">
        <ele>437.057</ele>
        <time>2014-12-21T11:57:31Z</time>
      </trkpt>
      <trkpt lat="61.2383867" lon="14.508525">
        <ele>437.057</ele>
        <time>2014-12-21T11:57:36Z</time>
      </trkpt>
      <trkpt lat="61.2384723" lon="14.5082836">
        <ele>437.057</ele>
        <time>2014-12-21T11:57:41Z</time>
      </trkpt>
      <trkpt lat="61.2385394" lon="14.5080882">
        <ele>437.057</ele>
        <time>2014-12-21T11:57:45Z</time>
      </trkpt>
      <trkpt lat="61.2386156" lon="14.507794">
        <ele>441.382</ele>
        <time>2014-12-21T11:57:50Z</time>
      </trkpt>
      <trkpt lat="61.2386712" lon="14.5076328">
        <ele>442.344</ele>
        <time>2014-12-21T11:57:53Z</time>
      </trkpt>
      <trkpt lat="61.2387613" lon="14.5074137">
        <ele>444.266</ele>
        <time>2014-12-21T11:57:57Z</time>
      </trkpt>
      <trkpt lat="61.23886" lon="14.5071542">
        <ele>443.786</ele>
        <time>2014-12-21T11:58:01Z</time>
      </trkpt>
      <trkpt lat="61.238996" lon="14.5068286">
        <ele>443.786</ele>
        <time>2014-12-21T11:58:06Z</time>
      </trkpt>
      <trkpt lat="61.2391244" lon="14.5065177">
        <ele>444.747</ele>
        <time>2014-12-21T11:58:11Z</time>
      </trkpt>
      <trkpt lat="61.2391477" lon="14.5064576">
        <ele>444.747</ele>
        <time>2014-12-21T11:58:12Z</time>
      </trkpt>
      <trkpt lat="61.2393215" lon="14.5061295">
        <ele>444.266</ele>
        <time>2014-12-21T11:58:18Z</time>
      </trkpt>
      <trkpt lat="61.2394325" lon="14.5059671">
        <ele>445.708</ele>
        <time>2014-12-21T11:58:22Z</time>
      </trkpt>
      <trkpt lat="61.2395603" lon="14.5058329">
        <ele>446.189</ele>
        <time>2014-12-21T11:58:26Z</time>
      </trkpt>
      <trkpt lat="61.2397076" lon="14.5056644">
        <ele>446.67</ele>
        <time>2014-12-21T11:58:30Z</time>
      </trkpt>
      <trkpt lat="61.2398537" lon="14.5055129">
        <ele>447.15</ele>
        <time>2014-12-21T11:58:34Z</time>
      </trkpt>
      <trkpt lat="61.2400318" lon="14.5053561">
        <ele>447.631</ele>
        <time>2014-12-21T11:58:39Z</time>
      </trkpt>
      <trkpt lat="61.2400718" lon="14.5053167">
        <ele>447.631</ele>
        <time>2014-12-21T11:58:40Z</time>
      </trkpt>
      <trkpt lat="61.2401905" lon="14.5052216">
        <ele>448.112</ele>
        <time>2014-12-21T11:58:43Z</time>
      </trkpt>
      <trkpt lat="61.2402636" lon="14.5051718">
        <ele>448.112</ele>
        <time>2014-12-21T11:58:45Z</time>
      </trkpt>
      <trkpt lat="61.2404272" lon="14.5049912">
        <ele>449.073</ele>
        <time>2014-12-21T11:58:50Z</time>
      </trkpt>
      <trkpt lat="61.2405691" lon="14.5049032">
        <ele>447.631</ele>
        <time>2014-12-21T11:58:54Z</time>
      </trkpt>
      <trkpt lat="61.2407213" lon="14.5048327">
        <ele>447.15</ele>
        <time>2014-12-21T11:58:58Z</time>
      </trkpt>
      <trkpt lat="61.2408814" lon="14.5047635">
        <ele>446.67</ele>
        <time>2014-12-21T11:59:02Z</time>
      </trkpt>
      <trkpt lat="61.2410601" lon="14.504687">
        <ele>445.708</ele>
        <time>2014-12-21T11:59:07Z</time>
      </trkpt>
      <trkpt lat="61.241212" lon="14.5046534">
        <ele>443.786</ele>
        <time>2014-12-21T11:59:11Z</time>
      </trkpt>
      <trkpt lat="61.241364" lon="14.5046516">
        <ele>443.305</ele>
        <time>2014-12-21T11:59:15Z</time>
      </trkpt>
      <trkpt lat="61.2415472" lon="14.5046394">
        <ele>444.266</ele>
        <time>2014-12-21T11:59:20Z</time>
      </trkpt>
      <trkpt lat="61.2417614" lon="14.5045812">
        <ele>445.228</ele>
        <time>2014-12-21T11:59:26Z</time>
      </trkpt>
      <trkpt lat="61.2419028" lon="14.5045348">
        <ele>446.189</ele>
        <time>2014-12-21T11:59:30Z</time>
      </trkpt>
      <trkpt lat="61.242058" lon="14.5045265">
        <ele>446.189</ele>
        <time>2014-12-21T11:59:34Z</time>
      </trkpt>
      <trkpt lat="61.242232" lon="14.5045351">
        <ele>446.189</ele>
        <time>2014-12-21T11:59:38Z</time>
      </trkpt>
      <trkpt lat="61.2424026" lon="14.5045157">
        <ele>445.228</ele>
        <time>2014-12-21T11:59:42Z</time>
      </trkpt>
      <trkpt lat="61.2425775" lon="14.5044708">
        <ele>443.305</ele>
        <time>2014-12-21T11:59:47Z</time>
      </trkpt>
      <trkpt lat="61.2427271" lon="14.5044698">
        <ele>442.824</ele>
        <time>2014-12-21T11:59:51Z</time>
      </trkpt>
      <trkpt lat="61.2429374" lon="14.5044779">
        <ele>443.305</ele>
        <time>2014-12-21T11:59:56Z</time>
      </trkpt>
      <trkpt lat="61.2430742" lon="14.5044529">
        <ele>444.266</ele>
        <time>2014-12-21T12:00:00Z</time>
      </trkpt>
      <trkpt lat="61.2432342" lon="14.5044591">
        <ele>445.228</ele>
        <time>2014-12-21T12:00:04Z</time>
      </trkpt>
      <trkpt lat="61.2433822" lon="14.5044149">
        <ele>447.15</ele>
        <time>2014-12-21T12:00:08Z</time>
      </trkpt>
      <trkpt lat="61.2435274" lon="14.504288">
        <ele>448.592</ele>
        <time>2014-12-21T12:00:12Z</time>
      </trkpt>
      <trkpt lat="61.2436787" lon="14.504128">
        <ele>449.554</ele>
        <time>2014-12-21T12:00:16Z</time>
      </trkpt>
      <trkpt lat="61.2438324" lon="14.5038514">
        <ele>448.592</ele>
        <time>2014-12-21T12:00:21Z</time>
      </trkpt>
      <trkpt lat="61.2439211" lon="14.5036608">
        <ele>448.592</ele>
        <time>2014-12-21T12:00:24Z</time>
      </trkpt>
      <trkpt lat="61.2439485" lon="14.5035973">
        <ele>448.112</ele>
        <time>2014-12-21T12:00:25Z</time>
      </trkpt>
      <trkpt lat="61.2440474" lon="14.5033641">
        <ele>446.67</ele>
        <time>2014-12-21T12:00:29Z</time>
      </trkpt>
      <trkpt lat="61.2441749" lon="14.5031526">
        <ele>445.708</ele>
        <time>2014-12-21T12:00:34Z</time>
      </trkpt>
      <trkpt lat="61.2442574" lon="14.5030049">
        <ele>445.228</ele>
        <time>2014-12-21T12:00:38Z</time>
      </trkpt>
      <trkpt lat="61.2443758" lon="14.5027531">
        <ele>445.228</ele>
        <time>2014-12-21T12:00:43Z</time>
      </trkpt>
      <trkpt lat="61.2444733" lon="14.502559">
        <ele>446.189</ele>
        <time>2014-12-21T12:00:47Z</time>
      </trkpt>
      <trkpt lat="61.2445774" lon="14.5023348">
        <ele>447.15</ele>
        <time>2014-12-21T12:00:51Z</time>
      </trkpt>
      <trkpt lat="61.2447112" lon="14.5020613">
        <ele>449.073</ele>
        <time>2014-12-21T12:00:56Z</time>
      </trkpt>
      <trkpt lat="61.2448205" lon="14.5018539">
        <ele>449.073</ele>
        <time>2014-12-21T12:01:00Z</time>
      </trkpt>
      <trkpt lat="61.2449324" lon="14.5016009">
        <ele>449.554</ele>
        <time>2014-12-21T12:01:04Z</time>
      </trkpt>
      <trkpt lat="61.2450233" lon="14.5014106">
        <ele>449.554</ele>
        <time>2014-12-21T12:01:07Z</time>
      </trkpt>
      <trkpt lat="61.2451162" lon="14.5011621">
        <ele>450.034</ele>
        <time>2014-12-21T12:01:11Z</time>
      </trkpt>
      <trkpt lat="61.2452115" lon="14.5009667">
        <ele>450.034</ele>
        <time>2014-12-21T12:01:15Z</time>
      </trkpt>
      <trkpt lat="61.2453173" lon="14.5007552">
        <ele>450.515</ele>
        <time>2014-12-21T12:01:19Z</time>
      </trkpt>
      <trkpt lat="61.2454684" lon="14.5004461">
        <ele>449.554</ele>
        <time>2014-12-21T12:01:24Z</time>
      </trkpt>
      <trkpt lat="61.2456144" lon="14.5001423">
        <ele>448.592</ele>
        <time>2014-12-21T12:01:29Z</time>
      </trkpt>
      <trkpt lat="61.245729" lon="14.4999121">
        <ele>447.631</ele>
        <time>2014-12-21T12:01:33Z</time>
      </trkpt>
      <trkpt lat="61.2458379" lon="14.4997101">
        <ele>447.15</ele>
        <time>2014-12-21T12:01:37Z</time>
      </trkpt>
      <trkpt lat="61.245944" lon="14.4995329">
        <ele>447.15</ele>
        <time>2014-12-21T12:01:41Z</time>
      </trkpt>
      <trkpt lat="61.2460446" lon="14.4993138">
        <ele>447.15</ele>
        <time>2014-12-21T12:01:45Z</time>
      </trkpt>
      <trkpt lat="61.2461513" lon="14.499131">
        <ele>447.15</ele>
        <time>2014-12-21T12:01:49Z</time>
      </trkpt>
      <trkpt lat="61.2462501" lon="14.4989465">
        <ele>447.631</ele>
        <time>2014-12-21T12:01:53Z</time>
      </trkpt>
      <trkpt lat="61.2463376" lon="14.4987486">
        <ele>448.592</ele>
        <time>2014-12-21T12:01:57Z</time>
      </trkpt>
      <trkpt lat="61.2464334" lon="14.4985175">
        <ele>449.073</ele>
        <time>2014-12-21T12:02:02Z</time>
      </trkpt>
      <trkpt lat="61.2465146" lon="14.4983171">
        <ele>449.554</ele>
        <time>2014-12-21T12:02:06Z</time>
      </trkpt>
      <trkpt lat="61.2465845" lon="14.4981709">
        <ele>449.554</ele>
        <time>2014-12-21T12:02:10Z</time>
      </trkpt>
      <trkpt lat="61.2467024" lon="14.4979279">
        <ele>449.554</ele>
        <time>2014-12-21T12:02:16Z</time>
      </trkpt>
      <trkpt lat="61.2467752" lon="14.4977592">
        <ele>449.554</ele>
        <time>2014-12-21T12:02:20Z</time>
      </trkpt>
      <trkpt lat="61.2468541" lon="14.4975955">
        <ele>450.034</ele>
        <time>2014-12-21T12:02:24Z</time>
      </trkpt>
      <trkpt lat="61.246936" lon="14.4974079">
        <ele>450.996</ele>
        <time>2014-12-21T12:02:28Z</time>
      </trkpt>
      <trkpt lat="61.2470184" lon="14.4972261">
        <ele>450.996</ele>
        <time>2014-12-21T12:02:32Z</time>
      </trkpt>
      <trkpt lat="61.247131" lon="14.4970045">
        <ele>450.996</ele>
        <time>2014-12-21T12:02:37Z</time>
      </trkpt>
      <trkpt lat="61.2472187" lon="14.4968232">
        <ele>450.996</ele>
        <time>2014-12-21T12:02:41Z</time>
      </trkpt>
      <trkpt lat="61.2473031" lon="14.4966442">
        <ele>450.996</ele>
        <time>2014-12-21T12:02:45Z</time>
      </trkpt>
      <trkpt lat="61.2474073" lon="14.4964342">
        <ele>450.515</ele>
        <time>2014-12-21T12:02:49Z</time>
      </trkpt>
      <trkpt lat="61.2475043" lon="14.4961933">
        <ele>449.073</ele>
        <time>2014-12-21T12:02:53Z</time>
      </trkpt>
      <trkpt lat="61.2476146" lon="14.495953">
        <ele>447.631</ele>
        <time>2014-12-21T12:02:57Z</time>
      </trkpt>
      <trkpt lat="61.2477358" lon="14.495698">
        <ele>445.708</ele>
        <time>2014-12-21T12:03:01Z</time>
      </trkpt>
      <trkpt lat="61.2478278" lon="14.4954975">
        <ele>444.747</ele>
        <time>2014-12-21T12:03:04Z</time>
      </trkpt>
      <trkpt lat="61.2479392" lon="14.4952707">
        <ele>444.266</ele>
        <time>2014-12-21T12:03:08Z</time>
      </trkpt>
      <trkpt lat="61.2479844" lon="14.4951525">
        <ele>443.786</ele>
        <time>2014-12-21T12:03:10Z</time>
      </trkpt>
      <trkpt lat="61.2481293" lon="14.4949136">
        <ele>444.266</ele>
        <time>2014-12-21T12:03:15Z</time>
      </trkpt>
      <trkpt lat="61.2482324" lon="14.494718">
        <ele>444.747</ele>
        <time>2014-12-21T12:03:19Z</time>
      </trkpt>
      <trkpt lat="61.2483608" lon="14.4944523">
        <ele>445.228</ele>
        <time>2014-12-21T12:03:24Z</time>
      </trkpt>
      <trkpt lat="61.2484694" lon="14.4942631">
        <ele>445.708</ele>
        <time>2014-12-21T12:03:28Z</time>
      </trkpt>
      <trkpt lat="61.2486065" lon="14.493999">
        <ele>447.15</ele>
        <time>2014-12-21T12:03:33Z</time>
      </trkpt>
      <trkpt lat="61.2487174" lon="14.4937424">
        <ele>448.112</ele>
        <time>2014-12-21T12:03:37Z</time>
      </trkpt>
      <trkpt lat="61.2488189" lon="14.4934764">
        <ele>447.631</ele>
        <time>2014-12-21T12:03:41Z</time>
      </trkpt>
      <trkpt lat="61.2488918" lon="14.493194">
        <ele>448.112</ele>
        <time>2014-12-21T12:03:45Z</time>
      </trkpt>
      <trkpt lat="61.2489436" lon="14.492913">
        <ele>447.631</ele>
        <time>2014-12-21T12:03:49Z</time>
      </trkpt>
      <trkpt lat="61.2489852" lon="14.4925734">
        <ele>448.592</ele>
        <time>2014-12-21T12:03:54Z</time>
      </trkpt>
      <trkpt lat="61.248999" lon="14.4922911">
        <ele>450.034</ele>
        <time>2014-12-21T12:03:58Z</time>
      </trkpt>
      <trkpt lat="61.2489928" lon="14.4919296">
        <ele>450.034</ele>
        <time>2014-12-21T12:04:03Z</time>
      </trkpt>
      <trkpt lat="61.2489573" lon="14.491509">
        <ele>450.515</ele>
        <time>2014-12-21T12:04:08Z</time>
      </trkpt>
      <trkpt lat="61.2489184" lon="14.4911129">
        <ele>451.476</ele>
        <time>2014-12-21T12:04:13Z</time>
      </trkpt>
      <trkpt lat="61.2488991" lon="14.4908055">
        <ele>451.476</ele>
        <time>2014-12-21T12:04:17Z</time>
      </trkpt>
      <trkpt lat="61.2488829" lon="14.4904878">
        <ele>451.476</ele>
        <time>2014-12-21T12:04:21Z</time>
      </trkpt>
      <trkpt lat="61.2488598" lon="14.4901026">
        <ele>451.957</ele>
        <time>2014-12-21T12:04:26Z</time>
      </trkpt>
      <trkpt lat="61.2488593" lon="14.4896814">
        <ele>452.438</ele>
        <time>2014-12-21T12:04:31Z</time>
      </trkpt>
      <trkpt lat="61.2488706" lon="14.4894542">
        <ele>451.957</ele>
        <time>2014-12-21T12:04:34Z</time>
      </trkpt>
      <trkpt lat="61.248885" lon="14.4892411">
        <ele>451.957</ele>
        <time>2014-12-21T12:04:37Z</time>
      </trkpt>
      <trkpt lat="61.2489112" lon="14.489031">
        <ele>451.476</ele>
        <time>2014-12-21T12:04:40Z</time>
      </trkpt>
      <trkpt lat="61.2489504" lon="14.488749">
        <ele>450.515</ele>
        <time>2014-12-21T12:04:44Z</time>
      </trkpt>
      <trkpt lat="61.2490002" lon="14.4884966">
        <ele>449.554</ele>
        <time>2014-12-21T12:04:48Z</time>
      </trkpt>
      <trkpt lat="61.249049" lon="14.48822">
        <ele>448.592</ele>
        <time>2014-12-21T12:04:52Z</time>
      </trkpt>
      <trkpt lat="61.2491043" lon="14.4879423">
        <ele>447.631</ele>
        <time>2014-12-21T12:04:56Z</time>
      </trkpt>
      <trkpt lat="61.2491634" lon="14.4876689">
        <ele>446.67</ele>
        <time>2014-12-21T12:05:00Z</time>
      </trkpt>
      <trkpt lat="61.2492255" lon="14.4874003">
        <ele>446.67</ele>
        <time>2014-12-21T12:05:04Z</time>
      </trkpt>
      <trkpt lat="61.2492871" lon="14.4871343">
        <ele>446.67</ele>
        <time>2014-12-21T12:05:08Z</time>
      </trkpt>
      <trkpt lat="61.2493525" lon="14.4868353">
        <ele>447.15</ele>
        <time>2014-12-21T12:05:12Z</time>
      </trkpt>
      <trkpt lat="61.2494145" lon="14.4865472">
        <ele>447.15</ele>
        <time>2014-12-21T12:05:16Z</time>
      </trkpt>
      <trkpt lat="61.2494619" lon="14.4862806">
        <ele>448.112</ele>
        <time>2014-12-21T12:05:20Z</time>
      </trkpt>
      <trkpt lat="61.2495078" lon="14.48602">
        <ele>448.112</ele>
        <time>2014-12-21T12:05:24Z</time>
      </trkpt>
      <trkpt lat="61.2495384" lon="14.485836">
        <ele>448.592</ele>
        <time>2014-12-21T12:05:27Z</time>
      </trkpt>
      <trkpt lat="61.2495783" lon="14.4856532">
        <ele>448.592</ele>
        <time>2014-12-21T12:05:31Z</time>
      </trkpt>
      <trkpt lat="61.2496181" lon="14.4853762">
        <ele>449.073</ele>
        <time>2014-12-21T12:05:36Z</time>
      </trkpt>
      <trkpt lat="61.2496574" lon="14.4850501">
        <ele>449.554</ele>
        <time>2014-12-21T12:05:41Z</time>
      </trkpt>
      <trkpt lat="61.2496691" lon="14.4848383">
        <ele>449.554</ele>
        <time>2014-12-21T12:05:44Z</time>
      </trkpt>
      <trkpt lat="61.2497056" lon="14.4846292">
        <ele>449.073</ele>
        <time>2014-12-21T12:05:47Z</time>
      </trkpt>
      <trkpt lat="61.2497053" lon="14.4845692">
        <ele>449.073</ele>
        <time>2014-12-21T12:05:48Z</time>
      </trkpt>
      <trkpt lat="61.2496937" lon="14.4841745">
        <ele>450.034</ele>
        <time>2014-12-21T12:05:54Z</time>
      </trkpt>
      <trkpt lat="61.2496871" lon="14.4839123">
        <ele>450.034</ele>
        <time>2014-12-21T12:05:58Z</time>
      </trkpt>
      <trkpt lat="61.2496736" lon="14.4835863">
        <ele>450.515</ele>
        <time>2014-12-21T12:06:03Z</time>
      </trkpt>
      <trkpt lat="61.2496586" lon="14.4833208">
        <ele>450.515</ele>
        <time>2014-12-21T12:06:07Z</time>
      </trkpt>
      <trkpt lat="61.24964" lon="14.4829773">
        <ele>449.554</ele>
        <time>2014-12-21T12:06:12Z</time>
      </trkpt>
      <trkpt lat="61.2496284" lon="14.4826908">
        <ele>449.073</ele>
        <time>2014-12-21T12:06:16Z</time>
      </trkpt>
      <trkpt lat="61.2496125" lon="14.4823967">
        <ele>449.073</ele>
        <time>2014-12-21T12:06:20Z</time>
      </trkpt>
      <trkpt lat="61.2495954" lon="14.4820687">
        <ele>450.034</ele>
        <time>2014-12-21T12:06:25Z</time>
      </trkpt>
      <trkpt lat="61.2495774" lon="14.4817908">
        <ele>450.515</ele>
        <time>2014-12-21T12:06:29Z</time>
      </trkpt>
      <trkpt lat="61.249566" lon="14.4815155">
        <ele>450.996</ele>
        <time>2014-12-21T12:06:33Z</time>
      </trkpt>
      <trkpt lat="61.2495541" lon="14.4811651">
        <ele>451.476</ele>
        <time>2014-12-21T12:06:38Z</time>
      </trkpt>
      <trkpt lat="61.2495377" lon="14.4808229">
        <ele>451.476</ele>
        <time>2014-12-21T12:06:42Z</time>
      </trkpt>
      <trkpt lat="61.2495074" lon="14.4803626">
        <ele>449.554</ele>
        <time>2014-12-21T12:06:47Z</time>
      </trkpt>
      <trkpt lat="61.2495043" lon="14.4802712">
        <ele>449.554</ele>
        <time>2014-12-21T12:06:48Z</time>
      </trkpt>
      <trkpt lat="61.2494893" lon="14.4798775">
        <ele>448.592</ele>
        <time>2014-12-21T12:06:53Z</time>
      </trkpt>
      <trkpt lat="61.249498" lon="14.4793631">
        <ele>449.554</ele>
        <time>2014-12-21T12:07:00Z</time>
      </trkpt>
      <trkpt lat="61.2494902" lon="14.4790792">
        <ele>450.034</ele>
        <time>2014-12-21T12:07:04Z</time>
      </trkpt>
      <trkpt lat="61.2494945" lon="14.4788341">
        <ele>450.515</ele>
        <time>2014-12-21T12:07:08Z</time>
      </trkpt>
      <trkpt lat="61.2495032" lon="14.4785782">
        <ele>450.515</ele>
        <time>2014-12-21T12:07:12Z</time>
      </trkpt>
      <trkpt lat="61.2495229" lon="14.4782973">
        <ele>450.034</ele>
        <time>2014-12-21T12:07:16Z</time>
      </trkpt>
      <trkpt lat="61.2495347" lon="14.4779204">
        <ele>449.073</ele>
        <time>2014-12-21T12:07:20Z</time>
      </trkpt>
      <trkpt lat="61.2495479" lon="14.4775899">
        <ele>447.631</ele>
        <time>2014-12-21T12:07:23Z</time>
      </trkpt>
      <trkpt lat="61.2495628" lon="14.4771403">
        <ele>445.228</ele>
        <time>2014-12-21T12:07:28Z</time>
      </trkpt>
      <trkpt lat="61.2495867" lon="14.4767399">
        <ele>444.747</ele>
        <time>2014-12-21T12:07:33Z</time>
      </trkpt>
      <trkpt lat="61.2495882" lon="14.4766574">
        <ele>444.747</ele>
        <time>2014-12-21T12:07:34Z</time>
      </trkpt>
      <trkpt lat="61.2495617" lon="14.4761813">
        <ele>444.747</ele>
        <time>2014-12-21T12:07:40Z</time>
      </trkpt>
      <trkpt lat="61.2495377" lon="14.4758785">
        <ele>444.747</ele>
        <time>2014-12-21T12:07:44Z</time>
      </trkpt>
      <trkpt lat="61.2494974" lon="14.4755883">
        <ele>445.228</ele>
        <time>2014-12-21T12:07:48Z</time>
      </trkpt>
      <trkpt lat="61.2494647" lon="14.4752843">
        <ele>445.708</ele>
        <time>2014-12-21T12:07:53Z</time>
      </trkpt>
      <trkpt lat="61.2494296" lon="14.4749735">
        <ele>446.189</ele>
        <time>2014-12-21T12:07:58Z</time>
      </trkpt>
      <trkpt lat="61.2493956" lon="14.4746661">
        <ele>447.15</ele>
        <time>2014-12-21T12:08:03Z</time>
      </trkpt>
      <trkpt lat="61.2493555" lon="14.4744112">
        <ele>448.112</ele>
        <time>2014-12-21T12:08:07Z</time>
      </trkpt>
      <trkpt lat="61.2493191" lon="14.4741985">
        <ele>448.592</ele>
        <time>2014-12-21T12:08:10Z</time>
      </trkpt>
      <trkpt lat="61.2492863" lon="14.4739575">
        <ele>449.073</ele>
        <time>2014-12-21T12:08:14Z</time>
      </trkpt>
      <trkpt lat="61.2492575" lon="14.473722">
        <ele>449.073</ele>
        <time>2014-12-21T12:08:18Z</time>
      </trkpt>
      <trkpt lat="61.2492218" lon="14.473474">
        <ele>449.554</ele>
        <time>2014-12-21T12:08:22Z</time>
      </trkpt>
      <trkpt lat="61.2491831" lon="14.4731892">
        <ele>449.554</ele>
        <time>2014-12-21T12:08:26Z</time>
      </trkpt>
      <trkpt lat="61.2491353" lon="14.4728469">
        <ele>450.034</ele>
        <time>2014-12-21T12:08:31Z</time>
      </trkpt>
      <trkpt lat="61.2490941" lon="14.4725559">
        <ele>450.034</ele>
        <time>2014-12-21T12:08:35Z</time>
      </trkpt>
      <trkpt lat="61.2490537" lon="14.4722534">
        <ele>449.073</ele>
        <time>2014-12-21T12:08:39Z</time>
      </trkpt>
      <trkpt lat="61.2490178" lon="14.4719416">
        <ele>448.112</ele>
        <time>2014-12-21T12:08:43Z</time>
      </trkpt>
      <trkpt lat="61.2489743" lon="14.4716472">
        <ele>448.112</ele>
        <time>2014-12-21T12:08:47Z</time>
      </trkpt>
      <trkpt lat="61.2489423" lon="14.4713947">
        <ele>448.112</ele>
        <time>2014-12-21T12:08:51Z</time>
      </trkpt>
      <trkpt lat="61.2489063" lon="14.4711966">
        <ele>449.073</ele>
        <time>2014-12-21T12:08:55Z</time>
      </trkpt>
      <trkpt lat="61.2489026" lon="14.4711437">
        <ele>449.073</ele>
        <time>2014-12-21T12:08:56Z</time>
      </trkpt>
      <trkpt lat="61.2488705" lon="14.4708931">
        <ele>449.554</ele>
        <time>2014-12-21T12:09:00Z</time>
      </trkpt>
      <trkpt lat="61.2488327" lon="14.4705766">
        <ele>449.073</ele>
        <time>2014-12-21T12:09:05Z</time>
      </trkpt>
      <trkpt lat="61.2488037" lon="14.4703155">
        <ele>448.592</ele>
        <time>2014-12-21T12:09:10Z</time>
      </trkpt>
      <trkpt lat="61.2487701" lon="14.4700296">
        <ele>449.554</ele>
        <time>2014-12-21T12:09:16Z</time>
      </trkpt>
      <trkpt lat="61.2487308" lon="14.4698245">
        <ele>450.515</ele>
        <time>2014-12-21T12:09:20Z</time>
      </trkpt>
      <trkpt lat="61.2487014" lon="14.4695929">
        <ele>450.515</ele>
        <time>2014-12-21T12:09:24Z</time>
      </trkpt>
      <trkpt lat="61.248678" lon="14.4693519">
        <ele>450.515</ele>
        <time>2014-12-21T12:09:28Z</time>
      </trkpt>
      <trkpt lat="61.2486148" lon="14.4691043">
        <ele>453.399</ele>
        <time>2014-12-21T12:09:49Z</time>
      </trkpt>
      <trkpt lat="61.2486536" lon="14.469411">
        <ele>452.438</ele>
        <time>2014-12-21T12:09:54Z</time>
      </trkpt>
      <trkpt lat="61.248697" lon="14.4696889">
        <ele>452.918</ele>
        <time>2014-12-21T12:09:59Z</time>
      </trkpt>
      <trkpt lat="61.248731" lon="14.4699338">
        <ele>452.918</ele>
        <time>2014-12-21T12:10:03Z</time>
      </trkpt>
      <trkpt lat="61.2487785" lon="14.4702276">
        <ele>452.438</ele>
        <time>2014-12-21T12:10:07Z</time>
      </trkpt>
      <trkpt lat="61.2488552" lon="14.4706367">
        <ele>451.476</ele>
        <time>2014-12-21T12:10:11Z</time>
      </trkpt>
      <trkpt lat="61.2489842" lon="14.4716763">
        <ele>450.034</ele>
        <time>2014-12-21T12:10:19Z</time>
      </trkpt>
      <trkpt lat="61.249014" lon="14.4719311">
        <ele>450.034</ele>
        <time>2014-12-21T12:10:21Z</time>
      </trkpt>
      <trkpt lat="61.2490856" lon="14.4725019">
        <ele>448.592</ele>
        <time>2014-12-21T12:10:26Z</time>
      </trkpt>
      <trkpt lat="61.249124" lon="14.4726914">
        <ele>448.112</ele>
        <time>2014-12-21T12:10:28Z</time>
      </trkpt>
      <trkpt lat="61.2491758" lon="14.4729377">
        <ele>446.67</ele>
        <time>2014-12-21T12:10:31Z</time>
      </trkpt>
      <trkpt lat="61.2492105" lon="14.4731722">
        <ele>446.189</ele>
        <time>2014-12-21T12:10:34Z</time>
      </trkpt>
      <trkpt lat="61.2492768" lon="14.4735376">
        <ele>444.266</ele>
        <time>2014-12-21T12:10:39Z</time>
      </trkpt>
      <trkpt lat="61.2493043" lon="14.4738208">
        <ele>440.902</ele>
        <time>2014-12-21T12:10:43Z</time>
      </trkpt>
      <trkpt lat="61.2493453" lon="14.4742321">
        <ele>437.057</ele>
        <time>2014-12-21T12:10:48Z</time>
      </trkpt>
      <trkpt lat="61.2494042" lon="14.4745879">
        <ele>435.615</ele>
        <time>2014-12-21T12:10:52Z</time>
      </trkpt>
      <trkpt lat="61.2494705" lon="14.4751886">
        <ele>434.173</ele>
        <time>2014-12-21T12:10:57Z</time>
      </trkpt>
      <trkpt lat="61.2495344" lon="14.4757381">
        <ele>434.173</ele>
        <time>2014-12-21T12:11:01Z</time>
      </trkpt>
      <trkpt lat="61.249562" lon="14.4761322">
        <ele>436.095</ele>
        <time>2014-12-21T12:11:04Z</time>
      </trkpt>
      <trkpt lat="61.2495789" lon="14.4763592">
        <ele>436.576</ele>
        <time>2014-12-21T12:11:06Z</time>
      </trkpt>
      <trkpt lat="61.2495991" lon="14.4766612">
        <ele>437.537</ele>
        <time>2014-12-21T12:11:09Z</time>
      </trkpt>
      <trkpt lat="61.2495709" lon="14.4771268">
        <ele>436.095</ele>
        <time>2014-12-21T12:11:14Z</time>
      </trkpt>
      <trkpt lat="61.2495506" lon="14.4774832">
        <ele>435.134</ele>
        <time>2014-12-21T12:11:18Z</time>
      </trkpt>
      <trkpt lat="61.2495483" lon="14.477725">
        <ele>434.653</ele>
        <time>2014-12-21T12:11:21Z</time>
      </trkpt>
      <trkpt lat="61.249513" lon="14.4781784">
        <ele>433.211</ele>
        <time>2014-12-21T12:11:27Z</time>
      </trkpt>
      <trkpt lat="61.2494825" lon="14.478588">
        <ele>434.173</ele>
        <time>2014-12-21T12:11:33Z</time>
      </trkpt>
      <trkpt lat="61.2494779" lon="14.4788399">
        <ele>434.653</ele>
        <time>2014-12-21T12:11:36Z</time>
      </trkpt>
      <trkpt lat="61.2494828" lon="14.4792599">
        <ele>433.211</ele>
        <time>2014-12-21T12:11:41Z</time>
      </trkpt>
      <trkpt lat="61.249486" lon="14.4797004">
        <ele>431.769</ele>
        <time>2014-12-21T12:11:46Z</time>
      </trkpt>
      <trkpt lat="61.2494992" lon="14.4799425">
        <ele>430.808</ele>
        <time>2014-12-21T12:11:49Z</time>
      </trkpt>
      <trkpt lat="61.2495058" lon="14.4803032">
        <ele>430.808</ele>
        <time>2014-12-21T12:11:54Z</time>
      </trkpt>
      <trkpt lat="61.2495066" lon="14.4805956">
        <ele>432.25</ele>
        <time>2014-12-21T12:11:58Z</time>
      </trkpt>
      <trkpt lat="61.2495053" lon="14.4808265">
        <ele>432.731</ele>
        <time>2014-12-21T12:12:01Z</time>
      </trkpt>
      <trkpt lat="61.2495185" lon="14.4811752">
        <ele>434.173</ele>
        <time>2014-12-21T12:12:06Z</time>
      </trkpt>
      <trkpt lat="61.2495156" lon="14.4814786">
        <ele>435.134</ele>
        <time>2014-12-21T12:12:10Z</time>
      </trkpt>
      <trkpt lat="61.2495304" lon="14.481817">
        <ele>435.615</ele>
        <time>2014-12-21T12:12:15Z</time>
      </trkpt>
      <trkpt lat="61.2495533" lon="14.4821298">
        <ele>435.615</ele>
        <time>2014-12-21T12:12:19Z</time>
      </trkpt>
      <trkpt lat="61.2495826" lon="14.482484">
        <ele>435.615</ele>
        <time>2014-12-21T12:12:23Z</time>
      </trkpt>
      <trkpt lat="61.2495954" lon="14.4828762">
        <ele>436.095</ele>
        <time>2014-12-21T12:12:27Z</time>
      </trkpt>
      <trkpt lat="61.2496265" lon="14.4832495">
        <ele>435.615</ele>
        <time>2014-12-21T12:12:31Z</time>
      </trkpt>
      <trkpt lat="61.2496374" lon="14.4835171">
        <ele>435.134</ele>
        <time>2014-12-21T12:12:34Z</time>
      </trkpt>
      <trkpt lat="61.2496549" lon="14.483773">
        <ele>434.653</ele>
        <time>2014-12-21T12:12:37Z</time>
      </trkpt>
      <trkpt lat="61.2496927" lon="14.484234">
        <ele>434.653</ele>
        <time>2014-12-21T12:12:41Z</time>
      </trkpt>
      <trkpt lat="61.2496999" lon="14.4845561">
        <ele>433.211</ele>
        <time>2014-12-21T12:12:44Z</time>
      </trkpt>
      <trkpt lat="61.2496649" lon="14.4850833">
        <ele>431.769</ele>
        <time>2014-12-21T12:12:49Z</time>
      </trkpt>
      <trkpt lat="61.2496473" lon="14.4853621">
        <ele>430.808</ele>
        <time>2014-12-21T12:12:52Z</time>
      </trkpt>
      <trkpt lat="61.2496227" lon="14.4855446">
        <ele>430.327</ele>
        <time>2014-12-21T12:12:54Z</time>
      </trkpt>
      <trkpt lat="61.2496094" lon="14.4856393">
        <ele>429.847</ele>
        <time>2014-12-21T12:12:55Z</time>
      </trkpt>
      <trkpt lat="61.2494897" lon="14.4861336">
        <ele>431.289</ele>
        <time>2014-12-21T12:13:00Z</time>
      </trkpt>
      <trkpt lat="61.2494668" lon="14.4862348">
        <ele>431.289</ele>
        <time>2014-12-21T12:13:01Z</time>
      </trkpt>
      <trkpt lat="61.2493909" lon="14.4865982">
        <ele>431.769</ele>
        <time>2014-12-21T12:13:05Z</time>
      </trkpt>
      <trkpt lat="61.2492933" lon="14.4870224">
        <ele>431.289</ele>
        <time>2014-12-21T12:13:10Z</time>
      </trkpt>
      <trkpt lat="61.249222" lon="14.4873819">
        <ele>431.769</ele>
        <time>2014-12-21T12:13:15Z</time>
      </trkpt>
      <trkpt lat="61.2492049" lon="14.4874524">
        <ele>431.769</ele>
        <time>2014-12-21T12:13:16Z</time>
      </trkpt>
      <trkpt lat="61.2491453" lon="14.4876719">
        <ele>432.25</ele>
        <time>2014-12-21T12:13:19Z</time>
      </trkpt>
      <trkpt lat="61.2490519" lon="14.4880641">
        <ele>434.653</ele>
        <time>2014-12-21T12:13:25Z</time>
      </trkpt>
      <trkpt lat="61.2489738" lon="14.4884231">
        <ele>436.095</ele>
        <time>2014-12-21T12:13:30Z</time>
      </trkpt>
      <trkpt lat="61.2489226" lon="14.4887489">
        <ele>436.095</ele>
        <time>2014-12-21T12:13:34Z</time>
      </trkpt>
      <trkpt lat="61.2488736" lon="14.4890158">
        <ele>436.576</ele>
        <time>2014-12-21T12:13:38Z</time>
      </trkpt>
      <trkpt lat="61.2488276" lon="14.4893722">
        <ele>438.018</ele>
        <time>2014-12-21T12:13:43Z</time>
      </trkpt>
      <trkpt lat="61.2488199" lon="14.4896656">
        <ele>438.499</ele>
        <time>2014-12-21T12:13:47Z</time>
      </trkpt>
      <trkpt lat="61.2488333" lon="14.4900332">
        <ele>438.018</ele>
        <time>2014-12-21T12:13:52Z</time>
      </trkpt>
      <trkpt lat="61.2488531" lon="14.4903512">
        <ele>436.576</ele>
        <time>2014-12-21T12:13:56Z</time>
      </trkpt>
      <trkpt lat="61.2488702" lon="14.4907236">
        <ele>436.095</ele>
        <time>2014-12-21T12:14:01Z</time>
      </trkpt>
      <trkpt lat="61.2488717" lon="14.4910437">
        <ele>436.095</ele>
        <time>2014-12-21T12:14:05Z</time>
      </trkpt>
      <trkpt lat="61.2489033" lon="14.4914969">
        <ele>433.211</ele>
        <time>2014-12-21T12:14:10Z</time>
      </trkpt>
      <trkpt lat="61.2489456" lon="14.4917906">
        <ele>430.327</ele>
        <time>2014-12-21T12:14:14Z</time>
      </trkpt>
      <trkpt lat="61.2489643" lon="14.4920524">
        <ele>428.885</ele>
        <time>2014-12-21T12:14:18Z</time>
      </trkpt>
      <trkpt lat="61.2489441" lon="14.4923719">
        <ele>428.405</ele>
        <time>2014-12-21T12:14:22Z</time>
      </trkpt>
      <trkpt lat="61.2488931" lon="14.4928117">
        <ele>426.963</ele>
        <time>2014-12-21T12:14:27Z</time>
      </trkpt>
      <trkpt lat="61.2488719" lon="14.4929059">
        <ele>426.963</ele>
        <time>2014-12-21T12:14:28Z</time>
      </trkpt>
      <trkpt lat="61.2487557" lon="14.4934008">
        <ele>426.963</ele>
        <time>2014-12-21T12:14:34Z</time>
      </trkpt>
      <trkpt lat="61.2486472" lon="14.4937112">
        <ele>431.769</ele>
        <time>2014-12-21T12:14:39Z</time>
      </trkpt>
      <trkpt lat="61.2486252" lon="14.4937684">
        <ele>432.25</ele>
        <time>2014-12-21T12:14:40Z</time>
      </trkpt>
      <trkpt lat="61.2484351" lon="14.4941382">
        <ele>438.018</ele>
        <time>2014-12-21T12:14:47Z</time>
      </trkpt>
      <trkpt lat="61.2483079" lon="14.4944095">
        <ele>439.94</ele>
        <time>2014-12-21T12:14:51Z</time>
      </trkpt>
      <trkpt lat="61.2482789" lon="14.4944862">
        <ele>440.421</ele>
        <time>2014-12-21T12:14:52Z</time>
      </trkpt>
      <trkpt lat="61.2480776" lon="14.4949045">
        <ele>442.344</ele>
        <time>2014-12-21T12:14:58Z</time>
      </trkpt>
      <trkpt lat="61.2479138" lon="14.4952395">
        <ele>442.824</ele>
        <time>2014-12-21T12:15:03Z</time>
      </trkpt>
      <trkpt lat="61.2478026" lon="14.495495">
        <ele>442.824</ele>
        <time>2014-12-21T12:15:07Z</time>
      </trkpt>
      <trkpt lat="61.2477492" lon="14.4955923">
        <ele>442.824</ele>
        <time>2014-12-21T12:15:09Z</time>
      </trkpt>
      <trkpt lat="61.2476937" lon="14.4956831">
        <ele>442.344</ele>
        <time>2014-12-21T12:15:11Z</time>
      </trkpt>
      <trkpt lat="61.2475803" lon="14.4959296">
        <ele>441.863</ele>
        <time>2014-12-21T12:15:16Z</time>
      </trkpt>
      <trkpt lat="61.2474649" lon="14.4961772">
        <ele>441.863</ele>
        <time>2014-12-21T12:15:21Z</time>
      </trkpt>
      <trkpt lat="61.2473486" lon="14.4964134">
        <ele>443.305</ele>
        <time>2014-12-21T12:15:26Z</time>
      </trkpt>
      <trkpt lat="61.2472478" lon="14.4966227">
        <ele>444.266</ele>
        <time>2014-12-21T12:15:31Z</time>
      </trkpt>
      <trkpt lat="61.2471403" lon="14.4968452">
        <ele>445.708</ele>
        <time>2014-12-21T12:15:36Z</time>
      </trkpt>
      <trkpt lat="61.2470256" lon="14.4970929">
        <ele>445.708</ele>
        <time>2014-12-21T12:15:40Z</time>
      </trkpt>
      <trkpt lat="61.2469126" lon="14.4973603">
        <ele>445.708</ele>
        <time>2014-12-21T12:15:44Z</time>
      </trkpt>
      <trkpt lat="61.2467426" lon="14.4976994">
        <ele>444.266</ele>
        <time>2014-12-21T12:15:49Z</time>
      </trkpt>
      <trkpt lat="61.2465317" lon="14.4981652">
        <ele>442.824</ele>
        <time>2014-12-21T12:15:55Z</time>
      </trkpt>
      <trkpt lat="61.2464567" lon="14.4983253">
        <ele>442.824</ele>
        <time>2014-12-21T12:15:57Z</time>
      </trkpt>
      <trkpt lat="61.2463478" lon="14.4985596">
        <ele>442.344</ele>
        <time>2014-12-21T12:16:00Z</time>
      </trkpt>
      <trkpt lat="61.2461895" lon="14.4989126">
        <ele>440.421</ele>
        <time>2014-12-21T12:16:04Z</time>
      </trkpt>
      <trkpt lat="61.2459616" lon="14.4994166">
        <ele>437.057</ele>
        <time>2014-12-21T12:16:10Z</time>
      </trkpt>
      <trkpt lat="61.2458513" lon="14.4996557">
        <ele>436.095</ele>
        <time>2014-12-21T12:16:13Z</time>
      </trkpt>
      <trkpt lat="61.245614" lon="14.5001239">
        <ele>435.615</ele>
        <time>2014-12-21T12:16:21Z</time>
      </trkpt>
      <trkpt lat="61.2454456" lon="14.5004341">
        <ele>436.576</ele>
        <time>2014-12-21T12:16:27Z</time>
      </trkpt>
      <trkpt lat="61.2453352" lon="14.5006451">
        <ele>438.018</ele>
        <time>2014-12-21T12:16:31Z</time>
      </trkpt>
      <trkpt lat="61.2452876" lon="14.5007344">
        <ele>437.537</ele>
        <time>2014-12-21T12:16:33Z</time>
      </trkpt>
      <trkpt lat="61.2452384" lon="14.5008236">
        <ele>438.499</ele>
        <time>2014-12-21T12:16:35Z</time>
      </trkpt>
      <trkpt lat="61.2451277" lon="14.5010667">
        <ele>440.902</ele>
        <time>2014-12-21T12:16:40Z</time>
      </trkpt>
      <trkpt lat="61.245009" lon="14.5013229">
        <ele>442.344</ele>
        <time>2014-12-21T12:16:45Z</time>
      </trkpt>
      <trkpt lat="61.244911" lon="14.5015215">
        <ele>442.824</ele>
        <time>2014-12-21T12:16:49Z</time>
      </trkpt>
      <trkpt lat="61.2447773" lon="14.5018262">
        <ele>444.747</ele>
        <time>2014-12-21T12:16:54Z</time>
      </trkpt>
      <trkpt lat="61.2446669" lon="14.5020546">
        <ele>445.228</ele>
        <time>2014-12-21T12:16:58Z</time>
      </trkpt>
      <trkpt lat="61.2445811" lon="14.5022339">
        <ele>444.266</ele>
        <time>2014-12-21T12:17:01Z</time>
      </trkpt>
      <trkpt lat="61.2444717" lon="14.5024177">
        <ele>442.824</ele>
        <time>2014-12-21T12:17:05Z</time>
      </trkpt>
      <trkpt lat="61.2443744" lon="14.5026445">
        <ele>440.902</ele>
        <time>2014-12-21T12:17:09Z</time>
      </trkpt>
      <trkpt lat="61.2442769" lon="14.5028414">
        <ele>439.94</ele>
        <time>2014-12-21T12:17:13Z</time>
      </trkpt>
      <trkpt lat="61.2441523" lon="14.5030553">
        <ele>438.979</ele>
        <time>2014-12-21T12:17:18Z</time>
      </trkpt>
      <trkpt lat="61.2439754" lon="14.503384">
        <ele>438.979</ele>
        <time>2014-12-21T12:17:23Z</time>
      </trkpt>
      <trkpt lat="61.2439408" lon="14.5034613">
        <ele>438.499</ele>
        <time>2014-12-21T12:17:24Z</time>
      </trkpt>
      <trkpt lat="61.2437464" lon="14.5039034">
        <ele>437.057</ele>
        <time>2014-12-21T12:17:30Z</time>
      </trkpt>
      <trkpt lat="61.2437238" lon="14.5039587">
        <ele>437.057</ele>
        <time>2014-12-21T12:17:31Z</time>
      </trkpt>
      <trkpt lat="61.2436787" lon="14.5040593">
        <ele>437.537</ele>
        <time>2014-12-21T12:17:33Z</time>
      </trkpt>
      <trkpt lat="61.2435783" lon="14.504236">
        <ele>438.979</ele>
        <time>2014-12-21T12:17:37Z</time>
      </trkpt>
      <trkpt lat="61.2434568" lon="14.504394">
        <ele>439.46</ele>
        <time>2014-12-21T12:17:41Z</time>
      </trkpt>
      <trkpt lat="61.2433302" lon="14.5045027">
        <ele>440.902</ele>
        <time>2014-12-21T12:17:45Z</time>
      </trkpt>
      <trkpt lat="61.2432395" lon="14.5045176">
        <ele>441.382</ele>
        <time>2014-12-21T12:17:48Z</time>
      </trkpt>
      <trkpt lat="61.2431087" lon="14.5045295">
        <ele>440.902</ele>
        <time>2014-12-21T12:17:52Z</time>
      </trkpt>
      <trkpt lat="61.242953" lon="14.5045328">
        <ele>441.382</ele>
        <time>2014-12-21T12:17:56Z</time>
      </trkpt>
      <trkpt lat="61.2427845" lon="14.5045498">
        <ele>442.344</ele>
        <time>2014-12-21T12:18:00Z</time>
      </trkpt>
      <trkpt lat="61.2426288" lon="14.5045634">
        <ele>442.824</ele>
        <time>2014-12-21T12:18:04Z</time>
      </trkpt>
      <trkpt lat="61.2425452" lon="14.5045777">
        <ele>443.786</ele>
        <time>2014-12-21T12:18:06Z</time>
      </trkpt>
      <trkpt lat="61.2423221" lon="14.5046063">
        <ele>443.786</ele>
        <time>2014-12-21T12:18:12Z</time>
      </trkpt>
      <trkpt lat="61.2422146" lon="14.504616">
        <ele>444.266</ele>
        <time>2014-12-21T12:18:15Z</time>
      </trkpt>
      <trkpt lat="61.2420515" lon="14.5046032">
        <ele>444.266</ele>
        <time>2014-12-21T12:18:20Z</time>
      </trkpt>
      <trkpt lat="61.2418912" lon="14.5046084">
        <ele>445.228</ele>
        <time>2014-12-21T12:18:25Z</time>
      </trkpt>
      <trkpt lat="61.2417113" lon="14.5046188">
        <ele>445.708</ele>
        <time>2014-12-21T12:18:30Z</time>
      </trkpt>
      <trkpt lat="61.2415726" lon="14.5046234">
        <ele>445.228</ele>
        <time>2014-12-21T12:18:34Z</time>
      </trkpt>
      <trkpt lat="61.2414122" lon="14.5046296">
        <ele>445.228</ele>
        <time>2014-12-21T12:18:38Z</time>
      </trkpt>
      <trkpt lat="61.2412233" lon="14.5046353">
        <ele>445.228</ele>
        <time>2014-12-21T12:18:43Z</time>
      </trkpt>
      <trkpt lat="61.2410721" lon="14.5046621">
        <ele>446.189</ele>
        <time>2014-12-21T12:18:47Z</time>
      </trkpt>
      <trkpt lat="61.2408845" lon="14.504717">
        <ele>446.67</ele>
        <time>2014-12-21T12:18:52Z</time>
      </trkpt>
      <trkpt lat="61.240737" lon="14.5047859">
        <ele>447.631</ele>
        <time>2014-12-21T12:18:56Z</time>
      </trkpt>
      <trkpt lat="61.2405906" lon="14.5048559">
        <ele>447.631</ele>
        <time>2014-12-21T12:19:00Z</time>
      </trkpt>
      <trkpt lat="61.2404194" lon="14.5049495">
        <ele>448.112</ele>
        <time>2014-12-21T12:19:05Z</time>
      </trkpt>
      <trkpt lat="61.2402862" lon="14.5050383">
        <ele>448.112</ele>
        <time>2014-12-21T12:19:09Z</time>
      </trkpt>
      <trkpt lat="61.2401104" lon="14.5051782">
        <ele>448.592</ele>
        <time>2014-12-21T12:19:14Z</time>
      </trkpt>
      <trkpt lat="61.2399779" lon="14.5052941">
        <ele>448.592</ele>
        <time>2014-12-21T12:19:18Z</time>
      </trkpt>
      <trkpt lat="61.2398469" lon="14.5054106">
        <ele>448.112</ele>
        <time>2014-12-21T12:19:22Z</time>
      </trkpt>
      <trkpt lat="61.2397224" lon="14.5055489">
        <ele>447.15</ele>
        <time>2014-12-21T12:19:26Z</time>
      </trkpt>
      <trkpt lat="61.239575" lon="14.5057319">
        <ele>448.112</ele>
        <time>2014-12-21T12:19:31Z</time>
      </trkpt>
      <trkpt lat="61.2394554" lon="14.5058807">
        <ele>448.592</ele>
        <time>2014-12-21T12:19:35Z</time>
      </trkpt>
      <trkpt lat="61.2392787" lon="14.5061358">
        <ele>449.073</ele>
        <time>2014-12-21T12:19:42Z</time>
      </trkpt>
      <trkpt lat="61.2391444" lon="14.5063689">
        <ele>448.112</ele>
        <time>2014-12-21T12:19:47Z</time>
      </trkpt>
      <trkpt lat="61.2390434" lon="14.506567">
        <ele>448.112</ele>
        <time>2014-12-21T12:19:51Z</time>
      </trkpt>
      <trkpt lat="61.2389286" lon="14.5068202">
        <ele>448.112</ele>
        <time>2014-12-21T12:19:56Z</time>
      </trkpt>
      <trkpt lat="61.238811" lon="14.5070703">
        <ele>448.112</ele>
        <time>2014-12-21T12:20:01Z</time>
      </trkpt>
      <trkpt lat="61.2387287" lon="14.5072665">
        <ele>447.631</ele>
        <time>2014-12-21T12:20:05Z</time>
      </trkpt>
      <trkpt lat="61.2386404" lon="14.507473">
        <ele>446.189</ele>
        <time>2014-12-21T12:20:09Z</time>
      </trkpt>
      <trkpt lat="61.2385642" lon="14.5076173">
        <ele>444.266</ele>
        <time>2014-12-21T12:20:13Z</time>
      </trkpt>
      <trkpt lat="61.23848" lon="14.5078361">
        <ele>443.786</ele>
        <time>2014-12-21T12:20:18Z</time>
      </trkpt>
      <trkpt lat="61.2383998" lon="14.5080537">
        <ele>444.266</ele>
        <time>2014-12-21T12:20:23Z</time>
      </trkpt>
      <trkpt lat="61.2383225" lon="14.5083001">
        <ele>444.747</ele>
        <time>2014-12-21T12:20:27Z</time>
      </trkpt>
      <trkpt lat="61.2381893" lon="14.5086123">
        <ele>444.747</ele>
        <time>2014-12-21T12:20:32Z</time>
      </trkpt>
      <trkpt lat="61.2380837" lon="14.5089098">
        <ele>444.747</ele>
        <time>2014-12-21T12:20:36Z</time>
      </trkpt>
      <trkpt lat="61.2379721" lon="14.5092164">
        <ele>444.747</ele>
        <time>2014-12-21T12:20:40Z</time>
      </trkpt>
      <trkpt lat="61.2379179" lon="14.5093984">
        <ele>444.266</ele>
        <time>2014-12-21T12:20:42Z</time>
      </trkpt>
      <trkpt lat="61.2378081" lon="14.5097304">
        <ele>443.786</ele>
        <time>2014-12-21T12:20:46Z</time>
      </trkpt>
      <trkpt lat="61.2376833" lon="14.5100676">
        <ele>443.305</ele>
        <time>2014-12-21T12:20:50Z</time>
      </trkpt>
      <trkpt lat="61.2374808" lon="14.5106204">
        <ele>441.382</ele>
        <time>2014-12-21T12:20:56Z</time>
      </trkpt>
      <trkpt lat="61.2374252" lon="14.5108064">
        <ele>440.902</ele>
        <time>2014-12-21T12:20:58Z</time>
      </trkpt>
      <trkpt lat="61.2371918" lon="14.5114648">
        <ele>438.979</ele>
        <time>2014-12-21T12:21:05Z</time>
      </trkpt>
      <trkpt lat="61.2371652" lon="14.5115446">
        <ele>438.499</ele>
        <time>2014-12-21T12:21:06Z</time>
      </trkpt>
      <trkpt lat="61.2370457" lon="14.5118697">
        <ele>438.979</ele>
        <time>2014-12-21T12:21:10Z</time>
      </trkpt>
      <trkpt lat="61.2369236" lon="14.5121988">
        <ele>439.94</ele>
        <time>2014-12-21T12:21:15Z</time>
      </trkpt>
      <trkpt lat="61.2368999" lon="14.5122501">
        <ele>439.94</ele>
        <time>2014-12-21T12:21:16Z</time>
      </trkpt>
      <trkpt lat="61.2367927" lon="14.5125162">
        <ele>439.94</ele>
        <time>2014-12-21T12:21:21Z</time>
      </trkpt>
      <trkpt lat="61.2366356" lon="14.5128541">
        <ele>440.421</ele>
        <time>2014-12-21T12:21:27Z</time>
      </trkpt>
      <trkpt lat="61.2365198" lon="14.5131776">
        <ele>440.902</ele>
        <time>2014-12-21T12:21:32Z</time>
      </trkpt>
      <trkpt lat="61.2364239" lon="14.5134827">
        <ele>441.382</ele>
        <time>2014-12-21T12:21:36Z</time>
      </trkpt>
      <trkpt lat="61.236296" lon="14.5138743">
        <ele>440.421</ele>
        <time>2014-12-21T12:21:41Z</time>
      </trkpt>
      <trkpt lat="61.2362334" lon="14.5140675">
        <ele>438.979</ele>
        <time>2014-12-21T12:21:44Z</time>
      </trkpt>
      <trkpt lat="61.2361101" lon="14.5143788">
        <ele>438.979</ele>
        <time>2014-12-21T12:21:50Z</time>
      </trkpt>
      <trkpt lat="61.2360127" lon="14.5146031">
        <ele>439.46</ele>
        <time>2014-12-21T12:21:54Z</time>
      </trkpt>
      <trkpt lat="61.2359223" lon="14.5148307">
        <ele>440.421</ele>
        <time>2014-12-21T12:21:58Z</time>
      </trkpt>
      <trkpt lat="61.2358676" lon="14.5150054">
        <ele>439.94</ele>
        <time>2014-12-21T12:22:01Z</time>
      </trkpt>
      <trkpt lat="61.2357351" lon="14.5152991">
        <ele>438.018</ele>
        <time>2014-12-21T12:22:06Z</time>
      </trkpt>
      <trkpt lat="61.235619" lon="14.5155958">
        <ele>435.134</ele>
        <time>2014-12-21T12:22:11Z</time>
      </trkpt>
      <trkpt lat="61.235534" lon="14.5158282">
        <ele>433.692</ele>
        <time>2014-12-21T12:22:15Z</time>
      </trkpt>
      <trkpt lat="61.2354557" lon="14.5160542">
        <ele>433.692</ele>
        <time>2014-12-21T12:22:19Z</time>
      </trkpt>
      <trkpt lat="61.2353331" lon="14.5163799">
        <ele>433.211</ele>
        <time>2014-12-21T12:22:25Z</time>
      </trkpt>
      <trkpt lat="61.2352542" lon="14.5165954">
        <ele>433.692</ele>
        <time>2014-12-21T12:22:29Z</time>
      </trkpt>
      <trkpt lat="61.2351378" lon="14.5168939">
        <ele>434.173</ele>
        <time>2014-12-21T12:22:34Z</time>
      </trkpt>
      <trkpt lat="61.2350125" lon="14.5172415">
        <ele>434.173</ele>
        <time>2014-12-21T12:22:38Z</time>
      </trkpt>
      <trkpt lat="61.2348452" lon="14.517775">
        <ele>435.134</ele>
        <time>2014-12-21T12:22:44Z</time>
      </trkpt>
      <trkpt lat="61.2347333" lon="14.5181018">
        <ele>435.134</ele>
        <time>2014-12-21T12:22:48Z</time>
      </trkpt>
      <trkpt lat="61.2346768" lon="14.5182772">
        <ele>435.615</ele>
        <time>2014-12-21T12:22:50Z</time>
      </trkpt>
      <trkpt lat="61.2345782" lon="14.5185384">
        <ele>436.576</ele>
        <time>2014-12-21T12:22:54Z</time>
      </trkpt>
      <trkpt lat="61.2345194" lon="14.5186925">
        <ele>437.537</ele>
        <time>2014-12-21T12:22:57Z</time>
      </trkpt>
      <trkpt lat="61.2344135" lon="14.518953">
        <ele>438.499</ele>
        <time>2014-12-21T12:23:02Z</time>
      </trkpt>
      <trkpt lat="61.2343123" lon="14.5192229">
        <ele>438.979</ele>
        <time>2014-12-21T12:23:07Z</time>
      </trkpt>
      <trkpt lat="61.2342172" lon="14.5194772">
        <ele>439.46</ele>
        <time>2014-12-21T12:23:12Z</time>
      </trkpt>
      <trkpt lat="61.2341647" lon="14.5196174">
        <ele>439.46</ele>
        <time>2014-12-21T12:23:15Z</time>
      </trkpt>
      <trkpt lat="61.2341197" lon="14.519792">
        <ele>439.46</ele>
        <time>2014-12-21T12:23:18Z</time>
      </trkpt>
      <trkpt lat="61.2340376" lon="14.5201222">
        <ele>438.018</ele>
        <time>2014-12-21T12:23:22Z</time>
      </trkpt>
      <trkpt lat="61.2339665" lon="14.5204558">
        <ele>437.057</ele>
        <time>2014-12-21T12:23:26Z</time>
      </trkpt>
      <trkpt lat="61.2339375" lon="14.5206143">
        <ele>436.095</ele>
        <time>2014-12-21T12:23:28Z</time>
      </trkpt>
      <trkpt lat="61.2339116" lon="14.5208982">
        <ele>434.653</ele>
        <time>2014-12-21T12:23:32Z</time>
      </trkpt>
      <trkpt lat="61.2338925" lon="14.5212599">
        <ele>432.25</ele>
        <time>2014-12-21T12:23:37Z</time>
      </trkpt>
      <trkpt lat="61.2338026" lon="14.5216299">
        <ele>431.289</ele>
        <time>2014-12-21T12:23:42Z</time>
      </trkpt>
      <trkpt lat="61.2337501" lon="14.5220098">
        <ele>430.808</ele>
        <time>2014-12-21T12:23:46Z</time>
      </trkpt>
      <trkpt lat="61.233652" lon="14.5225609">
        <ele>429.366</ele>
        <time>2014-12-21T12:23:51Z</time>
      </trkpt>
      <trkpt lat="61.2335921" lon="14.5227998">
        <ele>428.405</ele>
        <time>2014-12-21T12:23:53Z</time>
      </trkpt>
      <trkpt lat="61.2332632" lon="14.5237514">
        <ele>429.366</ele>
        <time>2014-12-21T12:24:02Z</time>
      </trkpt>
      <trkpt lat="61.233228" lon="14.5238622">
        <ele>429.366</ele>
        <time>2014-12-21T12:24:03Z</time>
      </trkpt>
      <trkpt lat="61.2331372" lon="14.5242299">
        <ele>427.924</ele>
        <time>2014-12-21T12:24:07Z</time>
      </trkpt>
      <trkpt lat="61.232979" lon="14.524737">
        <ele>426.001</ele>
        <time>2014-12-21T12:24:13Z</time>
      </trkpt>
      <trkpt lat="61.2328236" lon="14.5252837">
        <ele>425.04</ele>
        <time>2014-12-21T12:24:19Z</time>
      </trkpt>
      <trkpt lat="61.2327215" lon="14.5255689">
        <ele>424.559</ele>
        <time>2014-12-21T12:24:22Z</time>
      </trkpt>
      <trkpt lat="61.2323736" lon="14.5262989">
        <ele>421.195</ele>
        <time>2014-12-21T12:24:29Z</time>
      </trkpt>
      <trkpt lat="61.2320788" lon="14.5267957">
        <ele>419.753</ele>
        <time>2014-12-21T12:24:34Z</time>
      </trkpt>
      <trkpt lat="61.2318337" lon="14.5273768">
        <ele>420.233</ele>
        <time>2014-12-21T12:24:40Z</time>
      </trkpt>
      <trkpt lat="61.2318039" lon="14.5274572">
        <ele>421.195</ele>
        <time>2014-12-21T12:24:41Z</time>
      </trkpt>
      <trkpt lat="61.231634" lon="14.5276937">
        <ele>423.598</ele>
        <time>2014-12-21T12:24:46Z</time>
      </trkpt>
      <trkpt lat="61.2316014" lon="14.5277261">
        <ele>423.598</ele>
        <time>2014-12-21T12:24:47Z</time>
      </trkpt>
      <trkpt lat="61.2314095" lon="14.5280778">
        <ele>425.04</ele>
        <time>2014-12-21T12:24:53Z</time>
      </trkpt>
      <trkpt lat="61.2312483" lon="14.5285559">
        <ele>423.598</ele>
        <time>2014-12-21T12:24:58Z</time>
      </trkpt>
      <trkpt lat="61.231072" lon="14.5292155">
        <ele>420.714</ele>
        <time>2014-12-21T12:25:03Z</time>
      </trkpt>
      <trkpt lat="61.2307564" lon="14.5304829">
        <ele>417.83</ele>
        <time>2014-12-21T12:25:12Z</time>
      </trkpt>
      <trkpt lat="61.2304161" lon="14.5319037">
        <ele>412.062</ele>
        <time>2014-12-21T12:25:22Z</time>
      </trkpt>
      <trkpt lat="61.2300896" lon="14.5332598">
        <ele>408.217</ele>
        <time>2014-12-21T12:25:31Z</time>
      </trkpt>
      <trkpt lat="61.2298893" lon="14.5340225">
        <ele>408.217</ele>
        <time>2014-12-21T12:25:37Z</time>
      </trkpt>
      <trkpt lat="61.2297078" lon="14.5344964">
        <ele>406.775</ele>
        <time>2014-12-21T12:25:42Z</time>
      </trkpt>
      <trkpt lat="61.2295829" lon="14.5347403">
        <ele>406.294</ele>
        <time>2014-12-21T12:25:46Z</time>
      </trkpt>
      <trkpt lat="61.2295392" lon="14.534799">
        <ele>407.256</ele>
        <time>2014-12-21T12:25:50Z</time>
      </trkpt>
      <trkpt lat="61.2296038" lon="14.5347237">
        <ele>406.775</ele>
        <time>2014-12-21T12:25:54Z</time>
      </trkpt>
      <trkpt lat="61.2296712" lon="14.5345895">
        <ele>406.775</ele>
        <time>2014-12-21T12:25:57Z</time>
      </trkpt>
      <trkpt lat="61.2297678" lon="14.5343468">
        <ele>406.294</ele>
        <time>2014-12-21T12:26:02Z</time>
      </trkpt>
      <trkpt lat="61.2298564" lon="14.5341445">
        <ele>405.814</ele>
        <time>2014-12-21T12:26:06Z</time>
      </trkpt>
      <trkpt lat="61.2299326" lon="14.5339955">
        <ele>405.333</ele>
        <time>2014-12-21T12:26:09Z</time>
      </trkpt>
      <trkpt lat="61.2300303" lon="14.5337479">
        <ele>404.372</ele>
        <time>2014-12-21T12:26:14Z</time>
      </trkpt>
      <trkpt lat="61.2300996" lon="14.5334851">
        <ele>402.449</ele>
        <time>2014-12-21T12:26:19Z</time>
      </trkpt>
      <trkpt lat="61.2301799" lon="14.5332268">
        <ele>399.084</ele>
        <time>2014-12-21T12:26:24Z</time>
      </trkpt>
      <trkpt lat="61.2302372" lon="14.533013">
        <ele>398.123</ele>
        <time>2014-12-21T12:26:28Z</time>
      </trkpt>
      <trkpt lat="61.2303118" lon="14.5327987">
        <ele>397.162</ele>
        <time>2014-12-21T12:26:32Z</time>
      </trkpt>
      <trkpt lat="61.2303442" lon="14.5326425">
        <ele>397.642</ele>
        <time>2014-12-21T12:26:35Z</time>
      </trkpt>
      <trkpt lat="61.2303972" lon="14.5324344">
        <ele>398.604</ele>
        <time>2014-12-21T12:26:39Z</time>
      </trkpt>
      <trkpt lat="61.2304632" lon="14.5322233">
        <ele>397.642</ele>
        <time>2014-12-21T12:26:43Z</time>
      </trkpt>
      <trkpt lat="61.2304959" lon="14.5320759">
        <ele>397.642</ele>
        <time>2014-12-21T12:26:46Z</time>
      </trkpt>
      <trkpt lat="61.2305524" lon="14.5318944">
        <ele>396.681</ele>
        <time>2014-12-21T12:26:50Z</time>
      </trkpt>
      <trkpt lat="61.2306005" lon="14.5317153">
        <ele>396.201</ele>
        <time>2014-12-21T12:26:54Z</time>
      </trkpt>
      <trkpt lat="61.230657" lon="14.5315183">
        <ele>396.681</ele>
        <time>2014-12-21T12:26:58Z</time>
      </trkpt>
      <trkpt lat="61.2307054" lon="14.5313324">
        <ele>397.642</ele>
        <time>2014-12-21T12:27:02Z</time>
      </trkpt>
      <trkpt lat="61.2307461" lon="14.5311365">
        <ele>398.123</ele>
        <time>2014-12-21T12:27:06Z</time>
      </trkpt>
      <trkpt lat="61.2308104" lon="14.5308552">
        <ele>399.565</ele>
        <time>2014-12-21T12:27:12Z</time>
      </trkpt>
      <trkpt lat="61.2308646" lon="14.5306528">
        <ele>400.526</ele>
        <time>2014-12-21T12:27:16Z</time>
      </trkpt>
      <trkpt lat="61.2309168" lon="14.530468">
        <ele>400.526</ele>
        <time>2014-12-21T12:27:20Z</time>
      </trkpt>
      <trkpt lat="61.2309632" lon="14.5303304">
        <ele>400.526</ele>
        <time>2014-12-21T12:27:23Z</time>
      </trkpt>
      <trkpt lat="61.2310018" lon="14.5301387">
        <ele>401.969</ele>
        <time>2014-12-21T12:27:27Z</time>
      </trkpt>
      <trkpt lat="61.2310469" lon="14.5299794">
        <ele>402.449</ele>
        <time>2014-12-21T12:27:30Z</time>
      </trkpt>
      <trkpt lat="61.2310881" lon="14.5298111">
        <ele>402.449</ele>
        <time>2014-12-21T12:27:33Z</time>
      </trkpt>
      <trkpt lat="61.2311347" lon="14.5296415">
        <ele>401.969</ele>
        <time>2014-12-21T12:27:36Z</time>
      </trkpt>
      <trkpt lat="61.2311631" lon="14.5295407">
        <ele>401.488</ele>
        <time>2014-12-21T12:27:38Z</time>
      </trkpt>
      <trkpt lat="61.2311965" lon="14.529335">
        <ele>402.449</ele>
        <time>2014-12-21T12:27:42Z</time>
      </trkpt>
      <trkpt lat="61.2312409" lon="14.5291546">
        <ele>402.449</ele>
        <time>2014-12-21T12:27:46Z</time>
      </trkpt>
      <trkpt lat="61.2313066" lon="14.5288786">
        <ele>402.93</ele>
        <time>2014-12-21T12:27:52Z</time>
      </trkpt>
      <trkpt lat="61.2313427" lon="14.5287243">
        <ele>401.969</ele>
        <time>2014-12-21T12:27:55Z</time>
      </trkpt>
      <trkpt lat="61.2313659" lon="14.5285051">
        <ele>402.93</ele>
        <time>2014-12-21T12:27:59Z</time>
      </trkpt>
      <trkpt lat="61.2314328" lon="14.5283438">
        <ele>404.372</ele>
        <time>2014-12-21T12:28:02Z</time>
      </trkpt>
      <trkpt lat="61.2315512" lon="14.5280462">
        <ele>406.294</ele>
        <time>2014-12-21T12:28:09Z</time>
      </trkpt>
      <trkpt lat="61.2316085" lon="14.5278856">
        <ele>407.736</ele>
        <time>2014-12-21T12:28:12Z</time>
      </trkpt>
      <trkpt lat="61.2316575" lon="14.5277234">
        <ele>410.14</ele>
        <time>2014-12-21T12:28:16Z</time>
      </trkpt>
      <trkpt lat="61.231713" lon="14.5275723">
        <ele>412.543</ele>
        <time>2014-12-21T12:28:20Z</time>
      </trkpt>
      <trkpt lat="61.231801" lon="14.5274423">
        <ele>414.465</ele>
        <time>2014-12-21T12:28:24Z</time>
      </trkpt>
      <trkpt lat="61.2318684" lon="14.5272913">
        <ele>415.907</ele>
        <time>2014-12-21T12:28:28Z</time>
      </trkpt>
      <trkpt lat="61.2319281" lon="14.5271177">
        <ele>417.35</ele>
        <time>2014-12-21T12:28:32Z</time>
      </trkpt>
      <trkpt lat="61.232011" lon="14.5268326">
        <ele>418.311</ele>
        <time>2014-12-21T12:28:36Z</time>
      </trkpt>
      <trkpt lat="61.2321151" lon="14.5265681">
        <ele>419.272</ele>
        <time>2014-12-21T12:28:40Z</time>
      </trkpt>
      <trkpt lat="61.2322414" lon="14.5263181">
        <ele>419.753</ele>
        <time>2014-12-21T12:28:43Z</time>
      </trkpt>
      <trkpt lat="61.2323995" lon="14.5261058">
        <ele>421.675</ele>
        <time>2014-12-21T12:28:48Z</time>
      </trkpt>
      <trkpt lat="61.2324404" lon="14.5260358">
        <ele>422.637</ele>
        <time>2014-12-21T12:28:50Z</time>
      </trkpt>
      <trkpt lat="61.2325139" lon="14.5258919">
        <ele>424.079</ele>
        <time>2014-12-21T12:28:54Z</time>
      </trkpt>
      <trkpt lat="61.2326264" lon="14.5256766">
        <ele>425.521</ele>
        <time>2014-12-21T12:28:59Z</time>
      </trkpt>
      <trkpt lat="61.2327267" lon="14.5254955">
        <ele>426.001</ele>
        <time>2014-12-21T12:29:04Z</time>
      </trkpt>
      <trkpt lat="61.2328206" lon="14.5252586">
        <ele>426.963</ele>
        <time>2014-12-21T12:29:10Z</time>
      </trkpt>
      <trkpt lat="61.2328926" lon="14.5250042">
        <ele>426.963</ele>
        <time>2014-12-21T12:29:15Z</time>
      </trkpt>
      <trkpt lat="61.2329616" lon="14.5247585">
        <ele>426.963</ele>
        <time>2014-12-21T12:29:20Z</time>
      </trkpt>
      <trkpt lat="61.2330344" lon="14.5245092">
        <ele>427.443</ele>
        <time>2014-12-21T12:29:25Z</time>
      </trkpt>
      <trkpt lat="61.2330936" lon="14.5243051">
        <ele>427.924</ele>
        <time>2014-12-21T12:29:29Z</time>
      </trkpt>
      <trkpt lat="61.2331817" lon="14.5239858">
        <ele>429.366</ele>
        <time>2014-12-21T12:29:35Z</time>
      </trkpt>
      <trkpt lat="61.2332443" lon="14.5237793">
        <ele>429.847</ele>
        <time>2014-12-21T12:29:39Z</time>
      </trkpt>
      <trkpt lat="61.2333144" lon="14.5235613">
        <ele>430.327</ele>
        <time>2014-12-21T12:29:43Z</time>
      </trkpt>
      <trkpt lat="61.2334071" lon="14.523267">
        <ele>430.808</ele>
        <time>2014-12-21T12:29:48Z</time>
      </trkpt>
      <trkpt lat="61.2334742" lon="14.5230503">
        <ele>431.289</ele>
        <time>2014-12-21T12:29:52Z</time>
      </trkpt>
      <trkpt lat="61.2335392" lon="14.5227773">
        <ele>431.769</ele>
        <time>2014-12-21T12:29:57Z</time>
      </trkpt>
      <trkpt lat="61.2336138" lon="14.5225041">
        <ele>431.769</ele>
        <time>2014-12-21T12:30:02Z</time>
      </trkpt>
      <trkpt lat="61.2336949" lon="14.5222707">
        <ele>431.769</ele>
        <time>2014-12-21T12:30:06Z</time>
      </trkpt>
      <trkpt lat="61.2337526" lon="14.5220579">
        <ele>431.289</ele>
        <time>2014-12-21T12:30:10Z</time>
      </trkpt>
      <trkpt lat="61.2337931" lon="14.5219109">
        <ele>430.327</ele>
        <time>2014-12-21T12:30:13Z</time>
      </trkpt>
      <trkpt lat="61.2338408" lon="14.5217118">
        <ele>428.885</ele>
        <time>2014-12-21T12:30:17Z</time>
      </trkpt>
      <trkpt lat="61.2338536" lon="14.5216207">
        <ele>428.885</ele>
        <time>2014-12-21T12:30:19Z</time>
      </trkpt>
      <trkpt lat="61.2338718" lon="14.5214421">
        <ele>429.366</ele>
        <time>2014-12-21T12:30:23Z</time>
      </trkpt>
      <trkpt lat="61.2339122" lon="14.5212297">
        <ele>429.847</ele>
        <time>2014-12-21T12:30:27Z</time>
      </trkpt>
      <trkpt lat="61.2339492" lon="14.5210547">
        <ele>429.847</ele>
        <time>2014-12-21T12:30:30Z</time>
      </trkpt>
      <trkpt lat="61.2340057" lon="14.520798">
        <ele>429.366</ele>
        <time>2014-12-21T12:30:34Z</time>
      </trkpt>
      <trkpt lat="61.234037" lon="14.5204321">
        <ele>429.366</ele>
        <time>2014-12-21T12:30:39Z</time>
      </trkpt>
      <trkpt lat="61.234085" lon="14.5201448">
        <ele>429.847</ele>
        <time>2014-12-21T12:30:43Z</time>
      </trkpt>
      <trkpt lat="61.2341323" lon="14.5199366">
        <ele>430.808</ele>
        <time>2014-12-21T12:30:46Z</time>
      </trkpt>
      <trkpt lat="61.2341919" lon="14.5196876">
        <ele>433.692</ele>
        <time>2014-12-21T12:30:51Z</time>
      </trkpt>
      <trkpt lat="61.2342215" lon="14.5195199">
        <ele>438.979</ele>
        <time>2014-12-21T12:31:17Z</time>
      </trkpt>
      <trkpt lat="61.2342224" lon="14.519499">
        <ele>438.979</ele>
        <time>2014-12-21T12:31:18Z</time>
      </trkpt>
      <trkpt lat="61.2341861" lon="14.5192995">
        <ele>438.499</ele>
        <time>2014-12-21T12:31:22Z</time>
      </trkpt>
      <trkpt lat="61.2340226" lon="14.5190445">
        <ele>438.499</ele>
        <time>2014-12-21T12:31:27Z</time>
      </trkpt>
      <trkpt lat="61.2337377" lon="14.5187914">
        <ele>437.057</ele>
        <time>2014-12-21T12:31:32Z</time>
      </trkpt>
      <trkpt lat="61.2336771" lon="14.5187557">
        <ele>436.576</ele>
        <time>2014-12-21T12:31:33Z</time>
      </trkpt>
      <trkpt lat="61.2334495" lon="14.5187867">
        <ele>436.095</ele>
        <time>2014-12-21T12:31:37Z</time>
      </trkpt>
      <trkpt lat="61.2331748" lon="14.5189867">
        <ele>436.095</ele>
        <time>2014-12-21T12:31:43Z</time>
      </trkpt>
      <trkpt lat="61.23303" lon="14.5189366">
        <ele>435.615</ele>
        <time>2014-12-21T12:31:47Z</time>
      </trkpt>
      <trkpt lat="61.2329124" lon="14.5187128">
        <ele>436.095</ele>
        <time>2014-12-21T12:31:53Z</time>
      </trkpt>
      <trkpt lat="61.2328229" lon="14.5185405">
        <ele>436.576</ele>
        <time>2014-12-21T12:31:57Z</time>
      </trkpt>
      <trkpt lat="61.2327342" lon="14.5184131">
        <ele>435.615</ele>
        <time>2014-12-21T12:32:00Z</time>
      </trkpt>
      <trkpt lat="61.2326166" lon="14.5182786">
        <ele>435.615</ele>
        <time>2014-12-21T12:32:04Z</time>
      </trkpt>
      <trkpt lat="61.2324844" lon="14.5180626">
        <ele>434.653</ele>
        <time>2014-12-21T12:32:09Z</time>
      </trkpt>
      <trkpt lat="61.2324114" lon="14.5178946">
        <ele>435.134</ele>
        <time>2014-12-21T12:32:13Z</time>
      </trkpt>
      <trkpt lat="61.2323457" lon="14.517672">
        <ele>436.095</ele>
        <time>2014-12-21T12:32:18Z</time>
      </trkpt>
      <trkpt lat="61.2322704" lon="14.5173001">
        <ele>438.018</ele>
        <time>2014-12-21T12:32:26Z</time>
      </trkpt>
      <trkpt lat="61.2322508" lon="14.5171903">
        <ele>439.46</ele>
        <time>2014-12-21T12:32:28Z</time>
      </trkpt>
      <trkpt lat="61.2322281" lon="14.5170871">
        <ele>443.305</ele>
        <time>2014-12-21T12:33:11Z</time>
      </trkpt>
      <trkpt lat="61.2322276" lon="14.5170753">
        <ele>443.305</ele>
        <time>2014-12-21T12:33:12Z</time>
      </trkpt>
      <trkpt lat="61.2322025" lon="14.5169158">
        <ele>443.305</ele>
        <time>2014-12-21T12:33:16Z</time>
      </trkpt>
      <trkpt lat="61.2321452" lon="14.5166182">
        <ele>443.305</ele>
        <time>2014-12-21T12:33:21Z</time>
      </trkpt>
      <trkpt lat="61.2321089" lon="14.5164049">
        <ele>443.305</ele>
        <time>2014-12-21T12:33:25Z</time>
      </trkpt>
      <trkpt lat="61.2320665" lon="14.5161397">
        <ele>443.786</ele>
        <time>2014-12-21T12:33:30Z</time>
      </trkpt>
      <trkpt lat="61.2320172" lon="14.5158792">
        <ele>444.266</ele>
        <time>2014-12-21T12:33:35Z</time>
      </trkpt>
      <trkpt lat="61.2320079" lon="14.5158267">
        <ele>444.747</ele>
        <time>2014-12-21T12:33:36Z</time>
      </trkpt>
      <trkpt lat="61.2319286" lon="14.5154844">
        <ele>445.708</ele>
        <time>2014-12-21T12:33:42Z</time>
      </trkpt>
      <trkpt lat="61.231855" lon="14.5152937">
        <ele>445.708</ele>
        <time>2014-12-21T12:33:46Z</time>
      </trkpt>
      <trkpt lat="61.2317432" lon="14.5150843">
        <ele>447.631</ele>
        <time>2014-12-21T12:33:53Z</time>
      </trkpt>
      <trkpt lat="61.2316966" lon="14.5148639">
        <ele>448.592</ele>
        <time>2014-12-21T12:33:58Z</time>
      </trkpt>
      <trkpt lat="61.2316977" lon="14.5146262">
        <ele>449.073</ele>
        <time>2014-12-21T12:34:02Z</time>
      </trkpt>
      <trkpt lat="61.2317167" lon="14.5143895">
        <ele>449.554</ele>
        <time>2014-12-21T12:34:06Z</time>
      </trkpt>
      <trkpt lat="61.2317402" lon="14.5141587">
        <ele>449.554</ele>
        <time>2014-12-21T12:34:10Z</time>
      </trkpt>
      <trkpt lat="61.231779" lon="14.5138777">
        <ele>449.554</ele>
        <time>2014-12-21T12:34:15Z</time>
      </trkpt>
      <trkpt lat="61.2318116" lon="14.5136132">
        <ele>449.554</ele>
        <time>2014-12-21T12:34:19Z</time>
      </trkpt>
      <trkpt lat="61.2318318" lon="14.5134309">
        <ele>449.073</ele>
        <time>2014-12-21T12:34:22Z</time>
      </trkpt>
      <trkpt lat="61.2318475" lon="14.5130509">
        <ele>449.554</ele>
        <time>2014-12-21T12:34:27Z</time>
      </trkpt>
      <trkpt lat="61.2318283" lon="14.512698">
        <ele>448.592</ele>
        <time>2014-12-21T12:34:32Z</time>
      </trkpt>
      <trkpt lat="61.2318085" lon="14.5124442">
        <ele>449.554</ele>
        <time>2014-12-21T12:34:36Z</time>
      </trkpt>
      <trkpt lat="61.2317796" lon="14.5121848">
        <ele>450.034</ele>
        <time>2014-12-21T12:34:40Z</time>
      </trkpt>
      <trkpt lat="61.2317461" lon="14.5118417">
        <ele>451.476</ele>
        <time>2014-12-21T12:34:45Z</time>
      </trkpt>
      <trkpt lat="61.231722" lon="14.5115849">
        <ele>451.957</ele>
        <time>2014-12-21T12:34:49Z</time>
      </trkpt>
      <trkpt lat="61.231714" lon="14.5113953">
        <ele>451.476</ele>
        <time>2014-12-21T12:34:52Z</time>
      </trkpt>
      <trkpt lat="61.2317162" lon="14.5111048">
        <ele>450.034</ele>
        <time>2014-12-21T12:34:57Z</time>
      </trkpt>
      <trkpt lat="61.2317141" lon="14.510888">
        <ele>449.554</ele>
        <time>2014-12-21T12:35:01Z</time>
      </trkpt>
      <trkpt lat="61.2317127" lon="14.5105937">
        <ele>449.554</ele>
        <time>2014-12-21T12:35:06Z</time>
      </trkpt>
      <trkpt lat="61.2317132" lon="14.510429">
        <ele>448.112</ele>
        <time>2014-12-21T12:35:09Z</time>
      </trkpt>
      <trkpt lat="61.2317006" lon="14.5101882">
        <ele>447.631</ele>
        <time>2014-12-21T12:35:14Z</time>
      </trkpt>
      <trkpt lat="61.2316992" lon="14.5099946">
        <ele>447.15</ele>
        <time>2014-12-21T12:35:18Z</time>
      </trkpt>
      <trkpt lat="61.2316703" lon="14.5097639">
        <ele>446.67</ele>
        <time>2014-12-21T12:35:23Z</time>
      </trkpt>
      <trkpt lat="61.2316043" lon="14.5094475">
        <ele>449.073</ele>
        <time>2014-12-21T12:35:29Z</time>
      </trkpt>
      <trkpt lat="61.2315448" lon="14.5092332">
        <ele>451.476</ele>
        <time>2014-12-21T12:35:33Z</time>
      </trkpt>
      <trkpt lat="61.2314837" lon="14.5090058">
        <ele>453.399</ele>
        <time>2014-12-21T12:35:37Z</time>
      </trkpt>
      <trkpt lat="61.2314211" lon="14.5088026">
        <ele>455.322</ele>
        <time>2014-12-21T12:35:41Z</time>
      </trkpt>
      <trkpt lat="61.2313583" lon="14.5086023">
        <ele>456.764</ele>
        <time>2014-12-21T12:35:45Z</time>
      </trkpt>
      <trkpt lat="61.231291" lon="14.5083648">
        <ele>457.244</ele>
        <time>2014-12-21T12:35:49Z</time>
      </trkpt>
      <trkpt lat="61.2312086" lon="14.5081416">
        <ele>457.725</ele>
        <time>2014-12-21T12:35:53Z</time>
      </trkpt>
      <trkpt lat="61.2311453" lon="14.5078692">
        <ele>457.725</ele>
        <time>2014-12-21T12:35:57Z</time>
      </trkpt>
      <trkpt lat="61.2310771" lon="14.5075615">
        <ele>457.725</ele>
        <time>2014-12-21T12:36:02Z</time>
      </trkpt>
      <trkpt lat="61.2310306" lon="14.5073165">
        <ele>458.206</ele>
        <time>2014-12-21T12:36:06Z</time>
      </trkpt>
      <trkpt lat="61.230977" lon="14.5070403">
        <ele>458.686</ele>
        <time>2014-12-21T12:36:10Z</time>
      </trkpt>
      <trkpt lat="61.2309388" lon="14.5068429">
        <ele>458.206</ele>
        <time>2014-12-21T12:36:13Z</time>
      </trkpt>
      <trkpt lat="61.230893" lon="14.5065778">
        <ele>457.725</ele>
        <time>2014-12-21T12:36:17Z</time>
      </trkpt>
      <trkpt lat="61.2308486" lon="14.5063432">
        <ele>457.725</ele>
        <time>2014-12-21T12:36:21Z</time>
      </trkpt>
      <trkpt lat="61.2308061" lon="14.5060984">
        <ele>457.244</ele>
        <time>2014-12-21T12:36:25Z</time>
      </trkpt>
      <trkpt lat="61.2307578" lon="14.5058439">
        <ele>458.206</ele>
        <time>2014-12-21T12:36:30Z</time>
      </trkpt>
      <trkpt lat="61.2307098" lon="14.5056069">
        <ele>458.686</ele>
        <time>2014-12-21T12:36:34Z</time>
      </trkpt>
      <trkpt lat="61.2306563" lon="14.505349">
        <ele>458.686</ele>
        <time>2014-12-21T12:36:38Z</time>
      </trkpt>
      <trkpt lat="61.2305875" lon="14.5051098">
        <ele>458.686</ele>
        <time>2014-12-21T12:36:42Z</time>
      </trkpt>
      <trkpt lat="61.2305181" lon="14.5048414">
        <ele>459.167</ele>
        <time>2014-12-21T12:36:46Z</time>
      </trkpt>
      <trkpt lat="61.2304951" lon="14.5046986">
        <ele>459.167</ele>
        <time>2014-12-21T12:36:48Z</time>
      </trkpt>
      <trkpt lat="61.2305781" lon="14.5045056">
        <ele>459.648</ele>
        <time>2014-12-21T12:36:52Z</time>
      </trkpt>
      <trkpt lat="61.2306434" lon="14.5044907">
        <ele>459.648</ele>
        <time>2014-12-21T12:36:54Z</time>
      </trkpt>
      <trkpt lat="61.2308455" lon="14.5043747">
        <ele>458.686</ele>
        <time>2014-12-21T12:37:00Z</time>
      </trkpt>
      <trkpt lat="61.2309912" lon="14.5042664">
        <ele>458.686</ele>
        <time>2014-12-21T12:37:04Z</time>
      </trkpt>
      <trkpt lat="61.2312127" lon="14.504143">
        <ele>458.206</ele>
        <time>2014-12-21T12:37:09Z</time>
      </trkpt>
      <trkpt lat="61.2312946" lon="14.5041078">
        <ele>457.725</ele>
        <time>2014-12-21T12:37:11Z</time>
      </trkpt>
      <trkpt lat="61.2316023" lon="14.5040452">
        <ele>454.841</ele>
        <time>2014-12-21T12:37:17Z</time>
      </trkpt>
      <trkpt lat="61.2317" lon="14.5040596">
        <ele>453.88</ele>
        <time>2014-12-21T12:37:19Z</time>
      </trkpt>
      <trkpt lat="61.232167" lon="14.5042824">
        <ele>452.918</ele>
        <time>2014-12-21T12:37:27Z</time>
      </trkpt>
      <trkpt lat="61.2324849" lon="14.5044447">
        <ele>452.918</ele>
        <time>2014-12-21T12:37:33Z</time>
      </trkpt>
      <trkpt lat="61.232539" lon="14.5044838">
        <ele>452.438</ele>
        <time>2014-12-21T12:37:34Z</time>
      </trkpt>
      <trkpt lat="61.2328974" lon="14.5046912">
        <ele>451.476</ele>
        <time>2014-12-21T12:37:40Z</time>
      </trkpt>
      <trkpt lat="61.2334711" lon="14.5050451">
        <ele>451.476</ele>
        <time>2014-12-21T12:37:49Z</time>
      </trkpt>
      <trkpt lat="61.23353" lon="14.5050801">
        <ele>451.476</ele>
        <time>2014-12-21T12:37:50Z</time>
      </trkpt>
      <trkpt lat="61.2337986" lon="14.5052486">
        <ele>451.957</ele>
        <time>2014-12-21T12:37:55Z</time>
      </trkpt>
      <trkpt lat="61.233893" lon="14.5053082">
        <ele>451.957</ele>
        <time>2014-12-21T12:37:57Z</time>
      </trkpt>
      <trkpt lat="61.2340233" lon="14.5053805">
        <ele>451.957</ele>
        <time>2014-12-21T12:38:00Z</time>
      </trkpt>
      <trkpt lat="61.2342038" lon="14.5055905">
        <ele>450.034</ele>
        <time>2014-12-21T12:38:05Z</time>
      </trkpt>
      <trkpt lat="61.2343115" lon="14.5055945">
        <ele>449.073</ele>
        <time>2014-12-21T12:38:09Z</time>
      </trkpt>
      <trkpt lat="61.2343017" lon="14.5054879">
        <ele>449.073</ele>
        <time>2014-12-21T12:38:12Z</time>
      </trkpt>
      <trkpt lat="61.2342271" lon="14.5054402">
        <ele>449.554</ele>
        <time>2014-12-21T12:38:15Z</time>
      </trkpt>
      <trkpt lat="61.234092" lon="14.5053717">
        <ele>450.034</ele>
        <time>2014-12-21T12:38:20Z</time>
      </trkpt>
      <trkpt lat="61.2339787" lon="14.5053057">
        <ele>449.554</ele>
        <time>2014-12-21T12:38:24Z</time>
      </trkpt>
      <trkpt lat="61.2338624" lon="14.5052214">
        <ele>449.554</ele>
        <time>2014-12-21T12:38:27Z</time>
      </trkpt>
      <trkpt lat="61.2336847" lon="14.5051204">
        <ele>448.592</ele>
        <time>2014-12-21T12:38:31Z</time>
      </trkpt>
      <trkpt lat="61.233506" lon="14.5050515">
        <ele>449.073</ele>
        <time>2014-12-21T12:38:35Z</time>
      </trkpt>
      <trkpt lat="61.2333207" lon="14.5050075">
        <ele>449.073</ele>
        <time>2014-12-21T12:38:39Z</time>
      </trkpt>
      <trkpt lat="61.233232" lon="14.5049909">
        <ele>448.112</ele>
        <time>2014-12-21T12:38:41Z</time>
      </trkpt>
      <trkpt lat="61.2330678" lon="14.504915">
        <ele>447.15</ele>
        <time>2014-12-21T12:38:45Z</time>
      </trkpt>
      <trkpt lat="61.2329324" lon="14.5047792">
        <ele>445.228</ele>
        <time>2014-12-21T12:38:49Z</time>
      </trkpt>
      <trkpt lat="61.2327647" lon="14.504672">
        <ele>443.305</ele>
        <time>2014-12-21T12:38:54Z</time>
      </trkpt>
      <trkpt lat="61.2326319" lon="14.5045905">
        <ele>441.863</ele>
        <time>2014-12-21T12:38:58Z</time>
      </trkpt>
      <trkpt lat="61.2324886" lon="14.5044746">
        <ele>440.902</ele>
        <time>2014-12-21T12:39:03Z</time>
      </trkpt>
      <trkpt lat="61.2323317" lon="14.5043845">
        <ele>441.382</ele>
        <time>2014-12-21T12:39:08Z</time>
      </trkpt>
      <trkpt lat="61.2321329" lon="14.5042654">
        <ele>441.863</ele>
        <time>2014-12-21T12:39:14Z</time>
      </trkpt>
      <trkpt lat="61.2319675" lon="14.5041903">
        <ele>442.824</ele>
        <time>2014-12-21T12:39:19Z</time>
      </trkpt>
      <trkpt lat="61.2319166" lon="14.5041816">
        <ele>443.786</ele>
        <time>2014-12-21T12:39:21Z</time>
      </trkpt>
      <trkpt lat="61.2318043" lon="14.5040929">
        <ele>444.266</ele>
        <time>2014-12-21T12:39:26Z</time>
      </trkpt>
      <trkpt lat="61.2316957" lon="14.5040611">
        <ele>445.228</ele>
        <time>2014-12-21T12:39:30Z</time>
      </trkpt>
      <trkpt lat="61.2315676" lon="14.5040166">
        <ele>445.228</ele>
        <time>2014-12-21T12:39:35Z</time>
      </trkpt>
      <trkpt lat="61.2314459" lon="14.5040256">
        <ele>446.67</ele>
        <time>2014-12-21T12:39:40Z</time>
      </trkpt>
      <trkpt lat="61.2313418" lon="14.5040329">
        <ele>449.073</ele>
        <time>2014-12-21T12:39:44Z</time>
      </trkpt>
      <trkpt lat="61.2312412" lon="14.5040455">
        <ele>450.996</ele>
        <time>2014-12-21T12:39:48Z</time>
      </trkpt>
      <trkpt lat="61.2311305" lon="14.5040684">
        <ele>452.438</ele>
        <time>2014-12-21T12:39:52Z</time>
      </trkpt>
      <trkpt lat="61.2309776" lon="14.5041999">
        <ele>453.399</ele>
        <time>2014-12-21T12:39:57Z</time>
      </trkpt>
      <trkpt lat="61.230816" lon="14.5043084">
        <ele>454.36</ele>
        <time>2014-12-21T12:40:02Z</time>
      </trkpt>
      <trkpt lat="61.2306392" lon="14.5043902">
        <ele>455.802</ele>
        <time>2014-12-21T12:40:07Z</time>
      </trkpt>
      <trkpt lat="61.2305155" lon="14.5044261">
        <ele>456.283</ele>
        <time>2014-12-21T12:40:11Z</time>
      </trkpt>
      <trkpt lat="61.230396" lon="14.504486">
        <ele>456.764</ele>
        <time>2014-12-21T12:40:15Z</time>
      </trkpt>
      <trkpt lat="61.230343" lon="14.5045269">
        <ele>457.725</ele>
        <time>2014-12-21T12:40:18Z</time>
      </trkpt>
      <trkpt lat="61.2303784" lon="14.5045143">
        <ele>461.089</ele>
        <time>2014-12-21T12:41:28Z</time>
      </trkpt>
      <trkpt lat="61.2262333" lon="14.5086088">
        <ele>458.206</ele>
        <time>2014-12-21T12:43:29Z</time>
      </trkpt>
      <trkpt lat="61.226096" lon="14.5089591">
        <ele>460.609</ele>
        <time>2014-12-21T12:43:35Z</time>
      </trkpt>
      <trkpt lat="61.2260016" lon="14.5092465">
        <ele>460.609</ele>
        <time>2014-12-21T12:43:39Z</time>
      </trkpt>
      <trkpt lat="61.2258928" lon="14.5095388">
        <ele>460.128</ele>
        <time>2014-12-21T12:43:43Z</time>
      </trkpt>
      <trkpt lat="61.225817" lon="14.5097547">
        <ele>460.128</ele>
        <time>2014-12-21T12:43:46Z</time>
      </trkpt>
      <trkpt lat="61.225725" lon="14.5100007">
        <ele>460.609</ele>
        <time>2014-12-21T12:43:50Z</time>
      </trkpt>
      <trkpt lat="61.2256334" lon="14.5102698">
        <ele>460.609</ele>
        <time>2014-12-21T12:43:54Z</time>
      </trkpt>
      <trkpt lat="61.2255259" lon="14.5106297">
        <ele>461.57</ele>
        <time>2014-12-21T12:43:59Z</time>
      </trkpt>
      <trkpt lat="61.2254036" lon="14.5110125">
        <ele>465.416</ele>
        <time>2014-12-21T12:44:04Z</time>
      </trkpt>
      <trkpt lat="61.2253011" lon="14.5112827">
        <ele>465.896</ele>
        <time>2014-12-21T12:44:08Z</time>
      </trkpt>
      <trkpt lat="61.225243" lon="14.5114041">
        <ele>465.416</ele>
        <time>2014-12-21T12:44:10Z</time>
      </trkpt>
      <trkpt lat="61.2250739" lon="14.5117217">
        <ele>466.377</ele>
        <time>2014-12-21T12:44:15Z</time>
      </trkpt>
      <trkpt lat="61.2248946" lon="14.5120255">
        <ele>468.299</ele>
        <time>2014-12-21T12:44:21Z</time>
      </trkpt>
      <trkpt lat="61.2247656" lon="14.5121837">
        <ele>466.377</ele>
        <time>2014-12-21T12:44:26Z</time>
      </trkpt>
      <trkpt lat="61.224676" lon="14.5122752">
        <ele>465.416</ele>
        <time>2014-12-21T12:44:29Z</time>
      </trkpt>
      <trkpt lat="61.2244921" lon="14.5124715">
        <ele>465.896</ele>
        <time>2014-12-21T12:44:34Z</time>
      </trkpt>
      <trkpt lat="61.2243479" lon="14.5126406">
        <ele>465.896</ele>
        <time>2014-12-21T12:44:38Z</time>
      </trkpt>
      <trkpt lat="61.2243174" lon="14.5126858">
        <ele>465.896</ele>
        <time>2014-12-21T12:44:39Z</time>
      </trkpt>
      <trkpt lat="61.2242506" lon="14.5127753">
        <ele>465.896</ele>
        <time>2014-12-21T12:44:41Z</time>
      </trkpt>
      <trkpt lat="61.2240316" lon="14.5130436">
        <ele>467.819</ele>
        <time>2014-12-21T12:44:47Z</time>
      </trkpt>
      <trkpt lat="61.2238834" lon="14.513229">
        <ele>468.299</ele>
        <time>2014-12-21T12:44:51Z</time>
      </trkpt>
      <trkpt lat="61.2238475" lon="14.5132618">
        <ele>468.299</ele>
        <time>2014-12-21T12:44:52Z</time>
      </trkpt>
      <trkpt lat="61.2237514" lon="14.5133982">
        <ele>468.299</ele>
        <time>2014-12-21T12:44:55Z</time>
      </trkpt>
      <trkpt lat="61.2235944" lon="14.513619">
        <ele>467.819</ele>
        <time>2014-12-21T12:45:00Z</time>
      </trkpt>
      <trkpt lat="61.2235588" lon="14.5136481">
        <ele>467.338</ele>
        <time>2014-12-21T12:45:01Z</time>
      </trkpt>
      <trkpt lat="61.2233316" lon="14.5139024">
        <ele>466.377</ele>
        <time>2014-12-21T12:45:07Z</time>
      </trkpt>
      <trkpt lat="61.2232958" lon="14.5139497">
        <ele>466.377</ele>
        <time>2014-12-21T12:45:08Z</time>
      </trkpt>
      <trkpt lat="61.2232618" lon="14.514003">
        <ele>465.896</ele>
        <time>2014-12-21T12:45:09Z</time>
      </trkpt>
      <trkpt lat="61.2231299" lon="14.5141844">
        <ele>464.454</ele>
        <time>2014-12-21T12:45:13Z</time>
      </trkpt>
      <trkpt lat="61.2229886" lon="14.5143926">
        <ele>463.973</ele>
        <time>2014-12-21T12:45:17Z</time>
      </trkpt>
      <trkpt lat="61.222836" lon="14.5145733">
        <ele>462.531</ele>
        <time>2014-12-21T12:45:21Z</time>
      </trkpt>
      <trkpt lat="61.2227128" lon="14.5147116">
        <ele>461.57</ele>
        <time>2014-12-21T12:45:25Z</time>
      </trkpt>
      <trkpt lat="61.2224879" lon="14.5149602">
        <ele>462.051</ele>
        <time>2014-12-21T12:45:32Z</time>
      </trkpt>
      <trkpt lat="61.2223249" lon="14.5151087">
        <ele>461.57</ele>
        <time>2014-12-21T12:45:36Z</time>
      </trkpt>
      <trkpt lat="61.2221796" lon="14.5151813">
        <ele>461.089</ele>
        <time>2014-12-21T12:45:40Z</time>
      </trkpt>
      <trkpt lat="61.2220471" lon="14.5152245">
        <ele>461.089</ele>
        <time>2014-12-21T12:45:44Z</time>
      </trkpt>
      <trkpt lat="61.221889" lon="14.5152632">
        <ele>460.128</ele>
        <time>2014-12-21T12:45:49Z</time>
      </trkpt>
      <trkpt lat="61.2217664" lon="14.5152929">
        <ele>460.609</ele>
        <time>2014-12-21T12:45:53Z</time>
      </trkpt>
      <trkpt lat="61.221588" lon="14.5153341">
        <ele>462.051</ele>
        <time>2014-12-21T12:45:58Z</time>
      </trkpt>
      <trkpt lat="61.2214494" lon="14.5153978">
        <ele>462.531</ele>
        <time>2014-12-21T12:46:02Z</time>
      </trkpt>
      <trkpt lat="61.2213158" lon="14.5154135">
        <ele>463.493</ele>
        <time>2014-12-21T12:46:06Z</time>
      </trkpt>
      <trkpt lat="61.2211647" lon="14.5154617">
        <ele>464.935</ele>
        <time>2014-12-21T12:46:11Z</time>
      </trkpt>
      <trkpt lat="61.221008" lon="14.5154954">
        <ele>465.416</ele>
        <time>2014-12-21T12:46:16Z</time>
      </trkpt>
      <trkpt lat="61.2208816" lon="14.5155315">
        <ele>465.896</ele>
        <time>2014-12-21T12:46:20Z</time>
      </trkpt>
      <trkpt lat="61.2207468" lon="14.5156227">
        <ele>466.857</ele>
        <time>2014-12-21T12:46:24Z</time>
      </trkpt>
      <trkpt lat="61.2206358" lon="14.5157093">
        <ele>467.338</ele>
        <time>2014-12-21T12:46:28Z</time>
      </trkpt>
      <trkpt lat="61.2205319" lon="14.5158093">
        <ele>468.78</ele>
        <time>2014-12-21T12:46:32Z</time>
      </trkpt>
      <trkpt lat="61.220436" lon="14.5159513">
        <ele>469.741</ele>
        <time>2014-12-21T12:46:36Z</time>
      </trkpt>
      <trkpt lat="61.2203015" lon="14.5162283">
        <ele>471.664</ele>
        <time>2014-12-21T12:46:42Z</time>
      </trkpt>
      <trkpt lat="61.22019" lon="14.5164967">
        <ele>471.664</ele>
        <time>2014-12-21T12:46:47Z</time>
      </trkpt>
      <trkpt lat="61.2200889" lon="14.5167721">
        <ele>472.145</ele>
        <time>2014-12-21T12:46:51Z</time>
      </trkpt>
      <trkpt lat="61.2199894" lon="14.5171985">
        <ele>472.625</ele>
        <time>2014-12-21T12:46:56Z</time>
      </trkpt>
      <trkpt lat="61.2199549" lon="14.5173611">
        <ele>473.106</ele>
        <time>2014-12-21T12:46:58Z</time>
      </trkpt>
      <trkpt lat="61.2198244" lon="14.517758">
        <ele>471.664</ele>
        <time>2014-12-21T12:47:04Z</time>
      </trkpt>
      <trkpt lat="61.2197754" lon="14.5178568">
        <ele>470.222</ele>
        <time>2014-12-21T12:47:06Z</time>
      </trkpt>
      <trkpt lat="61.2196472" lon="14.5182049">
        <ele>469.741</ele>
        <time>2014-12-21T12:47:12Z</time>
      </trkpt>
      <trkpt lat="61.2195886" lon="14.5184604">
        <ele>470.703</ele>
        <time>2014-12-21T12:47:16Z</time>
      </trkpt>
      <trkpt lat="61.2195007" lon="14.5187689">
        <ele>469.261</ele>
        <time>2014-12-21T12:47:21Z</time>
      </trkpt>
      <trkpt lat="61.2194883" lon="14.5188303">
        <ele>468.78</ele>
        <time>2014-12-21T12:47:22Z</time>
      </trkpt>
      <trkpt lat="61.2193859" lon="14.5191432">
        <ele>468.78</ele>
        <time>2014-12-21T12:47:27Z</time>
      </trkpt>
      <trkpt lat="61.2192598" lon="14.5194665">
        <ele>468.78</ele>
        <time>2014-12-21T12:47:32Z</time>
      </trkpt>
      <trkpt lat="61.2190665" lon="14.5199092">
        <ele>467.819</ele>
        <time>2014-12-21T12:47:38Z</time>
      </trkpt>
      <trkpt lat="61.2188297" lon="14.5203899">
        <ele>465.416</ele>
        <time>2014-12-21T12:47:44Z</time>
      </trkpt>
      <trkpt lat="61.2186096" lon="14.520821">
        <ele>464.454</ele>
        <time>2014-12-21T12:47:49Z</time>
      </trkpt>
      <trkpt lat="61.21846" lon="14.5211037">
        <ele>463.012</ele>
        <time>2014-12-21T12:47:53Z</time>
      </trkpt>
      <trkpt lat="61.2183564" lon="14.5213109">
        <ele>462.051</ele>
        <time>2014-12-21T12:47:56Z</time>
      </trkpt>
      <trkpt lat="61.2182262" lon="14.5214952">
        <ele>461.57</ele>
        <time>2014-12-21T12:48:00Z</time>
      </trkpt>
      <trkpt lat="61.2181216" lon="14.5216651">
        <ele>463.493</ele>
        <time>2014-12-21T12:48:05Z</time>
      </trkpt>
      <trkpt lat="61.2179554" lon="14.5218974">
        <ele>466.857</ele>
        <time>2014-12-21T12:48:12Z</time>
      </trkpt>
      <trkpt lat="61.2178755" lon="14.5220797">
        <ele>470.222</ele>
        <time>2014-12-21T12:48:17Z</time>
      </trkpt>
      <trkpt lat="61.2177806" lon="14.5222387">
        <ele>472.145</ele>
        <time>2014-12-21T12:48:22Z</time>
      </trkpt>
      <trkpt lat="61.2177119" lon="14.5223588">
        <ele>472.625</ele>
        <time>2014-12-21T12:48:26Z</time>
      </trkpt>
      <trkpt lat="61.2176096" lon="14.5225413">
        <ele>473.106</ele>
        <time>2014-12-21T12:48:32Z</time>
      </trkpt>
      <trkpt lat="61.2175138" lon="14.5227019">
        <ele>473.106</ele>
        <time>2014-12-21T12:48:36Z</time>
      </trkpt>
      <trkpt lat="61.2174203" lon="14.5229363">
        <ele>471.183</ele>
        <time>2014-12-21T12:48:40Z</time>
      </trkpt>
      <trkpt lat="61.2172944" lon="14.5232281">
        <ele>469.741</ele>
        <time>2014-12-21T12:48:44Z</time>
      </trkpt>
      <trkpt lat="61.2171322" lon="14.5235036">
        <ele>470.222</ele>
        <time>2014-12-21T12:48:48Z</time>
      </trkpt>
      <trkpt lat="61.2169262" lon="14.5239213">
        <ele>470.222</ele>
        <time>2014-12-21T12:48:53Z</time>
      </trkpt>
      <trkpt lat="61.2168705" lon="14.5240444">
        <ele>470.222</ele>
        <time>2014-12-21T12:48:55Z</time>
      </trkpt>
      <trkpt lat="61.2167236" lon="14.5242824">
        <ele>469.261</ele>
        <time>2014-12-21T12:49:00Z</time>
      </trkpt>
      <trkpt lat="61.2164154" lon="14.5246147">
        <ele>465.416</ele>
        <time>2014-12-21T12:49:07Z</time>
      </trkpt>
      <trkpt lat="61.2163588" lon="14.5246644">
        <ele>464.454</ele>
        <time>2014-12-21T12:49:08Z</time>
      </trkpt>
      <trkpt lat="61.2159855" lon="14.5249452">
        <ele>461.089</ele>
        <time>2014-12-21T12:49:14Z</time>
      </trkpt>
      <trkpt lat="61.2157425" lon="14.5250841">
        <ele>459.167</ele>
        <time>2014-12-21T12:49:18Z</time>
      </trkpt>
      <trkpt lat="61.2155041" lon="14.5252479">
        <ele>457.725</ele>
        <time>2014-12-21T12:49:23Z</time>
      </trkpt>
      <trkpt lat="61.215329" lon="14.5253461">
        <ele>456.764</ele>
        <time>2014-12-21T12:49:27Z</time>
      </trkpt>
      <trkpt lat="61.2152145" lon="14.5254494">
        <ele>458.206</ele>
        <time>2014-12-21T12:49:30Z</time>
      </trkpt>
      <trkpt lat="61.2150329" lon="14.5255893">
        <ele>461.57</ele>
        <time>2014-12-21T12:49:35Z</time>
      </trkpt>
      <trkpt lat="61.2148595" lon="14.5256731">
        <ele>463.012</ele>
        <time>2014-12-21T12:49:40Z</time>
      </trkpt>
      <trkpt lat="61.2146555" lon="14.5258132">
        <ele>463.973</ele>
        <time>2014-12-21T12:49:45Z</time>
      </trkpt>
      <trkpt lat="61.2145318" lon="14.5258979">
        <ele>463.493</ele>
        <time>2014-12-21T12:49:49Z</time>
      </trkpt>
      <trkpt lat="61.2143645" lon="14.5260037">
        <ele>462.051</ele>
        <time>2014-12-21T12:49:54Z</time>
      </trkpt>
      <trkpt lat="61.2141302" lon="14.5262241">
        <ele>462.051</ele>
        <time>2014-12-21T12:50:00Z</time>
      </trkpt>
      <trkpt lat="61.2140149" lon="14.5263479">
        <ele>463.012</ele>
        <time>2014-12-21T12:50:03Z</time>
      </trkpt>
      <trkpt lat="61.2138025" lon="14.5265372">
        <ele>463.493</ele>
        <time>2014-12-21T12:50:08Z</time>
      </trkpt>
      <trkpt lat="61.2135667" lon="14.5267777">
        <ele>462.531</ele>
        <time>2014-12-21T12:50:13Z</time>
      </trkpt>
      <trkpt lat="61.2134641" lon="14.526891">
        <ele>462.531</ele>
        <time>2014-12-21T12:50:15Z</time>
      </trkpt>
      <trkpt lat="61.2133672" lon="14.5270087">
        <ele>461.089</ele>
        <time>2014-12-21T12:50:17Z</time>
      </trkpt>
      <trkpt lat="61.2132472" lon="14.5271438">
        <ele>457.725</ele>
        <time>2014-12-21T12:50:20Z</time>
      </trkpt>
      <trkpt lat="61.2130747" lon="14.5272942">
        <ele>454.36</ele>
        <time>2014-12-21T12:50:25Z</time>
      </trkpt>
      <trkpt lat="61.212972" lon="14.5273926">
        <ele>454.36</ele>
        <time>2014-12-21T12:50:28Z</time>
      </trkpt>
      <trkpt lat="61.2128162" lon="14.5275246">
        <ele>454.841</ele>
        <time>2014-12-21T12:50:34Z</time>
      </trkpt>
      <trkpt lat="61.2126886" lon="14.5275851">
        <ele>456.283</ele>
        <time>2014-12-21T12:50:38Z</time>
      </trkpt>
      <trkpt lat="61.212555" lon="14.5276955">
        <ele>457.725</ele>
        <time>2014-12-21T12:50:42Z</time>
      </trkpt>
      <trkpt lat="61.21238" lon="14.5278901">
        <ele>459.167</ele>
        <time>2014-12-21T12:50:46Z</time>
      </trkpt>
      <trkpt lat="61.212271" lon="14.5280103">
        <ele>459.167</ele>
        <time>2014-12-21T12:50:49Z</time>
      </trkpt>
      <trkpt lat="61.2121852" lon="14.5281188">
        <ele>459.167</ele>
        <time>2014-12-21T12:50:52Z</time>
      </trkpt>
      <trkpt lat="61.2118672" lon="14.5284426">
        <ele>458.206</ele>
        <time>2014-12-21T12:51:00Z</time>
      </trkpt>
      <trkpt lat="61.2118268" lon="14.5284792">
        <ele>458.206</ele>
        <time>2014-12-21T12:51:01Z</time>
      </trkpt>
      <trkpt lat="61.2115935" lon="14.5287397">
        <ele>458.206</ele>
        <time>2014-12-21T12:51:07Z</time>
      </trkpt>
      <trkpt lat="61.2114211" lon="14.5288776">
        <ele>459.648</ele>
        <time>2014-12-21T12:51:13Z</time>
      </trkpt>
      <trkpt lat="61.2113122" lon="14.5289724">
        <ele>460.128</ele>
        <time>2014-12-21T12:51:17Z</time>
      </trkpt>
      <trkpt lat="61.2111806" lon="14.529096">
        <ele>460.609</ele>
        <time>2014-12-21T12:51:21Z</time>
      </trkpt>
      <trkpt lat="61.2110135" lon="14.5292713">
        <ele>461.089</ele>
        <time>2014-12-21T12:51:25Z</time>
      </trkpt>
      <trkpt lat="61.2109051" lon="14.5293964">
        <ele>461.57</ele>
        <time>2014-12-21T12:51:28Z</time>
      </trkpt>
      <trkpt lat="61.2107399" lon="14.5296039">
        <ele>462.051</ele>
        <time>2014-12-21T12:51:32Z</time>
      </trkpt>
      <trkpt lat="61.2104381" lon="14.5300186">
        <ele>462.531</ele>
        <time>2014-12-21T12:51:40Z</time>
      </trkpt>
      <trkpt lat="61.2103918" lon="14.5301615">
        <ele>461.57</ele>
        <time>2014-12-21T12:51:42Z</time>
      </trkpt>
      <trkpt lat="61.2106198" lon="14.5306377">
        <ele>463.493</ele>
        <time>2014-12-21T12:53:22Z</time>
      </trkpt>
      <trkpt lat="61.2106851" lon="14.5306438">
        <ele>463.493</ele>
        <time>2014-12-21T12:53:26Z</time>
      </trkpt>
      <trkpt lat="61.2107041" lon="14.530618">
        <ele>463.493</ele>
        <time>2014-12-21T12:53:27Z</time>
      </trkpt>
      <trkpt lat="61.2108187" lon="14.5304235">
        <ele>463.493</ele>
        <time>2014-12-21T12:53:32Z</time>
      </trkpt>
      <trkpt lat="61.2109052" lon="14.5303342">
        <ele>463.973</ele>
        <time>2014-12-21T12:53:35Z</time>
      </trkpt>
      <trkpt lat="61.2110464" lon="14.530529">
        <ele>463.012</ele>
        <time>2014-12-21T12:53:40Z</time>
      </trkpt>
      <trkpt lat="61.2110529" lon="14.530858">
        <ele>461.089</ele>
        <time>2014-12-21T12:53:43Z</time>
      </trkpt>
      <trkpt lat="61.2110454" lon="14.5309807">
        <ele>460.128</ele>
        <time>2014-12-21T12:53:44Z</time>
      </trkpt>
      <trkpt lat="61.2110302" lon="14.5312594">
        <ele>459.167</ele>
        <time>2014-12-21T12:53:46Z</time>
      </trkpt>
      <trkpt lat="61.2110723" lon="14.5319633">
        <ele>456.283</ele>
        <time>2014-12-21T12:53:52Z</time>
      </trkpt>
      <trkpt lat="61.2111192" lon="14.5326521">
        <ele>455.802</ele>
        <time>2014-12-21T12:53:58Z</time>
      </trkpt>
      <trkpt lat="61.211129" lon="14.5327596">
        <ele>455.322</ele>
        <time>2014-12-21T12:53:59Z</time>
      </trkpt>
      <trkpt lat="61.2111828" lon="14.533337">
        <ele>453.88</ele>
        <time>2014-12-21T12:54:05Z</time>
      </trkpt>
      <trkpt lat="61.2111881" lon="14.5334138">
        <ele>453.399</ele>
        <time>2014-12-21T12:54:06Z</time>
      </trkpt>
      <trkpt lat="61.2111638" lon="14.5335568">
        <ele>453.399</ele>
        <time>2014-12-21T12:54:08Z</time>
      </trkpt>
    </trkseg>
  </trk>
</gpx>